Time,TemperatureF,DewpointF,PressureIn,WindDirection,WindDirectionDegrees,WindSpeedMPH,WindSpeedGustMPH,Humidity,HourlyPrecipIn,Conditions,Clouds,dailyrainin,SoftwareType,DateUTC
2013-12-22 00:00:00,26.8,25.6,29.97,NNE,24,3.0,7.0,95,0.00,,OVC002,0.20,VWS V14.00,2013-12-22 05:00:00,
2013-12-22 00:01:00,26.9,25.7,29.97,NNE,17,2.0,4.0,95,0.00,,OVC002,0.00,VWS V14.00,2013-12-22 05:01:00,
2013-12-22 00:02:00,26.8,25.6,29.97,NNE,30,3.0,5.0,95,0.00,,OVC002,0.00,VWS V14.00,2013-12-22 05:02:00,
2013-12-22 00:03:00,26.9,25.7,29.97,NNE,30,1.0,5.0,95,0.00,,OVC002,0.00,VWS V14.00,2013-12-22 05:03:00,
2013-12-22 00:04:00,26.9,25.7,29.96,NE,51,3.0,5.0,95,0.00,,OVC002,0.00,VWS V14.00,2013-12-22 05:04:00,
2013-12-22 00:05:00,26.9,25.7,29.96,NNE,29,3.0,5.0,95,0.00,,OVC002,0.00,VWS V14.00,2013-12-22 05:05:00,
2013-12-22 00:06:00,26.9,25.7,29.96,NE,36,0.0,5.0,95,0.00,,OVC002,0.00,VWS V14.00,2013-12-22 05:06:00,
2013-12-22 00:07:00,26.9,25.7,29.96,NNE,12,4.0,5.0,95,0.00,,OVC002,0.00,VWS V14.00,2013-12-22 05:07:00,
2013-12-22 00:08:00,26.9,25.7,29.97,NNE,15,4.0,7.0,95,0.00,,OVC002,0.00,VWS V14.00,2013-12-22 05:08:00,
2013-12-22 00:09:00,26.9,25.7,29.96,NNE,31,3.0,7.0,95,0.00,,OVC002,0.00,VWS V14.00,2013-12-22 05:09:00,
2013-12-22 00:10:00,26.9,25.7,29.96,NNE,30,2.0,7.0,95,0.00,,OVC002,0.00,VWS V14.00,2013-12-22 05:10:00,
2013-12-22 00:11:00,26.9,25.7,29.96,NNE,33,4.0,4.0,95,0.00,,OVC002,0.00,VWS V14.00,2013-12-22 05:11:00,
2013-12-22 00:12:00,26.8,25.6,29.96,NNE,28,2.0,4.0,95,0.00,,OVC002,0.00,VWS V14.00,2013-12-22 05:12:00,
2013-12-22 00:13:00,26.8,25.6,29.96,NE,37,1.0,4.0,95,0.00,,OVC002,0.00,VWS V14.00,2013-12-22 05:13:00,
2013-12-22 00:14:00,26.8,25.6,29.95,NE,40,1.0,4.0,95,0.00,,OVC002,0.00,VWS V14.00,2013-12-22 05:14:00,
2013-12-22 00:15:00,26.8,25.6,29.95,NNE,18,0.0,4.0,95,0.00,,OVC002,0.00,VWS V14.00,2013-12-22 05:15:00,
2013-12-22 00:16:00,26.8,25.6,29.96,North,355,3.0,4.0,95,0.00,,OVC002,0.00,VWS V14.00,2013-12-22 05:16:00,
2013-12-22 00:17:00,26.9,25.7,29.96,North,360,6.0,6.0,95,0.00,,OVC002,0.00,VWS V14.00,2013-12-22 05:17:00,
2013-12-22 00:18:00,26.8,25.6,29.97,NNE,24,5.0,6.0,95,0.00,,OVC002,0.00,VWS V14.00,2013-12-22 05:18:00,
2013-12-22 00:19:00,26.8,25.6,29.97,North,9,3.0,6.0,95,0.00,,OVC002,0.00,VWS V14.00,2013-12-22 05:19:00,
2013-12-22 00:20:00,26.8,25.6,29.97,NNW,348,11.0,11.0,95,0.00,,OVC002,0.00,VWS V14.00,2013-12-22 05:20:00,
2013-12-22 00:21:00,26.8,25.6,29.98,North,360,5.0,10.0,95,0.00,,OVC002,0.00,VWS V14.00,2013-12-22 05:21:00,
2013-12-22 00:22:00,26.8,25.6,29.98,NNW,340,7.0,10.0,95,0.00,,OVC002,0.00,VWS V14.00,2013-12-22 05:22:00,
2013-12-22 00:23:00,26.7,25.5,29.98,NNW,340,10.0,10.0,95,0.00,,OVC002,0.00,VWS V14.00,2013-12-22 05:23:00,
2013-12-22 00:24:00,26.7,25.5,29.97,NNW,344,7.0,10.0,95,0.00,,OVC002,0.00,VWS V14.00,2013-12-22 05:24:00,
2013-12-22 00:25:00,26.7,25.5,29.97,North,360,6.0,10.0,95,0.00,,OVC002,0.00,VWS V14.00,2013-12-22 05:25:00,
2013-12-22 00:26:00,26.7,25.2,29.97,North,355,6.0,10.0,94,0.00,,OVC002,0.00,VWS V14.00,2013-12-22 05:26:00,
2013-12-22 00:27:00,26.7,25.2,29.97,NNE,32,2.0,10.0,94,0.00,,OVC002,0.00,VWS V14.00,2013-12-22 05:27:00,
2013-12-22 00:28:00,26.7,25.2,29.97,North,360,3.0,10.0,94,0.00,,OVC002,0.00,VWS V14.00,2013-12-22 05:28:00,
2013-12-22 00:29:00,26.8,25.6,29.97,North,355,5.0,10.0,95,0.00,,OVC002,0.00,VWS V14.00,2013-12-22 05:29:00,
2013-12-22 00:30:00,26.8,25.6,29.97,NNW,346,9.0,10.0,95,0.00,,OVC002,0.00,VWS V14.00,2013-12-22 05:30:00,
2013-12-22 00:31:00,26.9,25.7,29.97,NNE,14,2.0,9.0,95,0.00,,OVC002,0.00,VWS V14.00,2013-12-22 05:31:00,
2013-12-22 00:32:00,27.0,25.8,29.97,NNE,25,2.0,9.0,95,0.00,,OVC002,0.00,VWS V14.00,2013-12-22 05:32:00,
2013-12-22 00:33:00,27.0,25.8,29.97,NNE,15,4.0,9.0,95,0.00,,OVC002,0.00,VWS V14.00,2013-12-22 05:33:00,
2013-12-22 00:34:00,27.1,25.9,29.97,NE,46,4.0,9.0,95,0.00,,OVC002,0.00,VWS V14.00,2013-12-22 05:34:00,
2013-12-22 00:35:00,27.1,25.9,29.97,North,355,4.0,9.0,95,0.00,,OVC002,0.00,VWS V14.00,2013-12-22 05:35:00,
2013-12-22 00:36:00,27.1,25.9,29.97,NNE,27,3.0,9.0,95,0.00,,OVC002,0.00,VWS V14.00,2013-12-22 05:36:00,
2013-12-22 00:37:00,27.2,26.0,29.97,NE,40,3.0,9.0,95,0.00,,OVC002,0.00,VWS V14.00,2013-12-22 05:37:00,
2013-12-22 00:38:00,27.2,26.0,29.97,North,360,4.0,9.0,95,0.00,,OVC002,0.00,VWS V14.00,2013-12-22 05:38:00,
2013-12-22 00:39:00,27.2,26.0,29.97,North,360,7.0,9.0,95,0.00,,OVC002,0.00,VWS V14.00,2013-12-22 05:39:00,
2013-12-22 00:40:00,27.2,26.0,29.97,North,360,7.0,11.0,95,0.00,,OVC002,0.00,VWS V14.00,2013-12-22 05:40:00,
2013-12-22 00:41:00,27.1,25.6,29.97,NNE,30,5.0,11.0,94,0.00,,OVC002,0.00,VWS V14.00,2013-12-22 05:41:00,
2013-12-22 00:42:00,27.1,25.6,29.97,NW,315,5.0,12.0,94,0.00,,OVC002,0.00,VWS V14.00,2013-12-22 05:42:00,
2013-12-22 00:43:00,27.1,25.6,29.97,NNW,335,5.0,12.0,94,0.00,,OVC002,0.00,VWS V14.00,2013-12-22 05:43:00,
2013-12-22 00:44:00,27.0,25.5,29.98,NNE,30,3.0,12.0,94,0.00,,OVC002,0.00,VWS V14.00,2013-12-22 05:44:00,
2013-12-22 00:45:00,27.0,25.5,29.98,North,355,9.0,12.0,94,0.00,,OVC002,0.00,VWS V14.00,2013-12-22 05:45:00,
2013-12-22 00:46:00,27.0,25.5,29.98,NNW,342,6.0,12.0,94,0.00,,OVC002,0.00,VWS V14.00,2013-12-22 05:46:00,
2013-12-22 00:47:00,26.9,25.4,29.98,NE,56,3.0,12.0,94,0.00,,OVC003,0.00,VWS V14.00,2013-12-22 05:47:00,
2013-12-22 00:48:00,27.0,25.5,29.97,NE,47,4.0,12.0,94,0.00,,OVC003,0.00,VWS V14.00,2013-12-22 05:48:00,
2013-12-22 00:49:00,26.9,25.4,29.97,NNE,24,2.0,12.0,94,0.00,,OVC003,0.00,VWS V14.00,2013-12-22 05:49:00,
2013-12-22 00:50:00,26.9,25.4,29.97,NE,42,5.0,12.0,94,0.00,,OVC003,0.00,VWS V14.00,2013-12-22 05:50:00,
2013-12-22 00:51:00,26.8,25.3,29.97,NNE,33,3.0,6.0,94,0.00,,OVC003,0.00,VWS V14.00,2013-12-22 05:51:00,
2013-12-22 00:52:00,26.8,25.3,29.97,NNE,25,3.0,6.0,94,0.00,,OVC003,0.00,VWS V14.00,2013-12-22 05:52:00,
2013-12-22 00:53:00,26.7,25.2,29.97,NNE,28,3.0,6.0,94,0.00,,OVC003,0.00,VWS V14.00,2013-12-22 05:53:00,
2013-12-22 00:54:00,26.7,25.2,29.96,NE,54,1.0,6.0,94,0.00,,OVC003,0.00,VWS V14.00,2013-12-22 05:54:00,
2013-12-22 00:55:00,26.7,25.2,29.96,NNE,23,5.0,10.0,94,0.00,,OVC003,0.00,VWS V14.00,2013-12-22 05:55:00,
2013-12-22 00:56:00,26.7,25.2,29.96,NNE,33,3.0,10.0,94,0.00,,OVC003,0.00,VWS V14.00,2013-12-22 05:56:00,
2013-12-22 00:57:00,26.7,25.2,29.96,NE,41,7.0,10.0,94,0.00,,OVC003,0.00,VWS V14.00,2013-12-22 05:57:00,
2013-12-22 00:58:00,26.7,25.2,29.96,NNE,32,4.0,10.0,94,0.00,,OVC003,0.00,VWS V14.00,2013-12-22 05:58:00,
2013-12-22 00:59:00,26.7,25.2,29.96,NNE,19,4.0,10.0,94,0.00,,OVC003,0.00,VWS V14.00,2013-12-22 05:59:00,
2013-12-22 01:00:00,26.7,25.2,29.96,NE,36,4.0,10.0,94,0.00,,OVC003,0.00,VWS V14.00,2013-12-22 06:00:00,
2013-12-22 01:01:00,26.7,25.2,29.96,NE,49,0.0,3.0,94,0.00,,OVC003,0.00,VWS V14.00,2013-12-22 06:01:00,
2013-12-22 01:02:00,26.7,25.2,29.96,NNE,24,2.0,5.0,94,0.00,,OVC003,0.00,VWS V14.00,2013-12-22 06:02:00,
2013-12-22 01:03:00,26.7,25.2,29.96,ENE,78,3.0,5.0,94,0.00,,OVC003,0.00,VWS V14.00,2013-12-22 06:03:00,
2013-12-22 01:04:00,26.7,25.2,29.96,North,355,1.0,5.0,94,0.00,,OVC003,0.00,VWS V14.00,2013-12-22 06:04:00,
2013-12-22 01:05:00,26.7,25.2,29.95,NNE,22,2.0,5.0,94,0.00,,OVC003,0.00,VWS V14.00,2013-12-22 06:05:00,
2013-12-22 01:06:00,26.7,25.2,29.95,NNE,32,2.0,5.0,94,0.00,,OVC003,0.00,VWS V14.00,2013-12-22 06:06:00,
2013-12-22 01:07:00,26.8,25.3,29.95,NNE,12,3.0,5.0,94,0.00,,OVC003,0.00,VWS V14.00,2013-12-22 06:07:00,
2013-12-22 01:08:00,26.8,25.3,29.95,NNE,28,0.0,5.0,94,0.00,,OVC003,0.00,VWS V14.00,2013-12-22 06:08:00,
2013-12-22 01:09:00,26.8,25.3,29.95,NE,43,1.0,5.0,94,0.00,,OVC003,0.00,VWS V14.00,2013-12-22 06:09:00,
2013-12-22 01:10:00,26.8,25.3,29.95,NE,34,2.0,6.0,94,0.00,,OVC003,0.00,VWS V14.00,2013-12-22 06:10:00,
2013-12-22 01:11:00,26.8,25.3,29.95,NNE,19,2.0,3.0,94,0.00,,OVC003,0.00,VWS V14.00,2013-12-22 06:11:00,
2013-12-22 01:12:00,26.9,25.4,29.95,NNE,23,2.0,3.0,94,0.00,,OVC003,0.00,VWS V14.00,2013-12-22 06:12:00,
2013-12-22 01:13:00,26.9,25.4,29.95,NNE,22,2.0,4.0,94,0.00,,OVC003,0.00,VWS V14.00,2013-12-22 06:13:00,
2013-12-22 01:14:00,26.9,25.4,29.95,NE,38,3.0,4.0,94,0.00,,OVC003,0.00,VWS V14.00,2013-12-22 06:14:00,
2013-12-22 01:15:00,26.9,25.4,29.95,NNE,29,4.0,4.0,94,0.00,,OVC003,0.00,VWS V14.00,2013-12-22 06:15:00,
2013-12-22 01:16:00,26.9,25.4,29.94,NE,38,1.0,4.0,94,0.00,,OVC003,0.00,VWS V14.00,2013-12-22 06:16:00,
2013-12-22 01:17:00,26.9,25.4,29.94,North,5,2.0,4.0,94,0.00,,OVC003,0.00,VWS V14.00,2013-12-22 06:17:00,
2013-12-22 01:18:00,26.9,25.4,29.94,NNE,14,0.0,4.0,94,0.00,,OVC003,0.00,VWS V14.00,2013-12-22 06:18:00,
2013-12-22 01:19:00,26.9,25.4,29.94,NNE,32,3.0,6.0,94,0.00,,OVC003,0.00,VWS V14.00,2013-12-22 06:19:00,
2013-12-22 01:20:00,26.9,25.4,29.94,NE,40,1.0,6.0,94,0.00,,OVC003,0.00,VWS V14.00,2013-12-22 06:20:00,
2013-12-22 01:21:00,26.9,25.4,29.94,NE,40,0.0,1.0,94,0.00,,OVC003,0.00,VWS V14.00,2013-12-22 06:21:00,
2013-12-22 01:22:00,26.9,25.4,29.94,NE,40,0.0,1.0,94,0.00,,OVC003,0.00,VWS V14.00,2013-12-22 06:22:00,
2013-12-22 01:23:00,27.0,25.5,29.94,NNE,26,3.0,4.0,94,0.00,,OVC003,0.00,VWS V14.00,2013-12-22 06:23:00,
2013-12-22 01:24:00,27.0,25.5,29.94,NNE,22,2.0,6.0,94,0.00,,OVC003,0.00,VWS V14.00,2013-12-22 06:24:00,
2013-12-22 01:25:00,27.0,25.5,29.94,NNE,32,4.0,6.0,94,0.00,,OVC003,0.00,VWS V14.00,2013-12-22 06:25:00,
2013-12-22 01:26:00,27.0,25.5,29.94,North,360,3.0,6.0,94,0.00,,OVC003,0.00,VWS V14.00,2013-12-22 06:26:00,
2013-12-22 01:27:00,27.0,25.5,29.95,North,360,4.0,6.0,94,0.00,,OVC003,0.00,VWS V14.00,2013-12-22 06:27:00,
2013-12-22 01:28:00,27.0,25.5,29.95,North,360,4.0,6.0,94,0.00,,OVC003,0.00,VWS V14.00,2013-12-22 06:28:00,
2013-12-22 01:29:00,27.0,25.5,29.95,North,360,5.0,6.0,94,0.00,,OVC003,0.00,VWS V14.00,2013-12-22 06:29:00,
2013-12-22 01:30:00,27.0,25.5,29.95,North,10,3.0,6.0,94,0.00,,OVC003,0.00,VWS V14.00,2013-12-22 06:30:00,
2013-12-22 01:31:00,27.0,25.5,29.96,NNE,27,2.0,5.0,94,0.00,,OVC003,0.00,VWS V14.00,2013-12-22 06:31:00,
2013-12-22 01:32:00,27.0,25.5,29.95,NNE,26,2.0,5.0,94,0.00,,OVC003,0.00,VWS V14.00,2013-12-22 06:32:00,
2013-12-22 01:33:00,27.0,25.5,29.95,NNE,21,2.0,5.0,94,0.00,,OVC003,0.00,VWS V14.00,2013-12-22 06:33:00,
2013-12-22 01:34:00,27.0,25.5,29.95,North,5,2.0,5.0,94,0.00,,OVC003,0.00,VWS V14.00,2013-12-22 06:34:00,
2013-12-22 01:35:00,27.0,25.5,29.95,North,355,3.0,5.0,94,0.00,,OVC003,0.00,VWS V14.00,2013-12-22 06:35:00,
2013-12-22 01:36:00,27.0,25.5,29.95,North,360,5.0,9.0,94,0.00,,OVC003,0.00,VWS V14.00,2013-12-22 06:36:00,
2013-12-22 01:37:00,26.9,25.4,29.95,NNW,348,6.0,10.0,94,0.00,,OVC003,0.00,VWS V14.00,2013-12-22 06:37:00,
2013-12-22 01:38:00,26.8,25.3,29.95,NNE,15,3.0,10.0,94,0.00,,OVC003,0.00,VWS V14.00,2013-12-22 06:38:00,
2013-12-22 01:39:00,26.7,25.2,29.95,NNE,26,2.0,10.0,94,0.00,,OVC003,0.00,VWS V14.00,2013-12-22 06:39:00,
2013-12-22 01:40:00,26.7,25.2,29.95,NNE,27,2.0,10.0,94,0.00,,OVC003,0.00,VWS V14.00,2013-12-22 06:40:00,
2013-12-22 01:41:00,26.7,25.2,29.95,NE,42,3.0,4.0,94,0.00,,OVC003,0.00,VWS V14.00,2013-12-22 06:41:00,
2013-12-22 01:42:00,26.7,25.2,29.95,NE,34,0.0,4.0,94,0.00,,OVC003,0.00,VWS V14.00,2013-12-22 06:42:00,
2013-12-22 01:43:00,26.7,25.2,29.95,NE,36,1.0,4.0,94,0.00,,OVC003,0.00,VWS V14.00,2013-12-22 06:43:00,
2013-12-22 01:44:00,26.6,25.1,29.95,NNE,33,2.0,4.0,94,0.00,,OVC003,0.00,VWS V14.00,2013-12-22 06:44:00,
2013-12-22 01:45:00,26.6,25.1,29.95,NNE,26,3.0,4.0,94,0.00,,OVC003,0.00,VWS V14.00,2013-12-22 06:45:00,
2013-12-22 01:46:00,26.5,25.0,29.95,NNW,342,4.0,4.0,94,0.00,,OVC003,0.00,VWS V14.00,2013-12-22 06:46:00,
2013-12-22 01:47:00,26.4,24.9,29.95,North,360,9.0,9.0,94,0.00,,OVC008,0.00,VWS V14.00,2013-12-22 06:47:00,
2013-12-22 01:48:00,26.4,24.9,29.96,North,350,3.0,9.0,94,0.00,,OVC008,0.00,VWS V14.00,2013-12-22 06:48:00,
2013-12-22 01:49:00,26.3,24.8,29.96,NNE,29,2.0,9.0,94,0.00,,OVC008,0.00,VWS V14.00,2013-12-22 06:49:00,
2013-12-22 01:50:00,26.3,24.8,29.95,NNE,12,1.0,9.0,94,0.00,,OVC008,0.00,VWS V14.00,2013-12-22 06:50:00,
2013-12-22 01:51:00,26.3,24.8,29.96,North,360,6.0,7.0,94,0.00,,OVC008,0.00,VWS V14.00,2013-12-22 06:51:00,
2013-12-22 01:52:00,26.3,24.8,29.96,NNE,32,4.0,7.0,94,0.00,,OVC008,0.00,VWS V14.00,2013-12-22 06:52:00,
2013-12-22 01:53:00,26.2,24.7,29.96,NNE,14,4.0,7.0,94,0.00,,OVC008,0.00,VWS V14.00,2013-12-22 06:53:00,
2013-12-22 01:54:00,26.3,24.8,29.96,North,11,4.0,8.0,94,0.00,,OVC008,0.00,VWS V14.00,2013-12-22 06:54:00,
2013-12-22 01:55:00,26.3,24.8,29.96,NNE,21,3.0,8.0,94,0.00,,OVC008,0.00,VWS V14.00,2013-12-22 06:55:00,
2013-12-22 01:56:00,26.3,24.8,29.96,NE,42,4.0,8.0,94,0.00,,OVC008,0.00,VWS V14.00,2013-12-22 06:56:00,
2013-12-22 01:57:00,26.3,24.8,29.96,NNE,22,2.0,8.0,94,0.00,,OVC008,0.00,VWS V14.00,2013-12-22 06:57:00,
2013-12-22 01:58:00,26.3,24.8,29.96,NNE,25,2.0,8.0,94,0.00,,OVC008,0.00,VWS V14.00,2013-12-22 06:58:00,
2013-12-22 01:59:00,26.3,24.8,29.96,NNE,26,0.0,8.0,94,0.00,,OVC008,0.00,VWS V14.00,2013-12-22 06:59:00,
2013-12-22 02:00:00,26.3,24.8,29.96,NNE,32,2.0,8.0,94,0.00,,OVC008,0.00,VWS V14.00,2013-12-22 07:00:00,
2013-12-22 02:01:00,26.3,24.8,29.96,NE,42,6.0,6.0,94,0.00,,OVC008,0.00,VWS V14.00,2013-12-22 07:01:00,
2013-12-22 02:02:00,26.3,24.8,29.96,NNE,31,2.0,6.0,94,0.00,,OVC008,0.00,VWS V14.00,2013-12-22 07:02:00,
2013-12-22 02:03:00,26.3,24.8,29.96,NNE,14,3.0,6.0,94,0.00,,OVC008,0.00,VWS V14.00,2013-12-22 07:03:00,
2013-12-22 02:04:00,26.3,24.8,29.96,North,9,4.0,6.0,94,0.00,,OVC008,0.00,VWS V14.00,2013-12-22 07:04:00,
2013-12-22 02:05:00,26.3,24.8,29.96,NE,34,2.0,6.0,94,0.00,,OVC008,0.00,VWS V14.00,2013-12-22 07:05:00,
2013-12-22 02:06:00,26.2,24.7,29.96,NNE,25,4.0,6.0,94,0.00,,OVC008,0.00,VWS V14.00,2013-12-22 07:06:00,
2013-12-22 02:07:00,26.2,24.7,29.96,North,355,5.0,6.0,94,0.00,,OVC008,0.00,VWS V14.00,2013-12-22 07:07:00,
2013-12-22 02:08:00,26.2,24.7,29.96,NNE,19,3.0,6.0,94,0.00,,OVC008,0.00,VWS V14.00,2013-12-22 07:08:00,
2013-12-22 02:09:00,26.2,24.7,29.96,North,360,3.0,6.0,94,0.00,,OVC008,0.00,VWS V14.00,2013-12-22 07:09:00,
2013-12-22 02:10:00,26.2,24.7,29.96,NE,49,4.0,6.0,94,0.00,,OVC008,0.00,VWS V14.00,2013-12-22 07:10:00,
2013-12-22 02:11:00,26.2,24.7,29.96,NNE,16,1.0,4.0,94,0.00,,OVC008,0.00,VWS V14.00,2013-12-22 07:11:00,
2013-12-22 02:12:00,26.1,24.6,29.96,NE,46,1.0,4.0,94,0.00,,OVC008,0.00,VWS V14.00,2013-12-22 07:12:00,
2013-12-22 02:13:00,26.1,24.6,29.95,NE,51,4.0,4.0,94,0.00,,OVC008,0.00,VWS V14.00,2013-12-22 07:13:00,
2013-12-22 02:14:00,26.1,24.6,29.96,NE,41,1.0,5.0,94,0.00,,OVC008,0.00,VWS V14.00,2013-12-22 07:14:00,
2013-12-22 02:15:00,26.1,24.6,29.96,NE,42,2.0,5.0,94,0.00,,OVC008,0.00,VWS V14.00,2013-12-22 07:15:00,
2013-12-22 02:16:00,26.1,24.6,29.96,NE,40,2.0,5.0,94,0.00,,OVC008,0.00,VWS V14.00,2013-12-22 07:16:00,
2013-12-22 02:17:00,26.0,24.5,29.95,North,355,2.0,5.0,94,0.00,,OVC008,0.00,VWS V14.00,2013-12-22 07:17:00,
2013-12-22 02:18:00,26.1,24.6,29.95,North,11,2.0,5.0,94,0.00,,OVC008,0.00,VWS V14.00,2013-12-22 07:18:00,
2013-12-22 02:19:00,26.0,24.5,29.95,NNE,26,1.0,5.0,94,0.00,,OVC008,0.00,VWS V14.00,2013-12-22 07:19:00,
2013-12-22 02:20:00,26.0,24.5,29.95,NNE,29,3.0,5.0,94,0.00,,OVC008,0.00,VWS V14.00,2013-12-22 07:20:00,
2013-12-22 02:21:00,26.0,24.5,29.96,NNE,19,3.0,5.0,94,0.00,,OVC008,0.00,VWS V14.00,2013-12-22 07:21:00,
2013-12-22 02:22:00,26.0,24.5,29.96,North,360,3.0,5.0,94,0.00,,OVC008,0.00,VWS V14.00,2013-12-22 07:22:00,
2013-12-22 02:23:00,26.0,24.5,29.96,NNE,21,2.0,5.0,94,0.00,,OVC008,0.00,VWS V14.00,2013-12-22 07:23:00,
2013-12-22 02:24:00,26.0,24.5,29.96,NNE,28,2.0,5.0,94,0.00,,OVC008,0.00,VWS V14.00,2013-12-22 07:24:00,
2013-12-22 02:25:00,26.1,24.6,29.95,NNW,347,4.0,5.0,94,0.00,,OVC008,0.00,VWS V14.00,2013-12-22 07:25:00,
2013-12-22 02:26:00,26.1,24.6,29.95,NNW,340,4.0,7.0,94,0.00,,OVC008,0.00,VWS V14.00,2013-12-22 07:26:00,
2013-12-22 02:27:00,26.0,24.5,29.96,North,360,3.0,7.0,94,0.00,,OVC008,0.00,VWS V14.00,2013-12-22 07:27:00,
2013-12-22 02:28:00,26.0,24.5,29.96,NNE,31,3.0,7.0,94,0.00,,OVC008,0.00,VWS V14.00,2013-12-22 07:28:00,
2013-12-22 02:29:00,26.0,24.5,29.96,NNE,30,3.0,7.0,94,0.00,,OVC008,0.00,VWS V14.00,2013-12-22 07:29:00,
2013-12-22 02:30:00,26.1,24.6,29.95,NNE,24,2.0,7.0,94,0.00,,OVC008,0.00,VWS V14.00,2013-12-22 07:30:00,
2013-12-22 02:31:00,26.1,24.6,29.95,North,5,0.0,3.0,94,0.00,,OVC008,0.00,VWS V14.00,2013-12-22 07:31:00,
2013-12-22 02:32:00,26.2,24.7,29.96,NNE,24,0.0,3.0,94,0.00,,OVC008,0.00,VWS V14.00,2013-12-22 07:32:00,
2013-12-22 02:33:00,26.2,24.7,29.95,NNE,24,1.0,3.0,94,0.00,,OVC008,0.00,VWS V14.00,2013-12-22 07:33:00,
2013-12-22 02:34:00,26.2,24.7,29.95,NNE,22,3.0,7.0,94,0.00,,OVC008,0.00,VWS V14.00,2013-12-22 07:34:00,
2013-12-22 02:35:00,26.2,24.7,29.95,NNE,22,2.0,7.0,94,0.00,,OVC008,0.00,VWS V14.00,2013-12-22 07:35:00,
2013-12-22 02:36:00,26.2,24.7,29.95,NNE,22,0.0,7.0,94,0.00,,OVC008,0.00,VWS V14.00,2013-12-22 07:36:00,
2013-12-22 02:37:00,26.2,24.7,29.95,NNE,32,1.0,7.0,94,0.00,,OVC008,0.00,VWS V14.00,2013-12-22 07:37:00,
2013-12-22 02:38:00,26.3,24.8,29.94,NNE,32,0.0,7.0,94,0.00,,OVC008,0.00,VWS V14.00,2013-12-22 07:38:00,
2013-12-22 02:39:00,26.2,24.7,29.94,NE,42,3.0,7.0,94,0.00,,OVC008,0.00,VWS V14.00,2013-12-22 07:39:00,
2013-12-22 02:40:00,26.3,24.8,29.94,NE,38,2.0,7.0,94,0.00,,OVC008,0.00,VWS V14.00,2013-12-22 07:40:00,
2013-12-22 02:41:00,26.3,24.8,29.93,NE,37,2.0,2.0,94,0.00,,OVC008,0.00,VWS V14.00,2013-12-22 07:41:00,
2013-12-22 02:42:00,26.2,24.7,29.93,NNE,13,2.0,3.0,94,0.00,,OVC008,0.00,VWS V14.00,2013-12-22 07:42:00,
2013-12-22 02:43:00,26.3,24.8,29.93,NNE,28,4.0,4.0,94,0.00,,OVC008,0.00,VWS V14.00,2013-12-22 07:43:00,
2013-12-22 02:44:00,26.2,24.7,29.93,NNE,30,2.0,4.0,94,0.00,,OVC008,0.00,VWS V14.00,2013-12-22 07:44:00,
2013-12-22 02:45:00,26.2,24.7,29.92,NE,49,0.0,4.0,94,0.00,,OVC008,0.00,VWS V14.00,2013-12-22 07:45:00,
2013-12-22 02:46:00,26.2,24.7,29.92,NNE,26,2.0,4.0,94,0.00,,OVC008,0.00,VWS V14.00,2013-12-22 07:46:00,
2013-12-22 02:47:00,26.2,24.7,29.92,NNE,27,1.0,4.0,94,0.00,,OVC004,0.00,VWS V14.00,2013-12-22 07:47:00,
2013-12-22 02:48:00,26.2,24.7,29.92,NNE,29,1.0,4.0,94,0.00,,OVC004,0.00,VWS V14.00,2013-12-22 07:48:00,
2013-12-22 02:49:00,26.2,24.7,29.93,NE,42,3.0,4.0,94,0.00,,OVC004,0.00,VWS V14.00,2013-12-22 07:49:00,
2013-12-22 02:50:00,26.2,24.7,29.93,NNE,25,2.0,6.0,94,0.00,,OVC004,0.00,VWS V14.00,2013-12-22 07:50:00,
2013-12-22 02:51:00,26.2,24.7,29.93,NE,38,2.0,3.0,94,0.00,,OVC004,0.00,VWS V14.00,2013-12-22 07:51:00,
2013-12-22 02:52:00,26.2,24.7,29.93,North,350,4.0,6.0,94,0.00,,OVC004,0.00,VWS V14.00,2013-12-22 07:52:00,
2013-12-22 02:53:00,26.2,24.7,29.93,North,360,3.0,6.0,94,0.00,,OVC004,0.00,VWS V14.00,2013-12-22 07:53:00,
2013-12-22 02:54:00,26.2,24.7,29.93,NNE,22,2.0,6.0,94,0.00,,OVC004,0.00,VWS V14.00,2013-12-22 07:54:00,
2013-12-22 02:55:00,26.2,24.7,29.92,NNE,24,3.0,6.0,94,0.00,,OVC004,0.00,VWS V14.00,2013-12-22 07:55:00,
2013-12-22 02:56:00,26.2,24.7,29.93,NNE,25,3.0,6.0,94,0.00,,OVC004,0.00,VWS V14.00,2013-12-22 07:56:00,
2013-12-22 02:57:00,26.3,24.8,29.92,NE,38,0.0,6.0,94,0.00,,OVC004,0.00,VWS V14.00,2013-12-22 07:57:00,
2013-12-22 02:58:00,26.3,24.8,29.92,NNE,25,4.0,6.0,94,0.00,,OVC004,0.00,VWS V14.00,2013-12-22 07:58:00,
2013-12-22 02:59:00,26.3,24.8,29.92,NE,40,1.0,6.0,94,0.00,,OVC004,0.00,VWS V14.00,2013-12-22 07:59:00,
2013-12-22 03:00:00,26.2,24.7,29.92,NNE,32,2.0,6.0,94,0.00,,OVC004,0.00,VWS V14.00,2013-12-22 08:00:00,
2013-12-22 03:01:00,26.2,24.7,29.92,NE,37,1.0,5.0,94,0.00,,OVC004,0.00,VWS V14.00,2013-12-22 08:01:00,
2013-12-22 03:02:00,26.2,24.7,29.92,NNE,33,3.0,5.0,94,0.00,,OVC004,0.00,VWS V14.00,2013-12-22 08:02:00,
2013-12-22 03:03:00,26.2,24.7,29.92,NNE,31,4.0,5.0,94,0.00,,OVC004,0.00,VWS V14.00,2013-12-22 08:03:00,
2013-12-22 03:04:00,26.2,24.7,29.92,NE,39,0.0,5.0,94,0.00,,OVC004,0.00,VWS V14.00,2013-12-22 08:04:00,
2013-12-22 03:05:00,26.2,24.7,29.92,NNE,22,2.0,5.0,94,0.00,,OVC004,0.00,VWS V14.00,2013-12-22 08:05:00,
2013-12-22 03:06:00,26.2,24.7,29.92,NE,38,2.0,5.0,94,0.00,,OVC004,0.00,VWS V14.00,2013-12-22 08:06:00,
2013-12-22 03:07:00,26.2,24.7,29.92,ENE,57,3.0,5.0,94,0.00,,OVC004,0.00,VWS V14.00,2013-12-22 08:07:00,
2013-12-22 03:08:00,26.2,24.7,29.91,NE,40,2.0,5.0,94,0.00,,OVC004,0.00,VWS V14.00,2013-12-22 08:08:00,
2013-12-22 03:09:00,26.2,24.7,29.92,NNE,27,3.0,5.0,94,0.00,,OVC004,0.00,VWS V14.00,2013-12-22 08:09:00,
2013-12-22 03:10:00,26.2,24.7,29.91,NNE,26,2.0,5.0,94,0.00,,OVC004,0.00,VWS V14.00,2013-12-22 08:10:00,
2013-12-22 03:11:00,26.2,24.7,29.91,NE,52,3.0,3.0,94,0.00,,OVC004,0.00,VWS V14.00,2013-12-22 08:11:00,
2013-12-22 03:12:00,26.2,24.7,29.91,NNE,22,2.0,3.0,94,0.00,,OVC004,0.00,VWS V14.00,2013-12-22 08:12:00,
2013-12-22 03:13:00,26.2,24.7,29.91,NNE,24,3.0,3.0,94,0.00,,OVC004,0.00,VWS V14.00,2013-12-22 08:13:00,
2013-12-22 03:14:00,26.2,24.7,29.91,North,5,3.0,4.0,94,0.00,,OVC004,0.00,VWS V14.00,2013-12-22 08:14:00,
2013-12-22 03:15:00,26.2,24.7,29.92,NNE,25,3.0,4.0,94,0.00,,OVC004,0.00,VWS V14.00,2013-12-22 08:15:00,
2013-12-22 03:16:00,26.2,24.7,29.92,North,360,3.0,6.0,94,0.00,,OVC004,0.00,VWS V14.00,2013-12-22 08:16:00,
2013-12-22 03:17:00,26.2,24.7,29.93,NNW,346,10.0,11.0,94,0.00,,OVC004,0.00,VWS V14.00,2013-12-22 08:17:00,
2013-12-22 03:18:00,26.2,24.7,29.94,NNW,344,10.0,11.0,94,0.00,,OVC004,0.00,VWS V14.00,2013-12-22 08:18:00,
2013-12-22 03:19:00,26.2,24.7,29.93,NNE,15,6.0,11.0,94,0.00,,OVC004,0.00,VWS V14.00,2013-12-22 08:19:00,
2013-12-22 03:20:00,26.2,24.7,29.92,NNE,18,1.0,11.0,94,0.00,,OVC004,0.00,VWS V14.00,2013-12-22 08:20:00,
2013-12-22 03:21:00,26.2,24.7,29.92,North,355,3.0,3.0,94,0.00,,OVC004,0.00,VWS V14.00,2013-12-22 08:21:00,
2013-12-22 03:22:00,26.3,24.8,29.92,NNE,19,1.0,4.0,94,0.00,,OVC004,0.00,VWS V14.00,2013-12-22 08:22:00,
2013-12-22 03:23:00,26.3,24.8,29.90,NNE,22,0.0,4.0,94,0.00,,OVC004,0.00,VWS V14.00,2013-12-22 08:23:00,
2013-12-22 03:24:00,26.4,24.9,29.89,NNE,32,2.0,4.0,94,0.00,,OVC004,0.00,VWS V14.00,2013-12-22 08:24:00,
2013-12-22 03:25:00,26.4,24.9,29.89,NE,39,2.0,4.0,94,0.00,,OVC004,0.00,VWS V14.00,2013-12-22 08:25:00,
2013-12-22 03:26:00,26.4,24.9,29.89,North,5,3.0,4.0,94,0.00,,OVC004,0.00,VWS V14.00,2013-12-22 08:26:00,
2013-12-22 03:27:00,26.4,24.9,29.89,NE,45,3.0,4.0,94,0.00,,OVC004,0.00,VWS V14.00,2013-12-22 08:27:00,
2013-12-22 03:28:00,26.3,24.8,29.89,North,5,1.0,4.0,94,0.00,,OVC004,0.00,VWS V14.00,2013-12-22 08:28:00,
2013-12-22 03:29:00,26.3,24.8,29.89,NNE,33,1.0,4.0,94,0.00,,OVC004,0.00,VWS V14.00,2013-12-22 08:29:00,
2013-12-22 03:30:00,26.3,24.8,29.89,NE,35,2.0,4.0,94,0.00,,OVC004,0.00,VWS V14.00,2013-12-22 08:30:00,
2013-12-22 03:31:00,26.3,24.8,29.90,NE,37,3.0,3.0,94,0.00,,OVC004,0.00,VWS V14.00,2013-12-22 08:31:00,
2013-12-22 03:32:00,26.3,24.8,29.90,North,360,4.0,5.0,94,0.00,,OVC004,0.00,VWS V14.00,2013-12-22 08:32:00,
2013-12-22 03:33:00,26.3,24.8,29.90,NNE,20,2.0,5.0,94,0.00,,OVC004,0.00,VWS V14.00,2013-12-22 08:33:00,
2013-12-22 03:34:00,26.2,24.7,29.90,NNW,340,4.0,5.0,94,0.00,,OVC004,0.00,VWS V14.00,2013-12-22 08:34:00,
2013-12-22 03:35:00,26.2,24.7,29.90,North,5,4.0,6.0,94,0.00,,OVC004,0.00,VWS V14.00,2013-12-22 08:35:00,
2013-12-22 03:36:00,26.2,24.7,29.88,NNE,15,4.0,6.0,94,0.00,,OVC004,0.00,VWS V14.00,2013-12-22 08:36:00,
2013-12-22 03:37:00,26.1,24.6,29.89,North,355,4.0,6.0,94,0.00,,OVC004,0.00,VWS V14.00,2013-12-22 08:37:00,
2013-12-22 03:38:00,26.1,24.6,29.89,NNE,16,3.0,6.0,94,0.00,,OVC004,0.00,VWS V14.00,2013-12-22 08:38:00,
2013-12-22 03:39:00,26.0,24.3,29.89,North,10,4.0,6.0,93,0.00,,OVC004,0.00,VWS V14.00,2013-12-22 08:39:00,
2013-12-22 03:40:00,26.0,24.3,29.89,North,5,4.0,6.0,93,0.00,,OVC004,0.00,VWS V14.00,2013-12-22 08:40:00,
2013-12-22 03:41:00,26.0,24.3,29.88,NNE,14,2.0,5.0,93,0.00,,OVC004,0.00,VWS V14.00,2013-12-22 08:41:00,
2013-12-22 03:42:00,26.0,24.3,29.88,NNW,346,6.0,7.0,93,0.00,,OVC004,0.00,VWS V14.00,2013-12-22 08:42:00,
2013-12-22 03:43:00,26.0,24.5,29.89,North,355,6.0,7.0,94,0.00,,OVC004,0.00,VWS V14.00,2013-12-22 08:43:00,
2013-12-22 03:44:00,26.0,24.5,29.89,North,351,3.0,9.0,94,0.00,,OVC004,0.00,VWS V14.00,2013-12-22 08:44:00,
2013-12-22 03:45:00,26.0,24.5,29.89,NNE,15,5.0,9.0,94,0.00,,OVC004,0.00,VWS V14.00,2013-12-22 08:45:00,
2013-12-22 03:46:00,26.0,24.5,29.89,NNE,17,2.0,9.0,94,0.00,,OVC004,0.00,VWS V14.00,2013-12-22 08:46:00,
2013-12-22 03:47:00,26.0,24.5,29.89,NNE,26,3.0,9.0,94,0.00,,OVC012,0.00,VWS V14.00,2013-12-22 08:47:00,
2013-12-22 03:48:00,25.9,24.4,29.88,NNE,24,3.0,9.0,94,0.00,,OVC012,0.00,VWS V14.00,2013-12-22 08:48:00,
2013-12-22 03:49:00,25.9,24.4,29.88,NE,42,6.0,9.0,94,0.00,,OVC012,0.00,VWS V14.00,2013-12-22 08:49:00,
2013-12-22 03:50:00,25.8,24.1,29.88,NNE,30,3.0,9.0,93,0.00,,OVC012,0.00,VWS V14.00,2013-12-22 08:50:00,
2013-12-22 03:51:00,25.8,24.1,29.86,North,5,3.0,4.0,93,0.00,,OVC012,0.00,VWS V14.00,2013-12-22 08:51:00,
2013-12-22 03:52:00,25.7,24.0,29.85,NE,53,3.0,6.0,93,0.00,,OVC012,0.00,VWS V14.00,2013-12-22 08:52:00,
2013-12-22 03:53:00,25.7,24.0,29.85,NNE,24,1.0,6.0,93,0.00,,OVC012,0.00,VWS V14.00,2013-12-22 08:53:00,
2013-12-22 03:54:00,25.7,24.2,29.86,NNE,27,3.0,6.0,94,0.00,,OVC012,0.00,VWS V14.00,2013-12-22 08:54:00,
2013-12-22 03:55:00,25.6,24.1,29.87,NNE,15,3.0,6.0,94,0.00,,OVC012,0.00,VWS V14.00,2013-12-22 08:55:00,
2013-12-22 03:56:00,25.5,23.8,29.87,North,10,5.0,6.0,93,0.00,,OVC012,0.00,VWS V14.00,2013-12-22 08:56:00,
2013-12-22 03:57:00,25.4,23.7,29.87,NNE,28,5.0,6.0,93,0.00,,OVC012,0.00,VWS V14.00,2013-12-22 08:57:00,
2013-12-22 03:58:00,25.4,23.7,29.88,North,355,5.0,6.0,93,0.00,,OVC012,0.00,VWS V14.00,2013-12-22 08:58:00,
2013-12-22 03:59:00,25.4,23.7,29.87,NNE,19,3.0,6.0,93,0.00,,OVC012,0.00,VWS V14.00,2013-12-22 08:59:00,
2013-12-22 04:00:00,25.4,23.7,29.86,NNE,15,2.0,6.0,93,0.00,,OVC012,0.00,VWS V14.00,2013-12-22 09:00:00,
2013-12-22 04:01:00,25.4,23.7,29.87,North,360,3.0,5.0,93,0.00,,OVC012,0.00,VWS V14.00,2013-12-22 09:01:00,
2013-12-22 04:02:00,25.4,23.7,29.87,North,355,8.0,8.0,93,0.00,,OVC012,0.00,VWS V14.00,2013-12-22 09:02:00,
2013-12-22 04:03:00,25.3,23.6,29.87,North,351,4.0,8.0,93,0.00,,OVC012,0.00,VWS V14.00,2013-12-22 09:03:00,
2013-12-22 04:04:00,25.3,23.6,29.87,NE,34,5.0,10.0,93,0.00,,OVC012,0.00,VWS V14.00,2013-12-22 09:04:00,
2013-12-22 04:05:00,25.3,23.6,29.86,NNE,33,1.0,10.0,93,0.00,,OVC012,0.00,VWS V14.00,2013-12-22 09:05:00,
2013-12-22 04:06:00,25.3,23.6,29.86,North,355,4.0,10.0,93,0.00,,OVC012,0.00,VWS V14.00,2013-12-22 09:06:00,
2013-12-22 04:07:00,25.3,23.6,29.86,NNE,14,2.0,10.0,93,0.00,,OVC012,0.00,VWS V14.00,2013-12-22 09:07:00,
2013-12-22 04:08:00,25.3,23.6,29.86,NNE,27,1.0,10.0,93,0.00,,OVC012,0.00,VWS V14.00,2013-12-22 09:08:00,
2013-12-22 04:09:00,25.3,23.6,29.86,NNW,348,2.0,10.0,93,0.00,,OVC012,0.00,VWS V14.00,2013-12-22 09:09:00,
2013-12-22 04:10:00,25.3,23.6,29.86,NNE,17,0.0,10.0,93,0.00,,OVC012,0.00,VWS V14.00,2013-12-22 09:10:00,
2013-12-22 04:11:00,25.2,23.5,29.86,NE,53,2.0,2.0,93,0.00,,OVC012,0.00,VWS V14.00,2013-12-22 09:11:00,
2013-12-22 04:12:00,25.2,23.5,29.86,NE,42,2.0,3.0,93,0.00,,OVC012,0.00,VWS V14.00,2013-12-22 09:12:00,
2013-12-22 04:13:00,25.2,23.5,29.85,NE,43,0.0,3.0,93,0.00,,OVC012,0.00,VWS V14.00,2013-12-22 09:13:00,
2013-12-22 04:14:00,25.2,23.5,29.86,NE,52,0.0,3.0,93,0.00,,OVC012,0.00,VWS V14.00,2013-12-22 09:14:00,
2013-12-22 04:15:00,25.2,23.5,29.85,NE,38,2.0,4.0,93,0.00,,OVC012,0.00,VWS V14.00,2013-12-22 09:15:00,
2013-12-22 04:16:00,25.2,23.5,29.85,North,5,1.0,4.0,93,0.00,,OVC012,0.00,VWS V14.00,2013-12-22 09:16:00,
2013-12-22 04:17:00,25.2,23.5,29.86,North,360,0.0,4.0,93,0.00,,OVC012,0.00,VWS V14.00,2013-12-22 09:17:00,
2013-12-22 04:18:00,25.1,23.4,29.85,North,5,0.0,4.0,93,0.00,,OVC012,0.00,VWS V14.00,2013-12-22 09:18:00,
2013-12-22 04:19:00,25.1,23.4,29.85,North,360,0.0,4.0,93,0.00,,OVC012,0.00,VWS V14.00,2013-12-22 09:19:00,
2013-12-22 04:20:00,25.2,23.5,29.84,North,5,0.0,4.0,93,0.00,,OVC012,0.00,VWS V14.00,2013-12-22 09:20:00,
2013-12-22 04:21:00,25.2,23.5,29.83,North,5,0.0,0.0,93,0.00,,OVC012,0.00,VWS V14.00,2013-12-22 09:21:00,
2013-12-22 04:22:00,25.2,23.5,29.83,NNE,19,0.0,0.0,93,0.00,,OVC012,0.00,VWS V14.00,2013-12-22 09:22:00,
2013-12-22 04:23:00,25.2,23.5,29.83,NNE,19,0.0,0.0,93,0.00,,OVC012,0.00,VWS V14.00,2013-12-22 09:23:00,
2013-12-22 04:24:00,25.2,23.5,29.83,NNE,18,3.0,3.0,93,0.00,,OVC012,0.00,VWS V14.00,2013-12-22 09:24:00,
2013-12-22 04:25:00,25.2,23.5,29.83,North,5,3.0,3.0,93,0.00,,OVC012,0.00,VWS V14.00,2013-12-22 09:25:00,
2013-12-22 04:26:00,25.1,23.4,29.84,North,349,5.0,5.0,93,0.00,,OVC012,0.00,VWS V14.00,2013-12-22 09:26:00,
2013-12-22 04:27:00,25.1,23.4,29.84,NNW,348,6.0,8.0,93,0.00,,OVC012,0.00,VWS V14.00,2013-12-22 09:27:00,
2013-12-22 04:28:00,25.1,23.4,29.85,NNW,348,8.0,8.0,93,0.00,,OVC012,0.00,VWS V14.00,2013-12-22 09:28:00,
2013-12-22 04:29:00,25.2,23.5,29.85,NNW,339,7.0,9.0,93,0.00,,OVC012,0.00,VWS V14.00,2013-12-22 09:29:00,
2013-12-22 04:30:00,25.2,23.5,29.84,NNW,347,7.0,9.0,93,0.00,,OVC012,0.00,VWS V14.00,2013-12-22 09:30:00,
2013-12-22 04:31:00,25.2,23.5,29.84,North,9,6.0,6.0,93,0.00,,OVC012,0.00,VWS V14.00,2013-12-22 09:31:00,
2013-12-22 04:32:00,25.3,23.6,29.84,North,350,4.0,7.0,93,0.00,,OVC012,0.00,VWS V14.00,2013-12-22 09:32:00,
2013-12-22 04:33:00,25.3,23.6,29.84,North,355,3.0,7.0,93,0.00,,OVC012,0.00,VWS V14.00,2013-12-22 09:33:00,
2013-12-22 04:34:00,25.4,23.7,29.84,NNW,344,6.0,7.0,93,0.00,,OVC012,0.00,VWS V14.00,2013-12-22 09:34:00,
2013-12-22 04:35:00,25.4,23.7,29.84,North,360,4.0,7.0,93,0.00,,OVC012,0.00,VWS V14.00,2013-12-22 09:35:00,
2013-12-22 04:36:00,25.5,24.0,29.84,North,350,3.0,7.0,94,0.00,,OVC012,0.00,VWS V14.00,2013-12-22 09:36:00,
2013-12-22 04:37:00,25.6,24.1,29.84,NNE,12,4.0,7.0,94,0.00,,OVC012,0.00,VWS V14.00,2013-12-22 09:37:00,
2013-12-22 04:38:00,25.7,24.2,29.84,North,360,5.0,8.0,94,0.00,,OVC012,0.00,VWS V14.00,2013-12-22 09:38:00,
2013-12-22 04:39:00,25.7,24.2,29.85,North,360,4.0,8.0,94,0.00,,OVC012,0.00,VWS V14.00,2013-12-22 09:39:00,
2013-12-22 04:40:00,25.7,24.2,29.84,North,355,4.0,8.0,94,0.00,,OVC012,0.00,VWS V14.00,2013-12-22 09:40:00,
2013-12-22 04:41:00,25.7,24.2,29.84,North,11,2.0,5.0,94,0.00,,OVC012,0.00,VWS V14.00,2013-12-22 09:41:00,
2013-12-22 04:42:00,25.7,24.2,29.84,NNE,13,1.0,5.0,94,0.00,,OVC012,0.00,VWS V14.00,2013-12-22 09:42:00,
2013-12-22 04:43:00,25.7,24.2,29.85,North,349,5.0,5.0,94,0.00,,OVC012,0.00,VWS V14.00,2013-12-22 09:43:00,
2013-12-22 04:44:00,25.8,24.3,29.85,NNE,32,2.0,5.0,94,0.00,,OVC012,0.00,VWS V14.00,2013-12-22 09:44:00,
2013-12-22 04:45:00,25.8,24.3,29.85,NNE,32,1.0,5.0,94,0.00,,OVC012,0.00,VWS V14.00,2013-12-22 09:45:00,
2013-12-22 04:46:00,25.8,24.3,29.84,NE,49,2.0,5.0,94,0.00,,OVC012,0.00,VWS V14.00,2013-12-22 09:46:00,
2013-12-22 04:47:00,25.8,24.3,29.84,NE,49,1.0,5.0,94,0.00,,OVC012,0.00,VWS V14.00,2013-12-22 09:47:00,
2013-12-22 04:48:00,25.8,24.3,29.84,NE,48,2.0,5.0,94,0.00,,OVC012,0.00,VWS V14.00,2013-12-22 09:48:00,
2013-12-22 04:49:00,25.8,24.3,29.84,NNE,29,2.0,5.0,94,0.00,,OVC012,0.00,VWS V14.00,2013-12-22 09:49:00,
2013-12-22 04:50:00,25.7,24.2,29.83,NNE,29,0.0,5.0,94,0.00,,OVC012,0.00,VWS V14.00,2013-12-22 09:50:00,
2013-12-22 04:51:00,25.7,24.2,29.83,NE,36,1.0,2.0,94,0.00,,OVC012,0.00,VWS V14.00,2013-12-22 09:51:00,
2013-12-22 04:52:00,25.7,24.0,29.83,NE,43,1.0,3.0,93,0.00,,OVC012,0.00,VWS V14.00,2013-12-22 09:52:00,
2013-12-22 04:53:00,25.7,24.0,29.83,NNE,33,0.0,4.0,93,0.00,,OVC012,0.00,VWS V14.00,2013-12-22 09:53:00,
2013-12-22 04:54:00,25.7,24.2,29.84,North,360,3.0,4.0,94,0.00,,OVC012,0.00,VWS V14.00,2013-12-22 09:54:00,
2013-12-22 04:55:00,25.7,24.2,29.84,NE,36,2.0,4.0,94,0.00,,OVC012,0.00,VWS V14.00,2013-12-22 09:55:00,
2013-12-22 04:56:00,25.7,24.2,29.84,NNE,22,2.0,4.0,94,0.00,,OVC012,0.00,VWS V14.00,2013-12-22 09:56:00,
2013-12-22 04:57:00,25.6,24.1,29.84,North,5,1.0,4.0,94,0.00,,OVC012,0.00,VWS V14.00,2013-12-22 09:57:00,
2013-12-22 04:58:00,25.7,24.2,29.84,NNE,28,0.0,4.0,94,0.00,,OVC012,0.00,VWS V14.00,2013-12-22 09:58:00,
2013-12-22 04:59:00,25.6,24.1,29.84,NNE,28,3.0,4.0,94,0.00,,OVC012,0.00,VWS V14.00,2013-12-22 09:59:00,
2013-12-22 05:00:00,25.6,24.1,29.84,NNE,19,3.0,5.0,94,0.00,,OVC012,0.00,VWS V14.00,2013-12-22 10:00:00,
2013-12-22 05:01:00,25.6,24.1,29.85,NNE,17,3.0,3.0,94,0.00,,OVC012,0.00,VWS V14.00,2013-12-22 10:01:00,
2013-12-22 05:02:00,25.5,24.0,29.84,NNE,17,1.0,3.0,94,0.00,,OVC012,0.00,VWS V14.00,2013-12-22 10:02:00,
2013-12-22 05:03:00,25.5,23.8,29.83,NNE,24,1.0,3.0,93,0.00,,OVC012,0.00,VWS V14.00,2013-12-22 10:03:00,
2013-12-22 05:04:00,25.4,23.7,29.83,North,9,4.0,4.0,93,0.00,,OVC012,0.00,VWS V14.00,2013-12-22 10:04:00,
2013-12-22 05:05:00,25.4,23.7,29.83,NNE,33,4.0,4.0,93,0.00,,OVC012,0.00,VWS V14.00,2013-12-22 10:05:00,
2013-12-22 05:06:00,25.4,23.7,29.83,NE,53,1.0,4.0,93,0.00,,OVC012,0.00,VWS V14.00,2013-12-22 10:06:00,
2013-12-22 05:07:00,25.4,23.7,29.83,North,355,4.0,4.0,93,0.00,,OVC012,0.00,VWS V14.00,2013-12-22 10:07:00,
2013-12-22 05:08:00,25.3,23.6,29.84,NE,42,4.0,7.0,93,0.00,,OVC012,0.00,VWS V14.00,2013-12-22 10:08:00,
2013-12-22 05:09:00,25.3,23.6,29.84,NNE,25,2.0,7.0,93,0.00,,OVC012,0.00,VWS V14.00,2013-12-22 10:09:00,
2013-12-22 05:10:00,25.3,23.6,29.84,NNE,22,1.0,7.0,93,0.00,,OVC012,0.00,VWS V14.00,2013-12-22 10:10:00,
2013-12-22 05:11:00,25.3,23.6,29.84,NNE,22,0.0,2.0,93,0.00,,OVC012,0.00,VWS V14.00,2013-12-22 10:11:00,
2013-12-22 05:12:00,25.3,23.6,29.83,NNE,22,0.0,2.0,93,0.00,,OVC012,0.00,VWS V14.00,2013-12-22 10:12:00,
2013-12-22 05:13:00,25.3,23.6,29.83,NNE,14,2.0,2.0,93,0.00,,OVC012,0.00,VWS V14.00,2013-12-22 10:13:00,
2013-12-22 05:14:00,25.3,23.6,29.83,ENE,68,0.0,2.0,93,0.00,,OVC012,0.00,VWS V14.00,2013-12-22 10:14:00,
2013-12-22 05:15:00,25.3,23.6,29.82,NE,50,3.0,4.0,93,0.00,,OVC012,0.00,VWS V14.00,2013-12-22 10:15:00,
2013-12-22 05:16:00,25.2,23.5,29.83,NE,41,2.0,4.0,93,0.00,,OVC012,0.00,VWS V14.00,2013-12-22 10:16:00,
2013-12-22 05:17:00,25.2,23.5,29.83,NNE,26,1.0,4.0,93,0.00,,OVC012,0.00,VWS V14.00,2013-12-22 10:17:00,
2013-12-22 05:18:00,25.2,23.5,29.83,NE,38,2.0,4.0,93,0.00,,OVC012,0.00,VWS V14.00,2013-12-22 10:18:00,
2013-12-22 05:19:00,25.1,23.4,29.83,NE,37,1.0,4.0,93,0.00,,OVC012,0.00,VWS V14.00,2013-12-22 10:19:00,
2013-12-22 05:20:00,25.1,23.4,29.82,NE,42,1.0,5.0,93,0.00,,OVC012,0.00,VWS V14.00,2013-12-22 10:20:00,
2013-12-22 05:21:00,25.1,23.4,29.82,NNE,28,2.0,3.0,93,0.00,,OVC012,0.00,VWS V14.00,2013-12-22 10:21:00,
2013-12-22 05:22:00,25.1,23.4,29.82,NNE,28,0.0,3.0,93,0.00,,OVC012,0.00,VWS V14.00,2013-12-22 10:22:00,
2013-12-22 05:23:00,25.1,23.4,29.82,NNE,31,1.0,3.0,93,0.00,,OVC012,0.00,VWS V14.00,2013-12-22 10:23:00,
2013-12-22 05:24:00,25.1,23.4,29.82,NE,42,2.0,3.0,93,0.00,,OVC012,0.00,VWS V14.00,2013-12-22 10:24:00,
2013-12-22 05:25:00,25.0,23.3,29.82,NE,43,0.0,3.0,93,0.00,,OVC012,0.00,VWS V14.00,2013-12-22 10:25:00,
2013-12-22 05:26:00,25.0,23.3,29.81,NNE,32,3.0,4.0,93,0.00,,OVC012,0.00,VWS V14.00,2013-12-22 10:26:00,
2013-12-22 05:27:00,25.0,23.3,29.80,ENE,60,2.0,4.0,93,0.00,,OVC012,0.00,VWS V14.00,2013-12-22 10:27:00,
2013-12-22 05:28:00,25.0,23.3,29.80,North,360,1.0,4.0,93,0.00,,OVC012,0.00,VWS V14.00,2013-12-22 10:28:00,
2013-12-22 05:29:00,25.0,23.3,29.80,NNE,26,2.0,4.0,93,0.00,,OVC012,0.00,VWS V14.00,2013-12-22 10:29:00,
2013-12-22 05:30:00,25.0,23.3,29.80,NE,54,2.0,4.0,93,0.00,,OVC012,0.00,VWS V14.00,2013-12-22 10:30:00,
2013-12-22 05:31:00,25.0,23.3,29.80,NE,51,1.0,3.0,93,0.00,,OVC012,0.00,VWS V14.00,2013-12-22 10:31:00,
2013-12-22 05:32:00,25.0,23.3,29.81,NE,44,1.0,3.0,93,0.00,,OVC012,0.00,VWS V14.00,2013-12-22 10:32:00,
2013-12-22 05:33:00,25.0,23.3,29.80,NNE,15,0.0,3.0,93,0.00,,OVC012,0.00,VWS V14.00,2013-12-22 10:33:00,
2013-12-22 05:34:00,25.0,23.3,29.80,NNE,19,0.0,3.0,93,0.00,,OVC012,0.00,VWS V14.00,2013-12-22 10:34:00,
2013-12-22 05:35:00,25.1,23.6,29.80,NNE,19,2.0,3.0,94,0.00,,OVC012,0.00,VWS V14.00,2013-12-22 10:35:00,
2013-12-22 05:36:00,25.1,23.6,29.80,NNE,19,2.0,3.0,94,0.00,,OVC012,0.00,VWS V14.00,2013-12-22 10:36:00,
2013-12-22 05:37:00,25.1,23.6,29.80,NNE,19,0.0,3.0,94,0.00,,OVC012,0.00,VWS V14.00,2013-12-22 10:37:00,
2013-12-22 05:38:00,25.1,23.4,29.80,North,11,2.0,3.0,93,0.00,,OVC012,0.00,VWS V14.00,2013-12-22 10:38:00,
2013-12-22 05:39:00,25.2,23.5,29.80,North,11,2.0,3.0,93,0.00,,OVC012,0.00,VWS V14.00,2013-12-22 10:39:00,
2013-12-22 05:40:00,25.2,23.5,29.80,NNE,17,1.0,3.0,93,0.00,,OVC012,0.00,VWS V14.00,2013-12-22 10:40:00,
2013-12-22 05:41:00,25.2,23.7,29.80,NNE,22,1.0,3.0,94,0.00,,OVC012,0.00,VWS V14.00,2013-12-22 10:41:00,
2013-12-22 05:42:00,25.2,23.7,29.80,NNE,24,3.0,3.0,94,0.00,,OVC012,0.00,VWS V14.00,2013-12-22 10:42:00,
2013-12-22 05:43:00,25.2,23.7,29.81,North,355,3.0,7.0,94,0.00,,OVC012,0.00,VWS V14.00,2013-12-22 10:43:00,
2013-12-22 05:44:00,25.2,23.7,29.81,North,355,4.0,7.0,94,0.00,,OVC012,0.00,VWS V14.00,2013-12-22 10:44:00,
2013-12-22 05:45:00,25.3,23.8,29.82,NNE,22,2.0,7.0,94,0.00,,OVC012,0.00,VWS V14.00,2013-12-22 10:45:00,
2013-12-22 05:46:00,25.3,23.8,29.82,NNE,25,1.0,7.0,94,0.00,,OVC012,0.00,VWS V14.00,2013-12-22 10:46:00,
2013-12-22 05:47:00,25.3,23.8,29.82,NE,42,2.0,7.0,94,0.00,,OVC009,0.00,VWS V14.00,2013-12-22 10:47:00,
2013-12-22 05:48:00,25.3,23.6,29.82,NE,34,3.0,7.0,93,0.00,,OVC009,0.00,VWS V14.00,2013-12-22 10:48:00,
2013-12-22 05:49:00,25.3,23.6,29.82,NNE,24,1.0,7.0,93,0.00,,OVC009,0.00,VWS V14.00,2013-12-22 10:49:00,
2013-12-22 05:50:00,25.3,23.6,29.82,NE,40,3.0,7.0,93,0.00,,OVC009,0.00,VWS V14.00,2013-12-22 10:50:00,
2013-12-22 05:51:00,25.3,23.6,29.81,NE,48,1.0,3.0,93,0.00,,OVC009,0.00,VWS V14.00,2013-12-22 10:51:00,
2013-12-22 05:52:00,25.2,23.5,29.81,NE,48,0.0,3.0,93,0.00,,OVC009,0.00,VWS V14.00,2013-12-22 10:52:00,
2013-12-22 05:53:00,25.2,23.5,29.81,NE,42,0.0,3.0,93,0.00,,OVC009,0.00,VWS V14.00,2013-12-22 10:53:00,
2013-12-22 05:54:00,25.2,23.5,29.81,NE,40,3.0,3.0,93,0.00,,OVC009,0.00,VWS V14.00,2013-12-22 10:54:00,
2013-12-22 05:55:00,25.2,23.5,29.81,NNE,32,1.0,4.0,93,0.00,,OVC009,0.00,VWS V14.00,2013-12-22 10:55:00,
2013-12-22 05:56:00,25.2,23.5,29.81,NNE,27,0.0,4.0,93,0.00,,OVC009,0.00,VWS V14.00,2013-12-22 10:56:00,
2013-12-22 05:57:00,25.2,23.5,29.81,NE,44,5.0,5.0,93,0.00,,OVC009,0.00,VWS V14.00,2013-12-22 10:57:00,
2013-12-22 05:58:00,25.2,23.5,29.80,NE,49,0.0,5.0,93,0.00,,OVC009,0.00,VWS V14.00,2013-12-22 10:58:00,
2013-12-22 05:59:00,25.2,23.5,29.80,NE,50,0.0,5.0,93,0.00,,OVC009,0.00,VWS V14.00,2013-12-22 10:59:00,
2013-12-22 06:00:00,25.2,23.5,29.80,NE,43,2.0,5.0,93,0.00,,OVC009,0.00,VWS V14.00,2013-12-22 11:00:00,
2013-12-22 06:01:00,25.2,23.5,29.80,NNE,26,2.0,3.0,93,0.00,,OVC009,0.00,VWS V14.00,2013-12-22 11:01:00,
2013-12-22 06:02:00,25.2,23.5,29.81,North,5,4.0,6.0,93,0.00,,OVC009,0.00,VWS V14.00,2013-12-22 11:02:00,
2013-12-22 06:03:00,25.2,23.5,29.81,NNE,32,2.0,6.0,93,0.00,,OVC009,0.00,VWS V14.00,2013-12-22 11:03:00,
2013-12-22 06:04:00,25.2,23.5,29.81,North,5,2.0,6.0,93,0.00,,OVC009,0.00,VWS V14.00,2013-12-22 11:04:00,
2013-12-22 06:05:00,25.2,23.5,29.80,NNE,30,0.0,6.0,93,0.00,,OVC009,0.00,VWS V14.00,2013-12-22 11:05:00,
2013-12-22 06:06:00,25.2,23.5,29.81,NE,50,0.0,6.0,93,0.00,,OVC009,0.00,VWS V14.00,2013-12-22 11:06:00,
2013-12-22 06:07:00,25.3,23.6,29.81,NNE,25,2.0,6.0,93,0.00,,OVC009,0.00,VWS V14.00,2013-12-22 11:07:00,
2013-12-22 06:08:00,25.3,23.6,29.81,North,10,0.0,6.0,93,0.00,,OVC009,0.00,VWS V14.00,2013-12-22 11:08:00,
2013-12-22 06:09:00,25.3,23.6,29.81,NNE,29,1.0,6.0,93,0.00,,OVC009,0.00,VWS V14.00,2013-12-22 11:09:00,
2013-12-22 06:10:00,25.3,23.6,29.81,NNE,21,2.0,6.0,93,0.00,,OVC009,0.00,VWS V14.00,2013-12-22 11:10:00,
2013-12-22 06:11:00,25.3,23.6,29.82,NNE,23,1.0,3.0,93,0.00,,OVC009,0.00,VWS V14.00,2013-12-22 11:11:00,
2013-12-22 06:12:00,25.3,23.6,29.82,NNE,26,1.0,5.0,93,0.00,,OVC009,0.00,VWS V14.00,2013-12-22 11:12:00,
2013-12-22 06:13:00,25.3,23.6,29.82,North,5,2.0,5.0,93,0.00,,OVC009,0.00,VWS V14.00,2013-12-22 11:13:00,
2013-12-22 06:14:00,25.3,23.6,29.83,North,11,2.0,5.0,93,0.00,,OVC009,0.00,VWS V14.00,2013-12-22 11:14:00,
2013-12-22 06:15:00,25.3,23.6,29.83,NNE,27,2.0,5.0,93,0.00,,OVC009,0.00,VWS V14.00,2013-12-22 11:15:00,
2013-12-22 06:16:00,25.3,23.6,29.83,NNE,27,2.0,5.0,93,0.00,,OVC009,0.00,VWS V14.00,2013-12-22 11:16:00,
2013-12-22 06:17:00,25.3,23.6,29.83,NNE,24,2.0,5.0,93,0.00,,OVC009,0.00,VWS V14.00,2013-12-22 11:17:00,
2013-12-22 06:18:00,25.3,23.6,29.83,NNE,20,2.0,5.0,93,0.00,,OVC009,0.00,VWS V14.00,2013-12-22 11:18:00,
2013-12-22 06:19:00,25.3,23.6,29.83,NNE,30,2.0,5.0,93,0.00,,OVC009,0.00,VWS V14.00,2013-12-22 11:19:00,
2013-12-22 06:20:00,25.3,23.6,29.83,NE,34,3.0,5.0,93,0.00,,OVC009,0.00,VWS V14.00,2013-12-22 11:20:00,
2013-12-22 06:21:00,25.3,23.6,29.83,NE,46,3.0,3.0,93,0.00,,OVC009,0.00,VWS V14.00,2013-12-22 11:21:00,
2013-12-22 06:22:00,25.3,23.6,29.83,NE,43,2.0,5.0,93,0.00,,OVC009,0.00,VWS V14.00,2013-12-22 11:22:00,
2013-12-22 06:23:00,25.3,23.6,29.83,NNE,30,2.0,5.0,93,0.00,,OVC009,0.00,VWS V14.00,2013-12-22 11:23:00,
2013-12-22 06:24:00,25.3,23.6,29.83,NNE,28,2.0,5.0,93,0.00,,OVC009,0.00,VWS V14.00,2013-12-22 11:24:00,
2013-12-22 06:25:00,25.3,23.6,29.83,NNE,19,4.0,7.0,93,0.00,,OVC009,0.00,VWS V14.00,2013-12-22 11:25:00,
2013-12-22 06:26:00,25.3,23.6,29.84,North,360,2.0,7.0,93,0.00,,OVC009,0.00,VWS V14.00,2013-12-22 11:26:00,
2013-12-22 06:27:00,25.3,23.6,29.84,NE,44,5.0,7.0,93,0.00,,OVC009,0.00,VWS V14.00,2013-12-22 11:27:00,
2013-12-22 06:28:00,25.3,23.6,29.84,NE,49,6.0,7.0,93,0.00,,OVC009,0.00,VWS V14.00,2013-12-22 11:28:00,
2013-12-22 06:29:00,25.3,23.6,29.84,NE,37,2.0,7.0,93,0.00,,OVC009,0.00,VWS V14.00,2013-12-22 11:29:00,
2013-12-22 06:30:00,25.3,23.6,29.84,NNE,30,3.0,7.0,93,0.00,,OVC009,0.00,VWS V14.00,2013-12-22 11:30:00,
2013-12-22 06:31:00,25.3,23.6,29.84,NE,55,4.0,4.0,93,0.00,,OVC009,0.00,VWS V14.00,2013-12-22 11:31:00,
2013-12-22 06:32:00,25.3,23.6,29.84,North,355,3.0,4.0,93,0.00,,OVC009,0.00,VWS V14.00,2013-12-22 11:32:00,
2013-12-22 06:33:00,25.2,23.5,29.84,North,9,5.0,6.0,93,0.00,,OVC009,0.00,VWS V14.00,2013-12-22 11:33:00,
2013-12-22 06:34:00,25.2,23.5,29.84,NNE,22,1.0,6.0,93,0.00,,OVC009,0.00,VWS V14.00,2013-12-22 11:34:00,
2013-12-22 06:35:00,25.2,23.5,29.84,NNW,346,3.0,6.0,93,0.00,,OVC009,0.00,VWS V14.00,2013-12-22 11:35:00,
2013-12-22 06:36:00,25.2,23.5,29.84,NNE,27,4.0,6.0,93,0.00,,OVC009,0.00,VWS V14.00,2013-12-22 11:36:00,
2013-12-22 06:37:00,25.2,23.5,29.84,NNE,26,2.0,6.0,93,0.00,,OVC009,0.00,VWS V14.00,2013-12-22 11:37:00,
2013-12-22 06:38:00,25.2,23.5,29.84,NE,36,0.0,6.0,93,0.00,,OVC009,0.00,VWS V14.00,2013-12-22 11:38:00,
2013-12-22 06:39:00,25.1,23.4,29.84,NNE,28,3.0,6.0,93,0.00,,OVC009,0.00,VWS V14.00,2013-12-22 11:39:00,
2013-12-22 06:40:00,25.1,23.4,29.84,ENE,65,2.0,6.0,93,0.00,,OVC009,0.00,VWS V14.00,2013-12-22 11:40:00,
2013-12-22 06:41:00,25.1,23.4,29.84,NE,46,1.0,3.0,93,0.00,,OVC009,0.00,VWS V14.00,2013-12-22 11:41:00,
2013-12-22 06:42:00,25.1,23.4,29.84,NNE,31,0.0,3.0,93,0.00,,OVC009,0.00,VWS V14.00,2013-12-22 11:42:00,
2013-12-22 06:43:00,25.1,23.4,29.84,NE,42,1.0,3.0,93,0.00,,OVC009,0.00,VWS V14.00,2013-12-22 11:43:00,
2013-12-22 06:44:00,25.1,23.4,29.84,NE,40,3.0,3.0,93,0.00,,OVC009,0.00,VWS V14.00,2013-12-22 11:44:00,
2013-12-22 06:45:00,25.1,23.4,29.84,North,350,0.0,3.0,93,0.00,,OVC009,0.00,VWS V14.00,2013-12-22 11:45:00,
2013-12-22 06:46:00,25.1,23.6,29.84,NNE,29,2.0,3.0,94,0.00,,OVC009,0.00,VWS V14.00,2013-12-22 11:46:00,
2013-12-22 06:47:00,25.1,23.4,29.84,NE,49,4.0,4.0,93,0.00,,OVC003,0.00,VWS V14.00,2013-12-22 11:47:00,
2013-12-22 06:48:00,25.1,23.4,29.84,NE,37,0.0,4.0,93,0.00,,OVC003,0.00,VWS V14.00,2013-12-22 11:48:00,
2013-12-22 06:49:00,25.1,23.4,29.85,NNE,24,3.0,4.0,93,0.00,,OVC003,0.00,VWS V14.00,2013-12-22 11:49:00,
2013-12-22 06:50:00,25.1,23.4,29.85,NE,42,1.0,4.0,93,0.00,,OVC003,0.00,VWS V14.00,2013-12-22 11:50:00,
2013-12-22 06:51:00,25.1,23.4,29.84,NE,44,2.0,3.0,93,0.00,,OVC003,0.00,VWS V14.00,2013-12-22 11:51:00,
2013-12-22 06:52:00,25.1,23.4,29.84,NE,44,0.0,3.0,93,0.00,,OVC003,0.00,VWS V14.00,2013-12-22 11:52:00,
2013-12-22 06:53:00,25.1,23.4,29.84,NE,41,4.0,4.0,93,0.00,,OVC003,0.00,VWS V14.00,2013-12-22 11:53:00,
2013-12-22 06:54:00,25.1,23.4,29.85,NE,40,3.0,4.0,93,0.00,,OVC003,0.00,VWS V14.00,2013-12-22 11:54:00,
2013-12-22 06:55:00,25.1,23.4,29.85,North,9,2.0,4.0,93,0.00,,OVC003,0.00,VWS V14.00,2013-12-22 11:55:00,
2013-12-22 06:56:00,25.1,23.4,29.85,NE,42,4.0,4.0,93,0.00,,OVC003,0.00,VWS V14.00,2013-12-22 11:56:00,
2013-12-22 06:57:00,25.1,23.6,29.84,NE,53,1.0,4.0,94,0.00,,OVC003,0.00,VWS V14.00,2013-12-22 11:57:00,
2013-12-22 06:58:00,25.1,23.6,29.84,NE,44,0.0,4.0,94,0.00,,OVC003,0.00,VWS V14.00,2013-12-22 11:58:00,
2013-12-22 06:59:00,25.2,23.7,29.84,NE,44,0.0,4.0,94,0.00,,OVC003,0.00,VWS V14.00,2013-12-22 11:59:00,
2013-12-22 07:00:00,25.2,23.7,29.84,NE,34,4.0,5.0,94,0.00,,OVC003,0.00,VWS V14.00,2013-12-22 12:00:00,
2013-12-22 07:01:00,25.2,23.7,29.84,ENE,69,2.0,4.0,94,0.00,,OVC003,0.00,VWS V14.00,2013-12-22 12:01:00,
2013-12-22 07:02:00,25.2,23.7,29.84,North,360,3.0,4.0,94,0.00,,OVC003,0.00,VWS V14.00,2013-12-22 12:02:00,
2013-12-22 07:03:00,25.2,23.7,29.85,NNE,17,3.0,4.0,94,0.00,,OVC003,0.00,VWS V14.00,2013-12-22 12:03:00,
2013-12-22 07:04:00,25.2,23.7,29.84,NNE,17,0.0,4.0,94,0.00,,OVC003,0.00,VWS V14.00,2013-12-22 12:04:00,
2013-12-22 07:05:00,25.2,23.7,29.84,NE,36,0.0,4.0,94,0.00,,OVC003,0.00,VWS V14.00,2013-12-22 12:05:00,
2013-12-22 07:06:00,25.2,23.7,29.84,NNE,28,2.0,4.0,94,0.00,,OVC003,0.00,VWS V14.00,2013-12-22 12:06:00,
2013-12-22 07:07:00,25.2,23.7,29.84,NNE,28,2.0,4.0,94,0.00,,OVC003,0.00,VWS V14.00,2013-12-22 12:07:00,
2013-12-22 07:08:00,25.2,23.7,29.85,North,360,4.0,4.0,94,0.00,,OVC003,0.00,VWS V14.00,2013-12-22 12:08:00,
2013-12-22 07:09:00,25.2,23.7,29.86,NE,44,2.0,4.0,94,0.00,,OVC003,0.00,VWS V14.00,2013-12-22 12:09:00,
2013-12-22 07:10:00,25.2,23.7,29.85,NE,41,0.0,4.0,94,0.00,,OVC003,0.00,VWS V14.00,2013-12-22 12:10:00,
2013-12-22 07:11:00,25.3,23.8,29.84,NE,40,0.0,1.0,94,0.00,,OVC003,0.00,VWS V14.00,2013-12-22 12:11:00,
2013-12-22 07:12:00,25.3,23.8,29.84,ENE,60,0.0,4.0,94,0.00,,OVC003,0.00,VWS V14.00,2013-12-22 12:12:00,
2013-12-22 07:13:00,25.3,23.8,29.84,NNE,21,1.0,4.0,94,0.00,,OVC003,0.00,VWS V14.00,2013-12-22 12:13:00,
2013-12-22 07:14:00,25.3,23.8,29.85,NNE,21,0.0,4.0,94,0.00,,OVC003,0.00,VWS V14.00,2013-12-22 12:14:00,
2013-12-22 07:15:00,25.3,23.8,29.85,North,5,0.0,4.0,94,0.00,,OVC003,0.00,VWS V14.00,2013-12-22 12:15:00,
2013-12-22 07:16:00,25.4,23.9,29.84,NE,39,2.0,4.0,94,0.00,,OVC003,0.00,VWS V14.00,2013-12-22 12:16:00,
2013-12-22 07:17:00,25.3,23.8,29.84,NE,39,1.0,4.0,94,0.00,,OVC003,0.00,VWS V14.00,2013-12-22 12:17:00,
2013-12-22 07:18:00,25.3,23.8,29.84,NE,48,2.0,4.0,94,0.00,,OVC003,0.00,VWS V14.00,2013-12-22 12:18:00,
2013-12-22 07:19:00,25.4,23.9,29.84,NE,48,0.0,4.0,94,0.00,,OVC003,0.00,VWS V14.00,2013-12-22 12:19:00,
2013-12-22 07:20:00,25.3,23.8,29.84,NE,48,0.0,4.0,94,0.00,,OVC003,0.00,VWS V14.00,2013-12-22 12:20:00,
2013-12-22 07:21:00,25.3,23.8,29.84,NE,48,0.0,0.0,94,0.00,,OVC003,0.00,VWS V14.00,2013-12-22 12:21:00,
2013-12-22 07:22:00,25.3,23.8,29.84,NE,40,0.0,0.0,94,0.00,,OVC003,0.00,VWS V14.00,2013-12-22 12:22:00,
2013-12-22 07:23:00,25.3,23.8,29.84,NE,40,1.0,2.0,94,0.00,,OVC003,0.00,VWS V14.00,2013-12-22 12:23:00,
2013-12-22 07:24:00,25.3,23.8,29.85,North,360,2.0,5.0,94,0.00,,OVC003,0.00,VWS V14.00,2013-12-22 12:24:00,
2013-12-22 07:25:00,25.3,23.8,29.85,North,5,0.0,5.0,94,0.00,,OVC003,0.00,VWS V14.00,2013-12-22 12:25:00,
2013-12-22 07:26:00,25.3,23.8,29.84,NE,44,2.0,5.0,94,0.00,,OVC003,0.00,VWS V14.00,2013-12-22 12:26:00,
2013-12-22 07:27:00,25.3,23.8,29.83,NE,35,1.0,5.0,94,0.00,,OVC003,0.00,VWS V14.00,2013-12-22 12:27:00,
2013-12-22 07:28:00,25.3,23.8,29.84,NNE,19,0.0,5.0,94,0.00,,OVC003,0.00,VWS V14.00,2013-12-22 12:28:00,
2013-12-22 07:29:00,25.3,23.8,29.83,NE,40,0.0,5.0,94,0.00,,OVC003,0.00,VWS V14.00,2013-12-22 12:29:00,
2013-12-22 07:30:00,25.3,23.8,29.82,East,80,3.0,5.0,94,0.00,,OVC003,0.00,VWS V14.00,2013-12-22 12:30:00,
2013-12-22 07:31:00,25.3,23.8,29.82,East,79,0.0,3.0,94,0.00,,OVC003,0.00,VWS V14.00,2013-12-22 12:31:00,
2013-12-22 07:32:00,25.3,23.8,29.83,NNW,334,3.0,4.0,94,0.00,,OVC003,0.00,VWS V14.00,2013-12-22 12:32:00,
2013-12-22 07:33:00,25.3,23.8,29.84,NNW,345,2.0,6.0,94,0.00,,OVC003,0.00,VWS V14.00,2013-12-22 12:33:00,
2013-12-22 07:34:00,25.3,23.8,29.84,North,355,0.0,6.0,94,0.00,,OVC003,0.00,VWS V14.00,2013-12-22 12:34:00,
2013-12-22 07:35:00,25.3,23.8,29.83,North,355,0.0,6.0,94,0.00,,OVC003,0.00,VWS V14.00,2013-12-22 12:35:00,
2013-12-22 07:36:00,25.4,23.9,29.82,NE,55,0.0,6.0,94,0.00,,OVC003,0.00,VWS V14.00,2013-12-22 12:36:00,
2013-12-22 07:37:00,25.3,23.8,29.81,East,94,2.0,6.0,94,0.00,,OVC003,0.00,VWS V14.00,2013-12-22 12:37:00,
2013-12-22 07:38:00,25.4,23.9,29.81,ENE,64,2.0,6.0,94,0.00,,OVC003,0.00,VWS V14.00,2013-12-22 12:38:00,
2013-12-22 07:39:00,25.4,23.9,29.83,NNW,331,3.0,6.0,94,0.00,,OVC003,0.00,VWS V14.00,2013-12-22 12:39:00,
2013-12-22 07:40:00,25.4,23.9,29.83,NNW,341,0.0,6.0,94,0.00,,OVC003,0.00,VWS V14.00,2013-12-22 12:40:00,
2013-12-22 07:41:00,25.4,23.9,29.83,NNW,339,4.0,4.0,94,0.00,,OVC003,0.00,VWS V14.00,2013-12-22 12:41:00,
2013-12-22 07:42:00,25.4,23.9,29.85,NNW,334,9.0,10.0,94,0.00,,OVC003,0.00,VWS V14.00,2013-12-22 12:42:00,
2013-12-22 07:43:00,25.4,23.9,29.84,North,355,5.0,10.0,94,0.00,,OVC003,0.00,VWS V14.00,2013-12-22 12:43:00,
2013-12-22 07:44:00,25.4,23.9,29.84,North,10,1.0,10.0,94,0.00,,OVC003,0.00,VWS V14.00,2013-12-22 12:44:00,
2013-12-22 07:45:00,25.4,23.9,29.85,North,355,6.0,10.0,94,0.00,,OVC003,0.00,VWS V14.00,2013-12-22 12:45:00,
2013-12-22 07:46:00,25.4,23.9,29.85,North,355,6.0,10.0,94,0.00,,OVC003,0.00,VWS V14.00,2013-12-22 12:46:00,
2013-12-22 07:47:00,25.5,24.0,29.85,North,355,1.0,10.0,94,0.00,,OVC004,0.00,VWS V14.00,2013-12-22 12:47:00,
2013-12-22 07:48:00,25.5,24.0,29.84,East,90,3.0,10.0,94,0.00,,OVC004,0.00,VWS V14.00,2013-12-22 12:48:00,
2013-12-22 07:49:00,25.5,24.0,29.83,East,98,0.0,10.0,94,0.00,,OVC004,0.00,VWS V14.00,2013-12-22 12:49:00,
2013-12-22 07:50:00,25.5,24.0,29.84,NNE,13,0.0,10.0,94,0.00,,OVC004,0.00,VWS V14.00,2013-12-22 12:50:00,
2013-12-22 07:51:00,25.5,24.0,29.85,NNW,347,6.0,6.0,94,0.00,,OVC004,0.00,VWS V14.00,2013-12-22 12:51:00,
2013-12-22 07:52:00,25.6,24.1,29.85,NNE,26,1.0,6.0,94,0.00,,OVC004,0.00,VWS V14.00,2013-12-22 12:52:00,
2013-12-22 07:53:00,25.6,24.1,29.85,NNE,26,0.0,6.0,94,0.00,,OVC004,0.00,VWS V14.00,2013-12-22 12:53:00,
2013-12-22 07:54:00,25.6,24.1,29.84,NE,46,0.0,6.0,94,0.00,,OVC004,0.00,VWS V14.00,2013-12-22 12:54:00,
2013-12-22 07:55:00,25.6,24.1,29.84,NE,34,0.0,6.0,94,0.00,,OVC004,0.00,VWS V14.00,2013-12-22 12:55:00,
2013-12-22 07:56:00,25.6,24.1,29.84,North,5,2.0,6.0,94,0.00,,OVC004,0.00,VWS V14.00,2013-12-22 12:56:00,
2013-12-22 07:57:00,25.6,24.1,29.84,North,360,1.0,6.0,94,0.00,,OVC004,0.00,VWS V14.00,2013-12-22 12:57:00,
2013-12-22 07:58:00,25.6,24.1,29.84,NE,36,0.0,6.0,94,0.00,,OVC004,0.00,VWS V14.00,2013-12-22 12:58:00,
2013-12-22 07:59:00,25.6,24.1,29.84,NE,36,0.0,6.0,94,0.00,,OVC004,0.00,VWS V14.00,2013-12-22 12:59:00,
2013-12-22 08:00:00,25.6,24.1,29.84,NE,36,2.0,6.0,94,0.00,,OVC004,0.00,VWS V14.00,2013-12-22 13:00:00,
2013-12-22 08:01:00,25.6,24.1,29.85,NE,36,0.0,1.0,94,0.00,,OVC004,0.00,VWS V14.00,2013-12-22 13:01:00,
2013-12-22 08:02:00,25.6,24.1,29.85,ENE,73,0.0,1.0,94,0.00,,OVC004,0.00,VWS V14.00,2013-12-22 13:02:00,
2013-12-22 08:03:00,25.6,24.1,29.85,ENE,72,0.0,1.0,94,0.00,,OVC004,0.00,VWS V14.00,2013-12-22 13:03:00,
2013-12-22 08:04:00,25.7,24.2,29.86,North,355,4.0,5.0,94,0.00,,OVC004,0.00,VWS V14.00,2013-12-22 13:04:00,
2013-12-22 08:05:00,25.7,24.2,29.88,North,11,1.0,5.0,94,0.00,,OVC004,0.00,VWS V14.00,2013-12-22 13:05:00,
2013-12-22 08:06:00,25.7,24.2,29.86,ESE,105,2.0,5.0,94,0.00,,OVC004,0.00,VWS V14.00,2013-12-22 13:06:00,
2013-12-22 08:07:00,25.7,24.2,29.85,NW,312,5.0,5.0,94,0.00,,OVC004,0.00,VWS V14.00,2013-12-22 13:07:00,
2013-12-22 08:08:00,25.7,24.2,29.85,NNW,339,6.0,9.0,94,0.00,,OVC004,0.00,VWS V14.00,2013-12-22 13:08:00,
2013-12-22 08:09:00,25.8,24.3,29.88,ESE,105,3.0,9.0,94,0.00,,OVC004,0.00,VWS V14.00,2013-12-22 13:09:00,
2013-12-22 08:10:00,25.8,24.3,29.87,East,97,0.0,9.0,94,0.00,,OVC004,0.00,VWS V14.00,2013-12-22 13:10:00,
2013-12-22 08:11:00,25.8,24.3,29.87,NW,306,3.0,3.0,94,0.00,,OVC004,0.00,VWS V14.00,2013-12-22 13:11:00,
2013-12-22 08:12:00,25.8,24.3,29.88,NNW,340,0.0,3.0,94,0.00,,OVC004,0.00,VWS V14.00,2013-12-22 13:12:00,
2013-12-22 08:13:00,25.8,24.3,29.88,ENE,63,3.0,4.0,94,0.00,,OVC004,0.00,VWS V14.00,2013-12-22 13:13:00,
2013-12-22 08:14:00,25.8,24.3,29.86,ENE,61,1.0,4.0,94,0.00,,OVC004,0.00,VWS V14.00,2013-12-22 13:14:00,
2013-12-22 08:15:00,25.8,24.3,29.88,NNW,343,5.0,5.0,94,0.00,,OVC004,0.00,VWS V14.00,2013-12-22 13:15:00,
2013-12-22 08:16:00,25.8,24.3,29.88,NE,53,1.0,5.0,94,0.00,,OVC004,0.00,VWS V14.00,2013-12-22 13:16:00,
2013-12-22 08:17:00,25.8,24.3,29.86,NE,53,0.0,5.0,94,0.00,,OVC004,0.00,VWS V14.00,2013-12-22 13:17:00,
2013-12-22 08:18:00,25.8,24.3,29.87,North,350,3.0,5.0,94,0.00,,OVC004,0.00,VWS V14.00,2013-12-22 13:18:00,
2013-12-22 08:19:00,25.8,24.3,29.87,NE,36,2.0,5.0,94,0.00,,OVC004,0.00,VWS V14.00,2013-12-22 13:19:00,
2013-12-22 08:20:00,25.8,24.3,29.86,ENE,64,0.0,5.0,94,0.00,,OVC004,0.00,VWS V14.00,2013-12-22 13:20:00,
2013-12-22 08:21:00,25.8,24.3,29.86,ENE,64,0.0,0.0,94,0.00,,OVC004,0.00,VWS V14.00,2013-12-22 13:21:00,
2013-12-22 08:22:00,25.8,24.3,29.86,ENE,70,0.0,0.0,94,0.00,,OVC004,0.00,VWS V14.00,2013-12-22 13:22:00,
2013-12-22 08:23:00,25.8,24.3,29.86,ENE,69,0.0,0.0,94,0.00,,OVC004,0.00,VWS V14.00,2013-12-22 13:23:00,
2013-12-22 08:24:00,25.8,24.3,29.85,ENE,69,2.0,2.0,94,0.00,,OVC004,0.00,VWS V14.00,2013-12-22 13:24:00,
2013-12-22 08:25:00,25.8,24.3,29.85,ENE,68,0.0,2.0,94,0.00,,OVC004,0.00,VWS V14.00,2013-12-22 13:25:00,
2013-12-22 08:26:00,25.8,24.3,29.86,ENE,69,0.0,2.0,94,0.00,,OVC004,0.00,VWS V14.00,2013-12-22 13:26:00,
2013-12-22 08:27:00,25.8,24.3,29.87,ENE,69,0.0,2.0,94,0.00,,OVC004,0.00,VWS V14.00,2013-12-22 13:27:00,
2013-12-22 08:28:00,25.8,24.3,29.86,ENE,69,2.0,2.0,94,0.00,,OVC004,0.00,VWS V14.00,2013-12-22 13:28:00,
2013-12-22 08:29:00,25.8,24.3,29.85,ENE,69,0.0,2.0,94,0.00,,OVC004,0.00,VWS V14.00,2013-12-22 13:29:00,
2013-12-22 08:30:00,25.8,24.3,29.86,ENE,68,0.0,2.0,94,0.00,,OVC004,0.00,VWS V14.00,2013-12-22 13:30:00,
2013-12-22 08:31:00,25.8,24.3,29.86,North,11,0.0,0.0,94,0.00,,OVC004,0.00,VWS V14.00,2013-12-22 13:31:00,
2013-12-22 08:32:00,25.8,24.3,29.86,North,11,0.0,0.0,94,0.00,,OVC004,0.00,VWS V14.00,2013-12-22 13:32:00,
2013-12-22 08:33:00,25.8,24.3,29.86,North,11,0.0,0.0,94,0.00,,OVC004,0.00,VWS V14.00,2013-12-22 13:33:00,
2013-12-22 08:34:00,25.9,24.4,29.86,North,11,0.0,0.0,94,0.00,,OVC004,0.00,VWS V14.00,2013-12-22 13:34:00,
2013-12-22 08:35:00,25.9,24.4,29.87,North,11,0.0,0.0,94,0.00,,OVC004,0.00,VWS V14.00,2013-12-22 13:35:00,
2013-12-22 08:36:00,25.9,24.4,29.87,North,5,3.0,3.0,94,0.00,,OVC004,0.00,VWS V14.00,2013-12-22 13:36:00,
2013-12-22 08:37:00,25.9,24.4,29.87,North,355,3.0,4.0,94,0.00,,OVC004,0.00,VWS V14.00,2013-12-22 13:37:00,
2013-12-22 08:38:00,25.9,24.4,29.87,North,355,0.0,4.0,94,0.00,,OVC004,0.00,VWS V14.00,2013-12-22 13:38:00,
2013-12-22 08:39:00,25.9,24.4,29.87,North,355,3.0,4.0,94,0.00,,OVC004,0.00,VWS V14.00,2013-12-22 13:39:00,
2013-12-22 08:40:00,25.9,24.4,29.87,North,360,2.0,4.0,94,0.00,,OVC004,0.00,VWS V14.00,2013-12-22 13:40:00,
2013-12-22 08:41:00,25.9,24.4,29.86,NNE,19,0.0,2.0,94,0.00,,OVC004,0.00,VWS V14.00,2013-12-22 13:41:00,
2013-12-22 08:42:00,25.9,24.4,29.87,NNW,334,5.0,6.0,94,0.00,,OVC004,0.00,VWS V14.00,2013-12-22 13:42:00,
2013-12-22 08:43:00,25.9,24.4,29.88,NNW,346,3.0,6.0,94,0.00,,OVC004,0.00,VWS V14.00,2013-12-22 13:43:00,
2013-12-22 08:44:00,25.9,24.4,29.87,ENE,68,3.0,6.0,94,0.00,,OVC004,0.00,VWS V14.00,2013-12-22 13:44:00,
2013-12-22 08:45:00,25.9,24.4,29.85,East,80,0.0,6.0,94,0.00,,OVC004,0.00,VWS V14.00,2013-12-22 13:45:00,
2013-12-22 08:46:00,25.9,24.4,29.88,NW,311,4.0,6.0,94,0.00,,OVC004,0.00,VWS V14.00,2013-12-22 13:46:00,
2013-12-22 08:47:00,25.9,24.4,29.87,NNE,20,3.0,6.0,94,0.00,,OVC003,0.00,VWS V14.00,2013-12-22 13:47:00,
2013-12-22 08:48:00,26.0,24.5,29.87,East,83,3.0,6.0,94,0.00,,OVC003,0.00,VWS V14.00,2013-12-22 13:48:00,
2013-12-22 08:49:00,25.9,24.4,29.85,East,101,0.0,6.0,94,0.00,,OVC003,0.00,VWS V14.00,2013-12-22 13:49:00,
2013-12-22 08:50:00,26.0,24.5,29.87,NNW,338,5.0,6.0,94,0.00,,OVC003,0.00,VWS V14.00,2013-12-22 13:50:00,
2013-12-22 08:51:00,26.0,24.5,29.88,North,355,1.0,5.0,94,0.00,,OVC003,0.00,VWS V14.00,2013-12-22 13:51:00,
2013-12-22 08:52:00,26.0,24.5,29.87,ENE,58,0.0,5.0,94,0.00,,OVC003,0.00,VWS V14.00,2013-12-22 13:52:00,
2013-12-22 08:53:00,26.0,24.5,29.86,NNW,338,3.0,5.0,94,0.00,,OVC003,0.00,VWS V14.00,2013-12-22 13:53:00,
2013-12-22 08:54:00,26.0,24.5,29.87,NNW,346,3.0,5.0,94,0.00,,OVC003,0.00,VWS V14.00,2013-12-22 13:54:00,
2013-12-22 08:55:00,26.0,24.5,29.87,NNW,348,0.0,5.0,94,0.00,,OVC003,0.00,VWS V14.00,2013-12-22 13:55:00,
2013-12-22 08:56:00,26.0,24.5,29.86,NNW,348,0.0,5.0,94,0.00,,OVC003,0.00,VWS V14.00,2013-12-22 13:56:00,
2013-12-22 08:57:00,26.0,24.5,29.88,NNW,340,3.0,5.0,94,0.00,,OVC003,0.00,VWS V14.00,2013-12-22 13:57:00,
2013-12-22 08:58:00,26.0,24.5,29.87,NNW,340,0.0,5.0,94,0.00,,OVC003,0.00,VWS V14.00,2013-12-22 13:58:00,
2013-12-22 08:59:00,26.0,24.5,29.87,NNW,340,0.0,5.0,94,0.00,,OVC003,0.00,VWS V14.00,2013-12-22 13:59:00,
2013-12-22 09:00:00,26.0,24.5,29.87,NNW,340,0.0,5.0,94,0.00,,OVC003,0.00,VWS V14.00,2013-12-22 14:00:00,
2013-12-22 09:01:00,26.0,24.5,29.87,NNW,340,0.0,0.0,94,0.00,,OVC003,0.00,VWS V14.00,2013-12-22 14:01:00,
2013-12-22 09:02:00,26.0,24.5,29.88,NNW,340,0.0,0.0,94,0.00,,OVC003,0.00,VWS V14.00,2013-12-22 14:02:00,
2013-12-22 09:03:00,26.1,24.6,29.88,NNE,20,0.0,0.0,94,0.00,,OVC003,0.00,VWS V14.00,2013-12-22 14:03:00,
2013-12-22 09:04:00,26.1,24.6,29.87,NNE,20,0.0,0.0,94,0.00,,OVC003,0.00,VWS V14.00,2013-12-22 14:04:00,
2013-12-22 09:05:00,26.1,24.6,29.88,NNE,20,0.0,0.0,94,0.00,,OVC003,0.00,VWS V14.00,2013-12-22 14:05:00,
2013-12-22 09:06:00,26.1,24.6,29.88,North,9,0.0,3.0,94,0.00,,OVC003,0.00,VWS V14.00,2013-12-22 14:06:00,
2013-12-22 09:07:00,26.1,24.6,29.88,North,9,0.0,3.0,94,0.00,,OVC003,0.00,VWS V14.00,2013-12-22 14:07:00,
2013-12-22 09:08:00,26.1,24.6,29.88,North,9,0.0,3.0,94,0.00,,OVC003,0.00,VWS V14.00,2013-12-22 14:08:00,
2013-12-22 09:09:00,26.1,24.6,29.88,North,9,3.0,3.0,94,0.00,,OVC003,0.00,VWS V14.00,2013-12-22 14:09:00,
2013-12-22 09:10:00,26.1,24.6,29.88,North,9,2.0,3.0,94,0.00,,OVC003,0.00,VWS V14.00,2013-12-22 14:10:00,
2013-12-22 09:11:00,26.1,24.6,29.88,North,9,0.0,1.0,94,0.00,,OVC003,0.00,VWS V14.00,2013-12-22 14:11:00,
2013-12-22 09:12:00,26.1,24.6,29.88,North,9,0.0,1.0,94,0.00,,OVC003,0.00,VWS V14.00,2013-12-22 14:12:00,
2013-12-22 09:13:00,26.1,24.6,29.89,North,9,0.0,1.0,94,0.00,,OVC003,0.00,VWS V14.00,2013-12-22 14:13:00,
2013-12-22 09:14:00,26.2,24.7,29.89,North,9,1.0,2.0,94,0.00,,OVC003,0.00,VWS V14.00,2013-12-22 14:14:00,
2013-12-22 09:15:00,26.2,24.7,29.88,NE,34,0.0,3.0,94,0.00,,OVC003,0.00,VWS V14.00,2013-12-22 14:15:00,
2013-12-22 09:16:00,26.2,24.7,29.88,NE,34,0.0,3.0,94,0.00,,OVC003,0.00,VWS V14.00,2013-12-22 14:16:00,
2013-12-22 09:17:00,26.2,24.7,29.89,NE,35,0.0,3.0,94,0.00,,OVC003,0.00,VWS V14.00,2013-12-22 14:17:00,
2013-12-22 09:18:00,26.2,24.7,29.89,NE,35,0.0,3.0,94,0.00,,OVC003,0.00,VWS V14.00,2013-12-22 14:18:00,
2013-12-22 09:19:00,26.2,24.7,29.88,NE,35,0.0,3.0,94,0.00,,OVC003,0.00,VWS V14.00,2013-12-22 14:19:00,
2013-12-22 09:20:00,26.2,24.7,29.89,NE,34,0.0,3.0,94,0.00,,OVC003,0.00,VWS V14.00,2013-12-22 14:20:00,
2013-12-22 09:21:00,26.2,24.7,29.89,NE,35,0.0,0.0,94,0.00,,OVC003,0.00,VWS V14.00,2013-12-22 14:21:00,
2013-12-22 09:22:00,26.2,24.7,29.89,NE,35,0.0,0.0,94,0.00,,OVC003,0.00,VWS V14.00,2013-12-22 14:22:00,
2013-12-22 09:23:00,26.2,24.7,29.89,NE,34,0.0,0.0,94,0.00,,OVC003,0.00,VWS V14.00,2013-12-22 14:23:00,
2013-12-22 09:24:00,26.2,24.7,29.89,NE,35,0.0,0.0,94,0.00,,OVC003,0.00,VWS V14.00,2013-12-22 14:24:00,
2013-12-22 09:25:00,26.2,24.7,29.90,NE,34,0.0,0.0,94,0.00,,OVC003,0.00,VWS V14.00,2013-12-22 14:25:00,
2013-12-22 09:26:00,26.2,24.7,29.90,NE,35,2.0,2.0,94,0.00,,OVC003,0.00,VWS V14.00,2013-12-22 14:26:00,
2013-12-22 09:27:00,26.2,24.7,29.90,North,355,3.0,4.0,94,0.00,,OVC003,0.00,VWS V14.00,2013-12-22 14:27:00,
2013-12-22 09:28:00,26.2,24.7,29.90,NNW,332,4.0,4.0,94,0.00,,OVC003,0.00,VWS V14.00,2013-12-22 14:28:00,
2013-12-22 09:29:00,26.2,24.7,29.91,NNW,334,2.0,4.0,94,0.00,,OVC003,0.00,VWS V14.00,2013-12-22 14:29:00,
2013-12-22 09:30:00,26.2,24.7,29.91,NNW,334,2.0,4.0,94,0.00,,OVC003,0.00,VWS V14.00,2013-12-22 14:30:00,
2013-12-22 09:31:00,26.2,24.7,29.90,NNW,334,2.0,3.0,94,0.00,,OVC003,0.00,VWS V14.00,2013-12-22 14:31:00,
2013-12-22 09:32:00,26.2,24.7,29.91,NNW,334,1.0,3.0,94,0.00,,OVC003,0.00,VWS V14.00,2013-12-22 14:32:00,
2013-12-22 09:33:00,26.2,24.7,29.90,NNW,335,0.0,3.0,94,0.00,,OVC003,0.00,VWS V14.00,2013-12-22 14:33:00,
2013-12-22 09:34:00,26.2,25.0,29.90,NNW,335,0.0,3.0,95,0.00,,OVC003,0.00,VWS V14.00,2013-12-22 14:34:00,
2013-12-22 09:35:00,26.2,25.0,29.90,NNW,335,0.0,3.0,95,0.00,,OVC003,0.00,VWS V14.00,2013-12-22 14:35:00,
2013-12-22 09:36:00,26.3,25.1,29.90,NNW,335,0.0,3.0,95,0.00,,OVC003,0.00,VWS V14.00,2013-12-22 14:36:00,
2013-12-22 09:37:00,26.3,25.1,29.90,NNW,335,0.0,3.0,95,0.00,,OVC003,0.00,VWS V14.00,2013-12-22 14:37:00,
2013-12-22 09:38:00,26.3,25.1,29.90,NNW,335,0.0,3.0,95,0.00,,OVC003,0.00,VWS V14.00,2013-12-22 14:38:00,
2013-12-22 09:39:00,26.3,25.1,29.90,NNW,335,0.0,3.0,95,0.00,,OVC003,0.00,VWS V14.00,2013-12-22 14:39:00,
2013-12-22 09:40:00,26.3,25.1,29.91,NNW,334,2.0,4.0,95,0.00,,OVC003,0.00,VWS V14.00,2013-12-22 14:40:00,
2013-12-22 09:41:00,26.3,25.1,29.91,NNW,335,0.0,2.0,95,0.00,,OVC003,0.00,VWS V14.00,2013-12-22 14:41:00,
2013-12-22 09:42:00,26.3,25.1,29.90,NNW,334,2.0,2.0,95,0.00,,OVC003,0.00,VWS V14.00,2013-12-22 14:42:00,
2013-12-22 09:43:00,26.3,24.8,29.91,NNW,335,1.0,3.0,94,0.00,,OVC003,0.00,VWS V14.00,2013-12-22 14:43:00,
2013-12-22 09:44:00,26.3,24.8,29.90,NE,37,0.0,3.0,94,0.00,,OVC003,0.00,VWS V14.00,2013-12-22 14:44:00,
2013-12-22 09:45:00,26.3,24.8,29.90,NNW,337,3.0,3.0,94,0.00,,OVC003,0.00,VWS V14.00,2013-12-22 14:45:00,
2013-12-22 09:46:00,26.3,24.8,29.91,NE,42,1.0,4.0,94,0.00,,OVC003,0.00,VWS V14.00,2013-12-22 14:46:00,
2013-12-22 09:47:00,26.3,24.8,29.90,ENE,63,0.0,4.0,94,0.00,,OVC003,0.00,VWS V14.00,2013-12-22 14:47:00,
2013-12-22 09:48:00,26.3,24.8,29.91,NNW,338,3.0,4.0,94,0.00,,OVC003,0.00,VWS V14.00,2013-12-22 14:48:00,
2013-12-22 09:49:00,26.3,24.8,29.89,ENE,78,1.0,4.0,94,0.00,,OVC003,0.00,VWS V14.00,2013-12-22 14:49:00,
2013-12-22 09:50:00,26.3,25.1,29.89,ENE,78,1.0,4.0,95,0.00,,OVC003,0.00,VWS V14.00,2013-12-22 14:50:00,
2013-12-22 09:51:00,26.3,25.1,29.89,ENE,78,0.0,0.0,95,0.00,,OVC003,0.00,VWS V14.00,2013-12-22 14:51:00,
2013-12-22 09:52:00,26.3,25.1,29.90,ENE,78,0.0,0.0,95,0.00,,OVC003,0.00,VWS V14.00,2013-12-22 14:52:00,
2013-12-22 09:53:00,26.3,25.1,29.89,ENE,78,0.0,0.0,95,0.00,,OVC003,0.00,VWS V14.00,2013-12-22 14:53:00,
2013-12-22 09:54:00,26.3,25.1,29.89,ENE,78,0.0,0.0,95,0.00,,OVC003,0.00,VWS V14.00,2013-12-22 14:54:00,
2013-12-22 09:55:00,26.3,25.1,29.89,ENE,78,0.0,0.0,95,0.00,,OVC003,0.00,VWS V14.00,2013-12-22 14:55:00,
2013-12-22 09:56:00,26.3,25.1,29.89,ENE,78,0.0,0.0,95,0.00,,OVC003,0.00,VWS V14.00,2013-12-22 14:56:00,
2013-12-22 09:57:00,26.3,25.1,29.89,NNE,21,0.0,2.0,95,0.00,,OVC003,0.00,VWS V14.00,2013-12-22 14:57:00,
2013-12-22 09:58:00,26.3,25.1,29.89,NNE,22,0.0,2.0,95,0.00,,OVC003,0.00,VWS V14.00,2013-12-22 14:58:00,
2013-12-22 09:59:00,26.4,24.9,29.88,NNE,22,0.0,2.0,94,0.00,,OVC003,0.00,VWS V14.00,2013-12-22 14:59:00,
2013-12-22 10:00:00,26.4,24.9,29.89,NNE,22,0.0,2.0,94,0.00,,OVC003,0.00,VWS V14.00,2013-12-22 15:00:00,
2013-12-22 10:01:00,26.4,24.9,29.88,NNE,22,0.0,0.0,94,0.00,,OVC003,0.00,VWS V14.00,2013-12-22 15:01:00,
2013-12-22 10:02:00,26.4,24.9,29.88,NNE,22,0.0,0.0,94,0.00,,OVC003,0.00,VWS V14.00,2013-12-22 15:02:00,
2013-12-22 10:03:00,26.4,24.9,29.88,NNE,22,0.0,0.0,94,0.00,,OVC003,0.00,VWS V14.00,2013-12-22 15:03:00,
2013-12-22 10:04:00,26.4,24.9,29.88,NNE,22,0.0,0.0,94,0.00,,OVC003,0.00,VWS V14.00,2013-12-22 15:04:00,
2013-12-22 10:05:00,26.4,24.9,29.88,NNE,22,0.0,0.0,94,0.00,,OVC003,0.00,VWS V14.00,2013-12-22 15:05:00,
2013-12-22 10:06:00,26.4,24.9,29.88,NNE,22,0.0,0.0,94,0.00,,OVC003,0.00,VWS V14.00,2013-12-22 15:06:00,
2013-12-22 10:07:00,26.4,25.2,29.88,NNE,22,0.0,0.0,95,0.00,,OVC003,0.00,VWS V14.00,2013-12-22 15:07:00,
2013-12-22 10:08:00,26.3,25.1,29.88,NNE,22,0.0,0.0,95,0.00,,OVC003,0.00,VWS V14.00,2013-12-22 15:08:00,
2013-12-22 10:09:00,26.3,25.1,29.88,NNE,13,3.0,3.0,95,0.00,,OVC003,0.00,VWS V14.00,2013-12-22 15:09:00,
2013-12-22 10:10:00,26.3,25.1,29.88,North,9,3.0,3.0,95,0.00,,OVC003,0.00,VWS V14.00,2013-12-22 15:10:00,
2013-12-22 10:11:00,26.3,24.8,29.89,North,350,4.0,4.0,94,0.00,,OVC003,0.00,VWS V14.00,2013-12-22 15:11:00,
2013-12-22 10:12:00,26.3,25.1,29.89,NNW,341,4.0,5.0,95,0.00,,OVC003,0.00,VWS V14.00,2013-12-22 15:12:00,
2013-12-22 10:13:00,26.3,25.1,29.89,NNW,341,4.0,5.0,95,0.00,,OVC003,0.00,VWS V14.00,2013-12-22 15:13:00,
2013-12-22 10:14:00,26.3,25.1,29.89,North,355,2.0,5.0,95,0.00,,OVC003,0.00,VWS V14.00,2013-12-22 15:14:00,
2013-12-22 10:15:00,26.3,25.1,29.89,North,355,2.0,5.0,95,0.00,,OVC003,0.00,VWS V14.00,2013-12-22 15:15:00,
2013-12-22 10:16:00,26.4,25.2,29.89,North,355,0.0,5.0,95,0.00,,OVC003,0.00,VWS V14.00,2013-12-22 15:16:00,
2013-12-22 10:17:00,26.4,24.9,29.89,North,355,0.0,5.0,94,0.00,,OVC003,0.00,VWS V14.00,2013-12-22 15:17:00,
2013-12-22 10:18:00,26.4,25.2,29.89,North,355,3.0,5.0,95,0.00,,OVC003,0.00,VWS V14.00,2013-12-22 15:18:00,
2013-12-22 10:19:00,26.5,25.3,29.90,North,350,5.0,5.0,95,0.00,,OVC003,0.00,VWS V14.00,2013-12-22 15:19:00,
2013-12-22 10:20:00,26.5,25.3,29.91,NNW,333,6.0,7.0,95,0.00,,OVC003,0.00,VWS V14.00,2013-12-22 15:20:00,
2013-12-22 10:21:00,26.5,25.3,29.92,NNW,344,5.0,6.0,95,0.00,,OVC003,0.00,VWS V14.00,2013-12-22 15:21:00,
2013-12-22 10:22:00,26.5,25.3,29.92,NNW,338,3.0,6.0,95,0.00,,OVC003,0.00,VWS V14.00,2013-12-22 15:22:00,
2013-12-22 10:23:00,26.6,25.4,29.91,NNW,338,0.0,6.0,95,0.00,,OVC003,0.00,VWS V14.00,2013-12-22 15:23:00,
2013-12-22 10:24:00,26.6,25.4,29.91,NNW,340,2.0,6.0,95,0.00,,OVC003,0.00,VWS V14.00,2013-12-22 15:24:00,
2013-12-22 10:25:00,26.6,25.4,29.91,NNW,341,1.0,6.0,95,0.00,,OVC003,0.00,VWS V14.00,2013-12-22 15:25:00,
2013-12-22 10:26:00,26.7,25.5,29.91,NNW,341,0.0,6.0,95,0.00,,OVC003,0.00,VWS V14.00,2013-12-22 15:26:00,
2013-12-22 10:27:00,26.7,25.5,29.91,NNW,341,0.0,6.0,95,0.00,,OVC003,0.00,VWS V14.00,2013-12-22 15:27:00,
2013-12-22 10:28:00,26.7,25.5,29.90,NNW,341,0.0,6.0,95,0.00,,OVC003,0.00,VWS V14.00,2013-12-22 15:28:00,
2013-12-22 10:29:00,26.8,25.6,29.90,NNW,341,0.0,6.0,95,0.00,,OVC003,0.00,VWS V14.00,2013-12-22 15:29:00,
2013-12-22 10:30:00,26.8,25.6,29.90,NNW,341,0.0,6.0,95,0.00,,OVC003,0.00,VWS V14.00,2013-12-22 15:30:00,
2013-12-22 10:31:00,26.8,25.6,29.90,NNW,341,0.0,0.0,95,0.00,,OVC003,0.00,VWS V14.00,2013-12-22 15:31:00,
2013-12-22 10:32:00,26.9,25.7,29.90,NNW,341,0.0,0.0,95,0.00,,OVC003,0.00,VWS V14.00,2013-12-22 15:32:00,
2013-12-22 10:33:00,26.9,25.7,29.90,NNW,341,0.0,0.0,95,0.00,,OVC003,0.00,VWS V14.00,2013-12-22 15:33:00,
2013-12-22 10:34:00,26.9,25.7,29.90,NNW,341,0.0,0.0,95,0.00,,OVC003,0.00,VWS V14.00,2013-12-22 15:34:00,
2013-12-22 10:35:00,26.9,25.7,29.90,NNW,341,0.0,0.0,95,0.00,,OVC003,0.00,VWS V14.00,2013-12-22 15:35:00,
2013-12-22 10:36:00,26.9,25.7,29.91,NNW,341,0.0,0.0,95,0.00,,OVC003,0.00,VWS V14.00,2013-12-22 15:36:00,
2013-12-22 10:37:00,26.9,25.7,29.90,NNW,341,0.0,0.0,95,0.00,,OVC003,0.00,VWS V14.00,2013-12-22 15:37:00,
2013-12-22 10:38:00,26.9,25.7,29.90,NNW,341,0.0,0.0,95,0.00,,OVC003,0.00,VWS V14.00,2013-12-22 15:38:00,
2013-12-22 10:39:00,26.9,25.7,29.90,NNW,341,0.0,0.0,95,0.00,,OVC003,0.00,VWS V14.00,2013-12-22 15:39:00,
2013-12-22 10:40:00,27.0,25.8,29.90,NNW,341,0.0,0.0,95,0.00,,OVC003,0.00,VWS V14.00,2013-12-22 15:40:00,
2013-12-22 10:41:00,27.0,25.8,29.90,NNW,341,0.0,0.0,95,0.00,,OVC003,0.00,VWS V14.00,2013-12-22 15:41:00,
2013-12-22 10:42:00,27.0,25.8,29.91,NNW,341,0.0,0.0,95,0.00,,OVC003,0.00,VWS V14.00,2013-12-22 15:42:00,
2013-12-22 10:43:00,27.0,25.8,29.90,NNW,341,0.0,0.0,95,0.00,,OVC003,0.00,VWS V14.00,2013-12-22 15:43:00,
2013-12-22 10:44:00,27.0,25.8,29.90,NNW,341,0.0,0.0,95,0.00,,OVC003,0.00,VWS V14.00,2013-12-22 15:44:00,
2013-12-22 10:45:00,27.1,25.9,29.90,NNW,341,0.0,0.0,95,0.00,,OVC003,0.00,VWS V14.00,2013-12-22 15:45:00,
2013-12-22 10:46:00,27.1,25.9,29.89,NNW,341,0.0,0.0,95,0.00,,OVC003,0.00,VWS V14.00,2013-12-22 15:46:00,
2013-12-22 10:47:00,27.1,25.9,29.88,NNW,341,0.0,0.0,95,0.00,,OVC002,0.00,VWS V14.00,2013-12-22 15:47:00,
2013-12-22 10:48:00,27.1,25.9,29.88,NNW,341,0.0,0.0,95,0.00,,OVC002,0.00,VWS V14.00,2013-12-22 15:48:00,
2013-12-22 10:49:00,27.1,25.9,29.88,NNW,341,0.0,0.0,95,0.00,,OVC002,0.00,VWS V14.00,2013-12-22 15:49:00,
2013-12-22 10:50:00,27.1,25.9,29.88,NNW,341,0.0,0.0,95,0.00,,OVC002,0.00,VWS V14.00,2013-12-22 15:50:00,
2013-12-22 10:51:00,27.2,26.0,29.88,NNW,341,0.0,0.0,95,0.00,,OVC002,0.00,VWS V14.00,2013-12-22 15:51:00,
2013-12-22 10:52:00,27.2,26.0,29.88,NNW,341,0.0,0.0,95,0.00,,OVC002,0.00,VWS V14.00,2013-12-22 15:52:00,
2013-12-22 10:53:00,27.2,26.0,29.88,NNW,341,0.0,0.0,95,0.00,,OVC002,0.00,VWS V14.00,2013-12-22 15:53:00,
2013-12-22 10:54:00,27.2,26.0,29.88,NNW,341,0.0,0.0,95,0.00,,OVC002,0.00,VWS V14.00,2013-12-22 15:54:00,
2013-12-22 10:55:00,27.3,26.1,29.88,NNW,341,0.0,0.0,95,0.00,,OVC002,0.00,VWS V14.00,2013-12-22 15:55:00,
2013-12-22 10:56:00,27.3,26.1,29.88,NNW,341,0.0,0.0,95,0.00,,OVC002,0.00,VWS V14.00,2013-12-22 15:56:00,
2013-12-22 10:57:00,27.3,26.1,29.88,NNW,341,0.0,0.0,95,0.00,,OVC002,0.00,VWS V14.00,2013-12-22 15:57:00,
2013-12-22 10:58:00,27.3,26.1,29.88,NNW,341,0.0,0.0,95,0.00,,OVC002,0.00,VWS V14.00,2013-12-22 15:58:00,
2013-12-22 10:59:00,27.3,26.1,29.88,NNW,341,0.0,0.0,95,0.00,,OVC002,0.00,VWS V14.00,2013-12-22 15:59:00,
2013-12-22 11:00:00,27.3,26.1,29.88,NNW,341,0.0,0.0,95,0.00,,OVC002,0.00,VWS V14.00,2013-12-22 16:00:00,
2013-12-22 11:01:00,27.3,26.1,29.88,NNW,341,0.0,0.0,95,0.00,,OVC002,0.00,VWS V14.00,2013-12-22 16:01:00,
2013-12-22 11:02:00,27.3,26.1,29.88,NNW,341,0.0,0.0,95,0.00,,OVC002,0.00,VWS V14.00,2013-12-22 16:02:00,
2013-12-22 11:03:00,27.2,26.0,29.88,NNW,341,0.0,0.0,95,0.00,,OVC002,0.00,VWS V14.00,2013-12-22 16:03:00,
2013-12-22 11:04:00,27.2,26.0,29.88,NNW,341,0.0,0.0,95,0.00,,OVC002,0.00,VWS V14.00,2013-12-22 16:04:00,
2013-12-22 11:05:00,27.2,26.0,29.88,NNW,341,0.0,0.0,95,0.00,,OVC002,0.00,VWS V14.00,2013-12-22 16:05:00,
2013-12-22 11:06:00,27.1,25.9,29.87,NNW,341,1.0,1.0,95,0.00,,OVC002,0.00,VWS V14.00,2013-12-22 16:06:00,
2013-12-22 11:07:00,27.1,25.9,29.87,NNW,341,0.0,2.0,95,0.00,,OVC002,0.00,VWS V14.00,2013-12-22 16:07:00,
2013-12-22 11:08:00,27.1,25.9,29.87,NNW,341,0.0,2.0,95,0.00,,OVC002,0.00,VWS V14.00,2013-12-22 16:08:00,
2013-12-22 11:09:00,27.1,25.9,29.87,NNW,341,0.0,2.0,95,0.00,,OVC002,0.00,VWS V14.00,2013-12-22 16:09:00,
2013-12-22 11:10:00,27.1,25.9,29.86,NNW,341,0.0,2.0,95,0.00,,OVC002,0.00,VWS V14.00,2013-12-22 16:10:00,
2013-12-22 11:11:00,27.2,26.0,29.86,NNW,341,0.0,0.0,95,0.00,,OVC002,0.00,VWS V14.00,2013-12-22 16:11:00,
2013-12-22 11:12:00,27.2,26.0,29.85,NNW,341,0.0,0.0,95,0.00,,OVC002,0.00,VWS V14.00,2013-12-22 16:12:00,
2013-12-22 11:13:00,27.3,26.1,29.85,NNW,341,0.0,0.0,95,0.00,,OVC002,0.00,VWS V14.00,2013-12-22 16:13:00,
2013-12-22 11:14:00,27.3,26.1,29.84,NNW,341,0.0,0.0,95,0.00,,OVC002,0.00,VWS V14.00,2013-12-22 16:14:00,
2013-12-22 11:15:00,27.3,26.1,29.84,NNW,341,0.0,0.0,95,0.00,,OVC002,0.00,VWS V14.00,2013-12-22 16:15:00,
2013-12-22 11:16:00,27.3,26.1,29.84,NNW,341,0.0,0.0,95,0.00,,OVC002,0.00,VWS V14.00,2013-12-22 16:16:00,
2013-12-22 11:17:00,27.4,26.2,29.84,NNW,341,0.0,0.0,95,0.00,,OVC002,0.00,VWS V14.00,2013-12-22 16:17:00,
2013-12-22 11:18:00,27.4,26.2,29.84,NNW,341,0.0,0.0,95,0.00,,OVC002,0.00,VWS V14.00,2013-12-22 16:18:00,
2013-12-22 11:19:00,27.4,26.2,29.84,NNW,341,0.0,0.0,95,0.00,,OVC002,0.00,VWS V14.00,2013-12-22 16:19:00,
2013-12-22 11:20:00,27.4,26.2,29.84,NNW,341,0.0,0.0,95,0.00,,OVC002,0.00,VWS V14.00,2013-12-22 16:20:00,
2013-12-22 11:21:00,27.4,26.2,29.84,NNW,341,0.0,0.0,95,0.00,,OVC002,0.00,VWS V14.00,2013-12-22 16:21:00,
2013-12-22 11:22:00,27.3,26.1,29.84,NNW,341,0.0,0.0,95,0.00,,OVC002,0.00,VWS V14.00,2013-12-22 16:22:00,
2013-12-22 11:23:00,27.3,26.1,29.84,NNW,341,0.0,0.0,95,0.00,,OVC002,0.00,VWS V14.00,2013-12-22 16:23:00,
2013-12-22 11:24:00,27.2,26.0,29.83,NNW,341,0.0,0.0,95,0.00,,OVC002,0.00,VWS V14.00,2013-12-22 16:24:00,
2013-12-22 11:25:00,27.2,26.0,29.83,NNW,341,0.0,0.0,95,0.00,,OVC002,0.00,VWS V14.00,2013-12-22 16:25:00,
2013-12-22 11:26:00,27.1,25.9,29.83,NNW,341,0.0,0.0,95,0.00,,OVC002,0.00,VWS V14.00,2013-12-22 16:26:00,
2013-12-22 11:27:00,27.1,25.9,29.83,NNW,341,0.0,0.0,95,0.00,,OVC002,0.00,VWS V14.00,2013-12-22 16:27:00,
2013-12-22 11:28:00,27.1,25.9,29.83,NNW,341,0.0,0.0,95,0.00,,OVC002,0.00,VWS V14.00,2013-12-22 16:28:00,
2013-12-22 11:29:00,27.1,25.9,29.83,NNW,341,3.0,3.0,95,0.00,,OVC002,0.00,VWS V14.00,2013-12-22 16:29:00,
2013-12-22 11:30:00,27.1,25.9,29.83,NNW,341,3.0,3.0,95,0.00,,OVC002,0.00,VWS V14.00,2013-12-22 16:30:00,
2013-12-22 11:31:00,27.0,25.8,29.83,NNW,341,3.0,3.0,95,0.00,,OVC002,0.00,VWS V14.00,2013-12-22 16:31:00,
2013-12-22 11:32:00,27.0,25.8,29.83,NNW,341,2.0,3.0,95,0.00,,OVC002,0.00,VWS V14.00,2013-12-22 16:32:00,
2013-12-22 11:33:00,27.0,25.8,29.83,NNW,341,1.0,3.0,95,0.00,,OVC002,0.00,VWS V14.00,2013-12-22 16:33:00,
2013-12-22 11:34:00,27.0,25.8,29.83,NNW,341,0.0,3.0,95,0.00,,OVC002,0.00,VWS V14.00,2013-12-22 16:34:00,
2013-12-22 11:35:00,27.0,25.8,29.82,NNW,341,0.0,3.0,95,0.00,,OVC002,0.00,VWS V14.00,2013-12-22 16:35:00,
2013-12-22 11:36:00,27.0,25.8,29.82,NNW,341,0.0,3.0,95,0.00,,OVC002,0.00,VWS V14.00,2013-12-22 16:36:00,
2013-12-22 11:37:00,27.0,25.8,29.82,NNW,341,1.0,3.0,95,0.00,,OVC002,0.00,VWS V14.00,2013-12-22 16:37:00,
2013-12-22 11:38:00,27.1,25.9,29.82,NNW,341,3.0,3.0,95,0.00,,OVC002,0.00,VWS V14.00,2013-12-22 16:38:00,
2013-12-22 11:39:00,27.1,25.9,29.82,NNW,341,3.0,3.0,95,0.00,,OVC002,0.00,VWS V14.00,2013-12-22 16:39:00,
2013-12-22 11:40:00,27.1,25.9,29.82,NNW,341,2.0,4.0,95,0.00,,OVC002,0.00,VWS V14.00,2013-12-22 16:40:00,
2013-12-22 11:41:00,27.1,25.9,29.83,NNW,341,3.0,3.0,95,0.00,,OVC002,0.00,VWS V14.00,2013-12-22 16:41:00,
2013-12-22 11:42:00,27.1,25.9,29.83,NNW,341,2.0,3.0,95,0.00,,OVC002,0.00,VWS V14.00,2013-12-22 16:42:00,
2013-12-22 11:43:00,27.1,25.9,29.82,NNW,341,1.0,3.0,95,0.00,,OVC002,0.00,VWS V14.00,2013-12-22 16:43:00,
2013-12-22 11:44:00,27.2,26.0,29.83,NNW,341,5.0,5.0,95,0.00,,OVC002,0.00,VWS V14.00,2013-12-22 16:44:00,
2013-12-22 11:45:00,27.2,26.0,29.84,NNW,340,5.0,7.0,95,0.00,,OVC002,0.00,VWS V14.00,2013-12-22 16:45:00,
2013-12-22 11:46:00,27.3,26.1,29.84,NNW,348,2.0,7.0,95,0.00,,OVC002,0.00,VWS V14.00,2013-12-22 16:46:00,
2013-12-22 11:47:00,27.4,26.2,29.83,North,349,0.0,7.0,95,0.00,,OVC100,0.00,VWS V14.00,2013-12-22 16:47:00,
2013-12-22 11:48:00,27.4,26.2,29.82,North,349,0.0,7.0,95,0.00,,OVC100,0.00,VWS V14.00,2013-12-22 16:48:00,
2013-12-22 11:49:00,27.5,26.3,29.82,North,349,0.0,7.0,95,0.00,,OVC100,0.00,VWS V14.00,2013-12-22 16:49:00,
2013-12-22 11:50:00,27.5,26.3,29.82,North,349,0.0,7.0,95,0.00,,OVC100,0.00,VWS V14.00,2013-12-22 16:50:00,
2013-12-22 11:51:00,27.6,26.4,29.83,North,349,0.0,0.0,95,0.00,,OVC100,0.00,VWS V14.00,2013-12-22 16:51:00,
2013-12-22 11:52:00,27.6,26.4,29.83,North,349,3.0,3.0,95,0.00,,OVC100,0.00,VWS V14.00,2013-12-22 16:52:00,
2013-12-22 11:53:00,27.6,26.4,29.83,North,349,3.0,3.0,95,0.00,,OVC100,0.00,VWS V14.00,2013-12-22 16:53:00,
2013-12-22 11:54:00,27.6,26.4,29.84,NNW,347,4.0,5.0,95,0.00,,OVC100,0.00,VWS V14.00,2013-12-22 16:54:00,
2013-12-22 11:55:00,27.6,26.4,29.84,NNW,348,3.0,5.0,95,0.00,,OVC100,0.00,VWS V14.00,2013-12-22 16:55:00,
2013-12-22 11:56:00,27.6,26.4,29.84,NNW,348,0.0,5.0,95,0.00,,OVC100,0.00,VWS V14.00,2013-12-22 16:56:00,
2013-12-22 11:57:00,27.6,26.4,29.84,NNW,348,0.0,5.0,95,0.00,,OVC100,0.00,VWS V14.00,2013-12-22 16:57:00,
2013-12-22 11:58:00,27.7,26.5,29.83,NNW,348,1.0,5.0,95,0.00,,OVC100,0.00,VWS V14.00,2013-12-22 16:58:00,
2013-12-22 11:59:00,27.7,26.5,29.83,NNW,348,0.0,5.0,95,0.00,,OVC100,0.00,VWS V14.00,2013-12-22 16:59:00,
2013-12-22 12:00:00,27.7,26.5,29.83,ENE,76,0.0,5.0,95,0.00,,OVC100,0.00,VWS V14.00,2013-12-22 17:00:00,
2013-12-22 12:01:00,27.7,26.5,29.82,ENE,76,0.0,0.0,95,0.00,,OVC100,0.00,VWS V14.00,2013-12-22 17:01:00,
2013-12-22 12:02:00,27.8,26.6,29.80,ESE,110,2.0,2.0,95,0.00,,OVC100,0.00,VWS V14.00,2013-12-22 17:02:00,
2013-12-22 12:03:00,27.8,26.6,29.79,ESE,110,1.0,2.0,95,0.00,,OVC100,0.00,VWS V14.00,2013-12-22 17:03:00,
2013-12-22 12:04:00,27.8,26.6,29.79,ESE,109,0.0,2.0,95,0.00,,OVC100,0.00,VWS V14.00,2013-12-22 17:04:00,
2013-12-22 12:05:00,27.8,26.6,29.78,East,83,1.0,3.0,95,0.00,,OVC100,0.00,VWS V14.00,2013-12-22 17:05:00,
2013-12-22 12:06:00,27.8,26.6,29.78,ESE,114,2.0,3.0,95,0.00,,OVC100,0.00,VWS V14.00,2013-12-22 17:06:00,
2013-12-22 12:07:00,27.8,26.6,29.77,East,97,2.0,3.0,95,0.00,,OVC100,0.00,VWS V14.00,2013-12-22 17:07:00,
2013-12-22 12:08:00,27.8,26.6,29.76,ESE,111,1.0,3.0,95,0.00,,OVC100,0.00,VWS V14.00,2013-12-22 17:08:00,
2013-12-22 12:09:00,27.7,26.5,29.76,ESE,112,0.0,3.0,95,0.00,,OVC100,0.00,VWS V14.00,2013-12-22 17:09:00,
2013-12-22 12:10:00,27.7,26.5,29.76,ESE,111,0.0,3.0,95,0.00,,OVC100,0.00,VWS V14.00,2013-12-22 17:10:00,
2013-12-22 12:11:00,27.7,26.5,29.76,ESE,112,0.0,0.0,95,0.00,,OVC100,0.00,VWS V14.00,2013-12-22 17:11:00,
2013-12-22 12:12:00,27.8,26.6,29.76,ESE,111,0.0,0.0,95,0.00,,OVC100,0.00,VWS V14.00,2013-12-22 17:12:00,
2013-12-22 12:13:00,27.8,26.6,29.75,ESE,112,0.0,1.0,95,0.00,,OVC100,0.00,VWS V14.00,2013-12-22 17:13:00,
2013-12-22 12:14:00,27.8,26.6,29.74,ESE,113,1.0,1.0,95,0.00,,OVC100,0.00,VWS V14.00,2013-12-22 17:14:00,
2013-12-22 12:15:00,27.8,26.6,29.74,ESE,113,0.0,1.0,95,0.00,,OVC100,0.00,VWS V14.00,2013-12-22 17:15:00,
2013-12-22 12:16:00,27.8,26.6,29.73,South,180,3.0,3.0,95,0.00,,OVC100,0.00,VWS V14.00,2013-12-22 17:16:00,
2013-12-22 12:17:00,27.8,26.6,29.73,South,189,4.0,4.0,95,0.00,,OVC100,0.00,VWS V14.00,2013-12-22 17:17:00,
2013-12-22 12:18:00,27.8,26.6,29.73,SSW,194,4.0,4.0,95,0.00,,OVC100,0.00,VWS V14.00,2013-12-22 17:18:00,
2013-12-22 12:19:00,27.8,26.6,29.73,SSW,207,6.0,6.0,95,0.00,,OVC100,0.00,VWS V14.00,2013-12-22 17:19:00,
2013-12-22 12:20:00,27.8,26.6,29.73,SSW,201,6.0,6.0,95,0.00,,OVC100,0.00,VWS V14.00,2013-12-22 17:20:00,
2013-12-22 12:21:00,27.8,26.6,29.73,SSW,202,5.0,5.0,95,0.00,,OVC100,0.00,VWS V14.00,2013-12-22 17:21:00,
2013-12-22 12:22:00,27.8,26.6,29.72,SSW,200,4.0,5.0,95,0.00,,OVC100,0.00,VWS V14.00,2013-12-22 17:22:00,
2013-12-22 12:23:00,27.8,26.6,29.70,SSW,205,7.0,7.0,95,0.00,,OVC100,0.00,VWS V14.00,2013-12-22 17:23:00,
2013-12-22 12:24:00,27.8,26.6,29.69,SW,219,5.0,7.0,95,0.00,,OVC100,0.00,VWS V14.00,2013-12-22 17:24:00,
2013-12-22 12:25:00,27.8,26.6,29.69,SW,219,5.0,7.0,95,0.00,,OVC100,0.00,VWS V14.00,2013-12-22 17:25:00,
2013-12-22 12:26:00,27.8,26.6,29.69,SW,223,6.0,7.0,95,0.00,,OVC100,0.00,VWS V14.00,2013-12-22 17:26:00,
2013-12-22 12:27:00,27.8,26.6,29.70,West,264,6.0,7.0,95,0.00,,OVC100,0.00,VWS V14.00,2013-12-22 17:27:00,
2013-12-22 12:28:00,27.8,26.6,29.72,West,270,9.0,9.0,95,0.00,,OVC100,0.00,VWS V14.00,2013-12-22 17:28:00,
2013-12-22 12:29:00,27.8,26.6,29.72,WNW,283,11.0,11.0,95,0.00,,OVC100,0.00,VWS V14.00,2013-12-22 17:29:00,
2013-12-22 12:30:00,27.8,26.6,29.72,WNW,288,10.0,12.0,95,0.00,,OVC100,0.00,VWS V14.00,2013-12-22 17:30:00,
2013-12-22 12:31:00,27.9,26.7,29.72,NW,311,12.0,12.0,95,0.00,,OVC100,0.00,VWS V14.00,2013-12-22 17:31:00,
2013-12-22 12:32:00,28.0,27.0,29.77,WNW,299,14.0,14.0,96,0.00,,OVC100,0.00,VWS V14.00,2013-12-22 17:32:00,
2013-12-22 12:33:00,28.0,27.0,29.77,NW,305,11.0,14.0,96,0.00,,OVC100,0.00,VWS V14.00,2013-12-22 17:33:00,
2013-12-22 12:34:00,28.0,27.0,29.76,North,360,5.0,14.0,96,0.00,,OVC100,0.00,VWS V14.00,2013-12-22 17:34:00,
2013-12-22 12:35:00,28.1,27.1,29.76,North,355,5.0,14.0,96,0.00,,OVC100,0.00,VWS V14.00,2013-12-22 17:35:00,
2013-12-22 12:36:00,28.0,27.0,29.76,NNW,346,12.0,14.0,96,0.00,,OVC100,0.00,VWS V14.00,2013-12-22 17:36:00,
2013-12-22 12:37:00,28.0,27.0,29.77,North,355,10.0,14.0,96,0.00,,OVC100,0.00,VWS V14.00,2013-12-22 17:37:00,
2013-12-22 12:38:00,28.0,27.0,29.81,NNW,331,14.0,14.0,96,0.00,,OVC100,0.00,VWS V14.00,2013-12-22 17:38:00,
2013-12-22 12:39:00,28.0,27.0,29.82,NNW,342,13.0,15.0,96,0.00,,OVC100,0.00,VWS V14.00,2013-12-22 17:39:00,
2013-12-22 12:40:00,28.1,27.1,29.84,NNW,346,15.0,16.0,96,0.00,,OVC100,0.00,VWS V14.00,2013-12-22 17:40:00,
2013-12-22 12:41:00,28.0,27.0,29.84,NNW,338,10.0,17.0,96,0.00,,OVC100,0.00,VWS V14.00,2013-12-22 17:41:00,
2013-12-22 12:42:00,28.0,27.0,29.84,NE,46,6.0,17.0,96,0.00,,OVC100,0.00,VWS V14.00,2013-12-22 17:42:00,
2013-12-22 12:43:00,28.0,27.0,29.83,NE,42,6.0,17.0,96,0.00,,OVC100,0.00,VWS V14.00,2013-12-22 17:43:00,
2013-12-22 12:44:00,28.0,27.0,29.81,NNE,19,5.0,17.0,96,0.00,,OVC100,0.00,VWS V14.00,2013-12-22 17:44:00,
2013-12-22 12:45:00,27.9,26.9,29.80,NNE,18,4.0,17.0,96,0.00,,OVC100,0.00,VWS V14.00,2013-12-22 17:45:00,
2013-12-22 12:46:00,27.9,26.9,29.80,NE,38,8.0,17.0,96,0.00,,OVC100,0.00,VWS V14.00,2013-12-22 17:46:00,
2013-12-22 12:47:00,27.9,26.9,29.79,NNE,19,3.0,17.0,96,0.00,,OVC002,0.00,VWS V14.00,2013-12-22 17:47:00,
2013-12-22 12:48:00,27.9,26.9,29.80,North,355,3.0,17.0,96,0.00,,OVC002,0.00,VWS V14.00,2013-12-22 17:48:00,
2013-12-22 12:49:00,27.9,26.9,29.80,NNE,15,9.0,17.0,96,0.00,,OVC002,0.00,VWS V14.00,2013-12-22 17:49:00,
2013-12-22 12:50:00,27.9,26.9,29.84,NNE,24,6.0,17.0,96,0.00,,OVC002,0.00,VWS V14.00,2013-12-22 17:50:00,
2013-12-22 12:51:00,27.9,26.9,29.83,NE,34,1.0,6.0,96,0.00,,OVC002,0.00,VWS V14.00,2013-12-22 17:51:00,
2013-12-22 12:52:00,27.9,26.9,29.82,NE,34,4.0,6.0,96,0.00,,OVC002,0.00,VWS V14.00,2013-12-22 17:52:00,
2013-12-22 12:53:00,27.9,26.9,29.80,NNE,32,5.0,9.0,96,0.00,,OVC002,0.00,VWS V14.00,2013-12-22 17:53:00,
2013-12-22 12:54:00,27.9,26.9,29.80,NE,46,1.0,9.0,96,0.00,,OVC002,0.00,VWS V14.00,2013-12-22 17:54:00,
2013-12-22 12:55:00,27.9,26.9,29.80,NE,34,2.0,9.0,96,0.00,,OVC002,0.00,VWS V14.00,2013-12-22 17:55:00,
2013-12-22 12:56:00,27.9,26.9,29.80,WNW,300,1.0,9.0,96,0.00,,OVC002,0.00,VWS V14.00,2013-12-22 17:56:00,
2013-12-22 12:57:00,27.9,26.9,29.81,NNE,25,2.0,9.0,96,0.00,,OVC002,0.00,VWS V14.00,2013-12-22 17:57:00,
2013-12-22 12:58:00,27.9,26.9,29.81,North,355,2.0,9.0,96,0.00,,OVC002,0.00,VWS V14.00,2013-12-22 17:58:00,
2013-12-22 12:59:00,27.9,26.9,29.82,NE,40,2.0,9.0,96,0.00,,OVC002,0.00,VWS V14.00,2013-12-22 17:59:00,
2013-12-22 13:00:00,27.9,26.9,29.84,NE,40,4.0,9.0,96,0.00,,OVC002,0.00,VWS V14.00,2013-12-22 18:00:00,
2013-12-22 13:01:00,27.9,26.9,29.84,NE,44,0.0,2.0,96,0.00,,OVC002,0.00,VWS V14.00,2013-12-22 18:01:00,
2013-12-22 13:02:00,28.0,27.0,29.84,NE,49,2.0,3.0,96,0.00,,OVC002,0.00,VWS V14.00,2013-12-22 18:02:00,
2013-12-22 13:03:00,28.0,27.0,29.83,NE,41,5.0,7.0,96,0.00,,OVC002,0.00,VWS V14.00,2013-12-22 18:03:00,
2013-12-22 13:04:00,27.9,26.9,29.83,NE,50,5.0,7.0,96,0.00,,OVC002,0.00,VWS V14.00,2013-12-22 18:04:00,
2013-12-22 13:05:00,27.9,26.9,29.84,NNE,13,3.0,7.0,96,0.00,,OVC002,0.00,VWS V14.00,2013-12-22 18:05:00,
2013-12-22 13:06:00,27.9,26.9,29.85,NNW,330,4.0,7.0,96,0.00,,OVC002,0.00,VWS V14.00,2013-12-22 18:06:00,
2013-12-22 13:07:00,28.0,27.0,29.85,NNE,21,1.0,7.0,96,0.00,,OVC002,0.00,VWS V14.00,2013-12-22 18:07:00,
2013-12-22 13:08:00,28.0,27.0,29.85,North,5,2.0,7.0,96,0.00,,OVC002,0.00,VWS V14.00,2013-12-22 18:08:00,
2013-12-22 13:09:00,28.0,27.0,29.85,NNE,30,4.0,7.0,96,0.00,,OVC002,0.00,VWS V14.00,2013-12-22 18:09:00,
2013-12-22 13:10:00,28.0,27.0,29.84,NE,39,3.0,7.0,96,0.00,,OVC002,0.00,VWS V14.00,2013-12-22 18:10:00,
2013-12-22 13:11:00,28.0,27.0,29.85,ENE,57,3.0,5.0,96,0.00,,OVC002,0.00,VWS V14.00,2013-12-22 18:11:00,
2013-12-22 13:12:00,28.0,27.0,29.84,NE,39,3.0,5.0,96,0.00,,OVC002,0.00,VWS V14.00,2013-12-22 18:12:00,
2013-12-22 13:13:00,28.0,27.0,29.85,NE,44,1.0,5.0,96,0.00,,OVC002,0.00,VWS V14.00,2013-12-22 18:13:00,
2013-12-22 13:14:00,28.0,27.0,29.85,NE,44,0.0,5.0,96,0.00,,OVC002,0.00,VWS V14.00,2013-12-22 18:14:00,
2013-12-22 13:15:00,28.0,27.0,29.86,NE,37,4.0,5.0,96,0.00,,OVC002,0.00,VWS V14.00,2013-12-22 18:15:00,
2013-12-22 13:16:00,28.0,27.0,29.86,ENE,57,4.0,5.0,96,0.00,,OVC002,0.00,VWS V14.00,2013-12-22 18:16:00,
2013-12-22 13:17:00,28.1,27.1,29.86,NE,36,2.0,5.0,96,0.00,,OVC002,0.00,VWS V14.00,2013-12-22 18:17:00,
2013-12-22 13:18:00,28.1,27.1,29.86,NNE,24,3.0,5.0,96,0.00,,OVC002,0.00,VWS V14.00,2013-12-22 18:18:00,
2013-12-22 13:19:00,28.1,27.1,29.86,NE,34,2.0,5.0,96,0.00,,OVC002,0.00,VWS V14.00,2013-12-22 18:19:00,
2013-12-22 13:20:00,28.1,27.1,29.86,NE,48,3.0,6.0,96,0.00,,OVC002,0.00,VWS V14.00,2013-12-22 18:20:00,
2013-12-22 13:21:00,28.1,27.1,29.87,NNE,21,3.0,6.0,96,0.00,,OVC002,0.00,VWS V14.00,2013-12-22 18:21:00,
2013-12-22 13:22:00,28.1,27.1,29.86,ENE,69,2.0,6.0,96,0.00,,OVC002,0.00,VWS V14.00,2013-12-22 18:22:00,
2013-12-22 13:23:00,28.1,27.1,29.85,ENE,69,0.0,6.0,96,0.00,,OVC002,0.00,VWS V14.00,2013-12-22 18:23:00,
2013-12-22 13:24:00,28.1,27.1,29.85,NE,37,2.0,6.0,96,0.00,,OVC002,0.00,VWS V14.00,2013-12-22 18:24:00,
2013-12-22 13:25:00,28.1,27.1,29.84,NE,47,2.0,6.0,96,0.00,,OVC002,0.00,VWS V14.00,2013-12-22 18:25:00,
2013-12-22 13:26:00,28.1,27.1,29.83,NE,44,0.0,6.0,96,0.00,,OVC002,0.00,VWS V14.00,2013-12-22 18:26:00,
2013-12-22 13:27:00,28.1,27.1,29.84,NE,44,1.0,6.0,96,0.00,,OVC002,0.00,VWS V14.00,2013-12-22 18:27:00,
2013-12-22 13:28:00,28.2,27.2,29.81,NE,51,0.0,6.0,96,0.00,,OVC002,0.00,VWS V14.00,2013-12-22 18:28:00,
2013-12-22 13:29:00,28.2,27.2,29.82,NE,51,0.0,6.0,96,0.00,,OVC002,0.00,VWS V14.00,2013-12-22 18:29:00,
2013-12-22 13:30:00,28.2,27.2,29.82,North,5,0.0,6.0,96,0.00,,OVC002,0.00,VWS V14.00,2013-12-22 18:30:00,
2013-12-22 13:31:00,28.2,27.2,29.84,NNW,338,3.0,4.0,96,0.00,,OVC002,0.00,VWS V14.00,2013-12-22 18:31:00,
2013-12-22 13:32:00,28.2,27.2,29.84,NNW,348,1.0,4.0,96,0.00,,OVC002,0.00,VWS V14.00,2013-12-22 18:32:00,
2013-12-22 13:33:00,28.3,27.3,29.83,NNW,348,0.0,4.0,96,0.00,,OVC002,0.00,VWS V14.00,2013-12-22 18:33:00,
2013-12-22 13:34:00,28.3,27.3,29.82,NNW,348,0.0,4.0,96,0.00,,OVC002,0.00,VWS V14.00,2013-12-22 18:34:00,
2013-12-22 13:35:00,28.3,27.3,29.82,NNW,348,0.0,4.0,96,0.00,,OVC002,0.00,VWS V14.00,2013-12-22 18:35:00,
2013-12-22 13:36:00,28.3,27.3,29.82,North,351,0.0,4.0,96,0.00,,OVC002,0.00,VWS V14.00,2013-12-22 18:36:00,
2013-12-22 13:37:00,28.3,27.3,29.81,North,355,0.0,4.0,96,0.00,,OVC002,0.00,VWS V14.00,2013-12-22 18:37:00,
2013-12-22 13:38:00,28.3,27.3,29.80,North,355,0.0,4.0,96,0.00,,OVC002,0.00,VWS V14.00,2013-12-22 18:38:00,
2013-12-22 13:39:00,28.4,27.4,29.81,North,355,0.0,4.0,96,0.00,,OVC002,0.00,VWS V14.00,2013-12-22 18:39:00,
2013-12-22 13:40:00,28.4,27.4,29.83,NNW,334,4.0,4.0,96,0.00,,OVC002,0.00,VWS V14.00,2013-12-22 18:40:00,
2013-12-22 13:41:00,28.4,27.4,29.82,NNW,335,2.0,4.0,96,0.00,,OVC002,0.00,VWS V14.00,2013-12-22 18:41:00,
2013-12-22 13:42:00,28.4,27.4,29.83,NNW,335,3.0,4.0,96,0.00,,OVC002,0.00,VWS V14.00,2013-12-22 18:42:00,
2013-12-22 13:43:00,28.4,27.4,29.83,NNW,335,3.0,4.0,96,0.00,,OVC002,0.00,VWS V14.00,2013-12-22 18:43:00,
2013-12-22 13:44:00,28.4,27.4,29.83,NNW,335,4.0,5.0,96,0.00,,OVC002,0.00,VWS V14.00,2013-12-22 18:44:00,
2013-12-22 13:45:00,28.4,27.4,29.83,NNW,334,0.0,5.0,96,0.00,,OVC002,0.00,VWS V14.00,2013-12-22 18:45:00,
2013-12-22 13:46:00,28.4,27.4,29.81,NNW,335,0.0,5.0,96,0.00,,OVC002,0.00,VWS V14.00,2013-12-22 18:46:00,
2013-12-22 13:47:00,28.4,27.4,29.81,NNW,335,0.0,5.0,96,0.00,,OVC002,0.00,VWS V14.00,2013-12-22 18:47:00,
2013-12-22 13:48:00,28.4,27.4,29.83,NNW,335,2.0,5.0,96,0.00,,OVC002,0.00,VWS V14.00,2013-12-22 18:48:00,
2013-12-22 13:49:00,28.4,27.4,29.82,NNW,335,1.0,5.0,96,0.00,,OVC002,0.00,VWS V14.00,2013-12-22 18:49:00,
2013-12-22 13:50:00,28.4,27.4,29.82,NNW,334,0.0,5.0,96,0.00,,OVC002,0.00,VWS V14.00,2013-12-22 18:50:00,
2013-12-22 13:51:00,28.4,27.4,29.82,NNW,335,0.0,0.0,96,0.00,,OVC002,0.00,VWS V14.00,2013-12-22 18:51:00,
2013-12-22 13:52:00,28.5,27.5,29.82,NNW,334,2.0,2.0,96,0.00,,OVC002,0.00,VWS V14.00,2013-12-22 18:52:00,
2013-12-22 13:53:00,28.5,27.5,29.83,NNW,335,3.0,3.0,96,0.00,,OVC002,0.00,VWS V14.00,2013-12-22 18:53:00,
2013-12-22 13:54:00,28.5,27.5,29.83,NNW,335,3.0,3.0,96,0.00,,OVC002,0.00,VWS V14.00,2013-12-22 18:54:00,
2013-12-22 13:55:00,28.5,27.5,29.83,NNW,335,2.0,3.0,96,0.00,,OVC002,0.00,VWS V14.00,2013-12-22 18:55:00,
2013-12-22 13:56:00,28.5,27.5,29.83,NNW,335,2.0,3.0,96,0.00,,OVC002,0.00,VWS V14.00,2013-12-22 18:56:00,
2013-12-22 13:57:00,28.4,27.4,29.83,NNW,334,0.0,3.0,96,0.00,,OVC002,0.00,VWS V14.00,2013-12-22 18:57:00,
2013-12-22 13:58:00,28.5,27.5,29.83,NNW,335,0.0,3.0,96,0.00,,OVC002,0.00,VWS V14.00,2013-12-22 18:58:00,
2013-12-22 13:59:00,28.5,27.5,29.83,NNW,335,0.0,3.0,96,0.00,,OVC002,0.00,VWS V14.00,2013-12-22 18:59:00,
2013-12-22 14:00:00,28.5,27.5,29.83,NNW,334,2.0,3.0,96,0.00,,OVC002,0.00,VWS V14.00,2013-12-22 19:00:00,
2013-12-22 14:01:00,28.5,27.5,29.84,NNW,335,0.0,3.0,96,0.00,,OVC002,0.00,VWS V14.00,2013-12-22 19:01:00,
2013-12-22 14:02:00,28.5,27.5,29.83,NNW,334,0.0,3.0,96,0.00,,OVC002,0.00,VWS V14.00,2013-12-22 19:02:00,
2013-12-22 14:03:00,28.5,27.5,29.82,NNW,335,0.0,3.0,96,0.00,,OVC002,0.00,VWS V14.00,2013-12-22 19:03:00,
2013-12-22 14:04:00,28.6,27.6,29.83,NNW,334,0.0,3.0,96,0.00,,OVC002,0.00,VWS V14.00,2013-12-22 19:04:00,
2013-12-22 14:05:00,28.6,27.6,29.83,NNW,335,0.0,3.0,96,0.00,,OVC002,0.00,VWS V14.00,2013-12-22 19:05:00,
2013-12-22 14:06:00,28.6,27.6,29.83,NNW,335,0.0,3.0,96,0.00,,OVC002,0.00,VWS V14.00,2013-12-22 19:06:00,
2013-12-22 14:07:00,28.6,27.6,29.82,NNW,335,0.0,3.0,96,0.00,,OVC002,0.00,VWS V14.00,2013-12-22 19:07:00,
2013-12-22 14:08:00,28.6,27.6,29.83,NNW,335,0.0,3.0,96,0.00,,OVC002,0.00,VWS V14.00,2013-12-22 19:08:00,
2013-12-22 14:09:00,28.6,27.6,29.81,NNW,334,0.0,3.0,96,0.00,,OVC002,0.00,VWS V14.00,2013-12-22 19:09:00,
2013-12-22 14:10:00,28.7,27.7,29.81,NNW,335,0.0,3.0,96,0.00,,OVC002,0.00,VWS V14.00,2013-12-22 19:10:00,
2013-12-22 14:11:00,28.7,27.7,29.81,NNW,335,0.0,0.0,96,0.00,,OVC002,0.00,VWS V14.00,2013-12-22 19:11:00,
2013-12-22 14:12:00,28.7,27.7,29.81,NNW,335,0.0,0.0,96,0.00,,OVC002,0.00,VWS V14.00,2013-12-22 19:12:00,
2013-12-22 14:13:00,28.7,27.7,29.81,NNW,335,0.0,0.0,96,0.00,,OVC002,0.00,VWS V14.00,2013-12-22 19:13:00,
2013-12-22 14:14:00,28.8,27.8,29.82,NNW,335,0.0,0.0,96,0.00,,OVC002,0.00,VWS V14.00,2013-12-22 19:14:00,
2013-12-22 14:15:00,28.8,27.8,29.82,NNW,335,0.0,0.0,96,0.00,,OVC002,0.00,VWS V14.00,2013-12-22 19:15:00,
2013-12-22 14:16:00,28.8,27.8,29.82,NNW,334,0.0,0.0,96,0.00,,OVC002,0.00,VWS V14.00,2013-12-22 19:16:00,
2013-12-22 14:17:00,28.8,27.8,29.82,NNW,334,0.0,0.0,96,0.00,,OVC002,0.00,VWS V14.00,2013-12-22 19:17:00,
2013-12-22 14:18:00,28.8,27.8,29.81,NNW,335,0.0,0.0,96,0.00,,OVC002,0.00,VWS V14.00,2013-12-22 19:18:00,
2013-12-22 14:19:00,28.8,27.8,29.81,NNW,335,0.0,0.0,96,0.00,,OVC002,0.00,VWS V14.00,2013-12-22 19:19:00,
2013-12-22 14:20:00,28.8,27.8,29.82,NNW,335,0.0,0.0,96,0.00,,OVC002,0.00,VWS V14.00,2013-12-22 19:20:00,
2013-12-22 14:21:00,28.8,27.8,29.82,NNW,334,0.0,0.0,96,0.00,,OVC002,0.00,VWS V14.00,2013-12-22 19:21:00,
2013-12-22 14:22:00,28.8,27.8,29.83,NNW,335,0.0,0.0,96,0.00,,OVC002,0.00,VWS V14.00,2013-12-22 19:22:00,
2013-12-22 14:23:00,28.8,27.8,29.83,NNW,334,1.0,2.0,96,0.00,,OVC002,0.00,VWS V14.00,2013-12-22 19:23:00,
2013-12-22 14:24:00,28.8,27.8,29.83,NNW,334,0.0,2.0,96,0.00,,OVC002,0.00,VWS V14.00,2013-12-22 19:24:00,
2013-12-22 14:25:00,28.8,27.8,29.83,NNW,334,0.0,2.0,96,0.00,,OVC002,0.00,VWS V14.00,2013-12-22 19:25:00,
2013-12-22 14:26:00,28.8,27.8,29.83,NNW,334,0.0,2.0,96,0.00,,OVC002,0.00,VWS V14.00,2013-12-22 19:26:00,
2013-12-22 14:27:00,28.8,27.8,29.84,NNW,334,0.0,2.0,96,0.00,,OVC002,0.00,VWS V14.00,2013-12-22 19:27:00,
2013-12-22 14:28:00,28.8,27.8,29.84,NNW,334,0.0,2.0,96,0.00,,OVC002,0.00,VWS V14.00,2013-12-22 19:28:00,
2013-12-22 14:29:00,28.9,27.9,29.83,NNW,334,0.0,2.0,96,0.00,,OVC002,0.00,VWS V14.00,2013-12-22 19:29:00,
2013-12-22 14:30:00,28.9,27.9,29.83,NNW,335,0.0,2.0,96,0.00,,OVC002,0.00,VWS V14.00,2013-12-22 19:30:00,
2013-12-22 14:31:00,28.9,27.9,29.83,NNW,335,0.0,0.0,96,0.00,,OVC002,0.00,VWS V14.00,2013-12-22 19:31:00,
2013-12-22 14:32:00,29.0,28.0,29.84,NNW,335,0.0,0.0,96,0.00,,OVC002,0.00,VWS V14.00,2013-12-22 19:32:00,
2013-12-22 14:33:00,29.0,28.0,29.84,NNW,334,0.0,0.0,96,0.00,,OVC002,0.00,VWS V14.00,2013-12-22 19:33:00,
2013-12-22 14:34:00,29.0,28.0,29.84,NNW,335,0.0,0.0,96,0.00,,OVC002,0.00,VWS V14.00,2013-12-22 19:34:00,
2013-12-22 14:35:00,29.0,28.0,29.84,NNW,334,0.0,0.0,96,0.00,,OVC002,0.00,VWS V14.00,2013-12-22 19:35:00,
2013-12-22 14:36:00,29.0,28.0,29.83,NNW,335,0.0,0.0,96,0.00,,OVC002,0.00,VWS V14.00,2013-12-22 19:36:00,
2013-12-22 14:37:00,29.0,28.0,29.83,NNW,335,0.0,0.0,96,0.00,,OVC002,0.00,VWS V14.00,2013-12-22 19:37:00,
2013-12-22 14:38:00,29.1,28.1,29.83,NNW,335,0.0,0.0,96,0.00,,OVC002,0.00,VWS V14.00,2013-12-22 19:38:00,
2013-12-22 14:39:00,29.1,28.1,29.82,NNW,335,0.0,0.0,96,0.00,,OVC002,0.00,VWS V14.00,2013-12-22 19:39:00,
2013-12-22 14:40:00,29.1,28.1,29.84,NNW,334,1.0,1.0,96,0.00,,OVC002,0.00,VWS V14.00,2013-12-22 19:40:00,
2013-12-22 14:41:00,29.1,28.1,29.84,NNW,335,0.0,0.0,96,0.00,,OVC002,0.00,VWS V14.00,2013-12-22 19:41:00,
2013-12-22 14:42:00,29.2,28.2,29.83,ENE,74,0.0,0.0,96,0.00,,OVC002,0.00,VWS V14.00,2013-12-22 19:42:00,
2013-12-22 14:43:00,29.2,28.2,29.83,ENE,74,0.0,0.0,96,0.00,,OVC002,0.00,VWS V14.00,2013-12-22 19:43:00,
2013-12-22 14:44:00,29.2,28.2,29.83,NE,55,0.0,0.0,96,0.00,,OVC002,0.00,VWS V14.00,2013-12-22 19:44:00,
2013-12-22 14:45:00,29.2,28.2,29.83,NE,55,0.0,0.0,96,0.00,,OVC002,0.00,VWS V14.00,2013-12-22 19:45:00,
2013-12-22 14:46:00,29.2,28.2,29.83,NE,55,0.0,0.0,96,0.00,,OVC002,0.00,VWS V14.00,2013-12-22 19:46:00,
2013-12-22 14:47:00,29.2,28.2,29.83,NE,55,0.0,0.0,96,0.00,,OVC002,0.00,VWS V14.00,2013-12-22 19:47:00,
2013-12-22 14:48:00,29.3,28.3,29.83,NE,55,0.0,0.0,96,0.00,,OVC002,0.00,VWS V14.00,2013-12-22 19:48:00,
2013-12-22 14:49:00,29.3,28.3,29.82,NE,55,0.0,0.0,96,0.00,,OVC002,0.00,VWS V14.00,2013-12-22 19:49:00,
2013-12-22 14:50:00,29.3,28.3,29.82,NE,55,0.0,0.0,96,0.00,,OVC002,0.00,VWS V14.00,2013-12-22 19:50:00,
2013-12-22 14:51:00,29.3,28.3,29.82,NE,55,0.0,0.0,96,0.00,,OVC002,0.00,VWS V14.00,2013-12-22 19:51:00,
2013-12-22 14:52:00,29.3,28.3,29.83,NE,55,0.0,0.0,96,0.00,,OVC002,0.00,VWS V14.00,2013-12-22 19:52:00,
2013-12-22 14:53:00,29.3,28.3,29.83,NE,55,0.0,0.0,96,0.00,,OVC002,0.00,VWS V14.00,2013-12-22 19:53:00,
2013-12-22 14:54:00,29.3,28.3,29.83,NE,55,0.0,0.0,96,0.00,,OVC002,0.00,VWS V14.00,2013-12-22 19:54:00,
2013-12-22 14:55:00,29.3,28.3,29.83,NE,55,0.0,0.0,96,0.00,,OVC002,0.00,VWS V14.00,2013-12-22 19:55:00,
2013-12-22 14:56:00,29.3,28.3,29.84,NE,55,0.0,0.0,96,0.00,,OVC002,0.00,VWS V14.00,2013-12-22 19:56:00,
2013-12-22 14:57:00,29.3,28.3,29.84,NE,55,0.0,0.0,96,0.00,,OVC002,0.00,VWS V14.00,2013-12-22 19:57:00,
2013-12-22 14:58:00,29.3,28.3,29.84,NE,55,0.0,0.0,96,0.00,,OVC002,0.00,VWS V14.00,2013-12-22 19:58:00,
2013-12-22 14:59:00,29.3,28.3,29.83,NE,55,0.0,0.0,96,0.00,,OVC002,0.00,VWS V14.00,2013-12-22 19:59:00,
2013-12-22 15:00:00,29.4,28.4,29.83,NE,55,0.0,0.0,96,0.00,,OVC002,0.00,VWS V14.00,2013-12-22 20:00:00,
2013-12-22 15:01:00,29.4,28.4,29.83,NE,55,0.0,0.0,96,0.00,,OVC002,0.00,VWS V14.00,2013-12-22 20:01:00,
2013-12-22 15:02:00,29.4,28.4,29.83,NE,55,0.0,0.0,96,0.00,,OVC002,0.00,VWS V14.00,2013-12-22 20:02:00,
2013-12-22 15:03:00,29.5,28.5,29.82,NE,55,0.0,0.0,96,0.00,,OVC002,0.00,VWS V14.00,2013-12-22 20:03:00,
2013-12-22 15:04:00,29.5,28.5,29.82,NE,55,0.0,0.0,96,0.00,,OVC002,0.00,VWS V14.00,2013-12-22 20:04:00,
2013-12-22 15:05:00,29.5,28.5,29.83,NE,55,0.0,0.0,96,0.00,,OVC002,0.00,VWS V14.00,2013-12-22 20:05:00,
2013-12-22 15:06:00,29.5,28.5,29.83,NE,55,0.0,0.0,96,0.00,,OVC002,0.00,VWS V14.00,2013-12-22 20:06:00,
2013-12-22 15:07:00,29.5,28.5,29.83,NE,55,0.0,0.0,96,0.00,,OVC002,0.00,VWS V14.00,2013-12-22 20:07:00,
2013-12-22 15:08:00,29.5,28.5,29.83,NE,55,0.0,0.0,96,0.00,,OVC002,0.00,VWS V14.00,2013-12-22 20:08:00,
2013-12-22 15:09:00,29.5,28.5,29.83,NE,55,0.0,0.0,96,0.00,,OVC002,0.00,VWS V14.00,2013-12-22 20:09:00,
2013-12-22 15:10:00,29.4,28.4,29.83,NE,55,0.0,0.0,96,0.00,,OVC002,0.00,VWS V14.00,2013-12-22 20:10:00,
2013-12-22 15:11:00,29.4,28.4,29.83,NE,55,0.0,0.0,96,0.00,,OVC002,0.00,VWS V14.00,2013-12-22 20:11:00,
2013-12-22 15:12:00,29.5,28.5,29.83,NE,55,0.0,0.0,96,0.00,,OVC002,0.00,VWS V14.00,2013-12-22 20:12:00,
2013-12-22 15:13:00,29.5,28.5,29.83,NE,55,0.0,0.0,96,0.00,,OVC002,0.00,VWS V14.00,2013-12-22 20:13:00,
2013-12-22 15:14:00,29.5,28.5,29.83,NE,55,0.0,0.0,96,0.00,,OVC002,0.00,VWS V14.00,2013-12-22 20:14:00,
2013-12-22 15:15:00,29.5,28.5,29.83,NE,55,0.0,0.0,96,0.00,,OVC002,0.00,VWS V14.00,2013-12-22 20:15:00,
2013-12-22 15:16:00,29.4,28.4,29.83,NE,55,0.0,0.0,96,0.00,,OVC002,0.00,VWS V14.00,2013-12-22 20:16:00,
2013-12-22 15:17:00,29.5,28.5,29.83,NE,55,0.0,0.0,96,0.00,,OVC002,0.00,VWS V14.00,2013-12-22 20:17:00,
2013-12-22 15:18:00,29.5,28.5,29.83,NE,55,0.0,0.0,96,0.00,,OVC002,0.00,VWS V14.00,2013-12-22 20:18:00,
2013-12-22 15:19:00,29.5,28.5,29.84,NE,55,0.0,0.0,96,0.00,,OVC002,0.00,VWS V14.00,2013-12-22 20:19:00,
2013-12-22 15:20:00,29.4,28.4,29.84,NE,55,0.0,0.0,96,0.00,,OVC002,0.00,VWS V14.00,2013-12-22 20:20:00,
2013-12-22 15:21:00,29.4,28.4,29.83,NE,55,0.0,0.0,96,0.00,,OVC002,0.00,VWS V14.00,2013-12-22 20:21:00,
2013-12-22 15:22:00,29.4,28.4,29.83,NE,55,0.0,0.0,96,0.00,,OVC002,0.00,VWS V14.00,2013-12-22 20:22:00,
2013-12-22 15:23:00,29.5,28.5,29.83,NE,55,0.0,0.0,96,0.00,,OVC002,0.00,VWS V14.00,2013-12-22 20:23:00,
2013-12-22 15:24:00,29.5,28.5,29.83,NE,55,0.0,0.0,96,0.00,,OVC002,0.00,VWS V14.00,2013-12-22 20:24:00,
2013-12-22 15:25:00,29.5,28.5,29.83,NE,55,0.0,0.0,96,0.00,,OVC002,0.00,VWS V14.00,2013-12-22 20:25:00,
2013-12-22 15:26:00,29.5,28.5,29.83,NE,55,0.0,0.0,96,0.00,,OVC002,0.00,VWS V14.00,2013-12-22 20:26:00,
2013-12-22 15:27:00,29.5,28.5,29.83,NE,55,0.0,0.0,96,0.00,,OVC002,0.00,VWS V14.00,2013-12-22 20:27:00,
2013-12-22 15:28:00,29.6,28.6,29.83,NE,55,0.0,0.0,96,0.00,,OVC002,0.00,VWS V14.00,2013-12-22 20:28:00,
2013-12-22 15:29:00,29.6,28.6,29.83,NE,55,0.0,0.0,96,0.00,,OVC002,0.00,VWS V14.00,2013-12-22 20:29:00,
2013-12-22 15:30:00,29.6,28.6,29.83,NE,55,0.0,0.0,96,0.00,,OVC002,0.00,VWS V14.00,2013-12-22 20:30:00,
2013-12-22 15:31:00,29.6,28.6,29.83,NE,55,0.0,0.0,96,0.00,,OVC002,0.00,VWS V14.00,2013-12-22 20:31:00,
2013-12-22 15:32:00,29.6,28.6,29.83,NE,55,0.0,0.0,96,0.00,,OVC002,0.00,VWS V14.00,2013-12-22 20:32:00,
2013-12-22 15:33:00,29.7,29.0,29.83,NE,55,0.0,0.0,97,0.00,,OVC002,0.00,VWS V14.00,2013-12-22 20:33:00,
2013-12-22 15:34:00,29.7,29.0,29.83,NE,55,0.0,0.0,97,0.00,,OVC002,0.00,VWS V14.00,2013-12-22 20:34:00,
2013-12-22 15:35:00,29.7,29.0,29.83,NE,55,0.0,0.0,97,0.00,,OVC002,0.00,VWS V14.00,2013-12-22 20:35:00,
2013-12-22 15:36:00,29.7,29.0,29.83,NE,55,0.0,0.0,97,0.00,,OVC002,0.00,VWS V14.00,2013-12-22 20:36:00,
2013-12-22 15:37:00,29.7,29.0,29.83,NE,55,0.0,0.0,97,0.00,,OVC002,0.00,VWS V14.00,2013-12-22 20:37:00,
2013-12-22 15:38:00,29.8,29.0,29.83,NE,55,0.0,0.0,97,0.00,,OVC002,0.00,VWS V14.00,2013-12-22 20:38:00,
2013-12-22 15:39:00,29.8,29.0,29.83,NE,55,0.0,0.0,97,0.00,,OVC002,0.00,VWS V14.00,2013-12-22 20:39:00,
2013-12-22 15:40:00,29.8,29.0,29.83,NE,55,0.0,0.0,97,0.00,,OVC002,0.00,VWS V14.00,2013-12-22 20:40:00,
2013-12-22 15:41:00,29.9,29.1,29.83,NE,55,0.0,0.0,97,0.00,,OVC002,0.00,VWS V14.00,2013-12-22 20:41:00,
2013-12-22 15:42:00,29.9,29.1,29.83,NE,55,0.0,0.0,97,0.00,,OVC002,0.00,VWS V14.00,2013-12-22 20:42:00,
2013-12-22 15:43:00,29.9,29.1,29.84,NE,55,0.0,0.0,97,0.00,,OVC002,0.00,VWS V14.00,2013-12-22 20:43:00,
2013-12-22 15:44:00,29.9,29.1,29.83,NE,55,0.0,0.0,97,0.00,,OVC002,0.00,VWS V14.00,2013-12-22 20:44:00,
2013-12-22 15:45:00,29.9,28.9,29.83,NE,55,0.0,0.0,96,0.00,,OVC002,0.00,VWS V14.00,2013-12-22 20:45:00,
2013-12-22 15:46:00,29.9,28.9,29.83,NE,55,0.0,0.0,96,0.00,,OVC002,0.00,VWS V14.00,2013-12-22 20:46:00,
2013-12-22 15:47:00,30.0,29.0,29.83,NE,55,0.0,0.0,96,0.00,,OVC002,0.00,VWS V14.00,2013-12-22 20:47:00,
2013-12-22 15:48:00,30.0,29.0,29.83,NE,55,0.0,0.0,96,0.00,,OVC002,0.00,VWS V14.00,2013-12-22 20:48:00,
2013-12-22 15:49:00,30.0,29.0,29.84,NE,55,0.0,0.0,96,0.00,,OVC002,0.00,VWS V14.00,2013-12-22 20:49:00,
2013-12-22 15:50:00,30.1,29.1,29.83,NE,55,0.0,0.0,96,0.00,,OVC002,0.00,VWS V14.00,2013-12-22 20:50:00,
2013-12-22 15:51:00,30.1,29.1,29.83,NE,55,0.0,0.0,96,0.00,,OVC002,0.00,VWS V14.00,2013-12-22 20:51:00,
2013-12-22 15:52:00,30.1,29.1,29.83,NE,55,0.0,0.0,96,0.00,,OVC002,0.00,VWS V14.00,2013-12-22 20:52:00,
2013-12-22 15:53:00,30.1,29.1,29.84,NE,55,0.0,0.0,96,0.00,,OVC002,0.00,VWS V14.00,2013-12-22 20:53:00,
2013-12-22 15:54:00,30.1,29.1,29.84,NE,55,0.0,0.0,96,0.00,,OVC002,0.00,VWS V14.00,2013-12-22 20:54:00,
2013-12-22 15:55:00,30.1,29.1,29.84,NE,55,0.0,0.0,96,0.00,,OVC002,0.00,VWS V14.00,2013-12-22 20:55:00,
2013-12-22 15:56:00,30.1,29.1,29.84,NE,55,0.0,0.0,96,0.00,,OVC002,0.00,VWS V14.00,2013-12-22 20:56:00,
2013-12-22 15:57:00,30.1,29.1,29.84,NE,55,0.0,0.0,96,0.00,,OVC002,0.00,VWS V14.00,2013-12-22 20:57:00,
2013-12-22 15:58:00,30.2,29.2,29.84,NE,55,0.0,0.0,96,0.00,,OVC002,0.00,VWS V14.00,2013-12-22 20:58:00,
2013-12-22 15:59:00,30.2,29.2,29.84,NE,55,0.0,0.0,96,0.00,,OVC002,0.00,VWS V14.00,2013-12-22 20:59:00,
2013-12-22 16:00:00,30.2,29.2,29.85,NE,55,0.0,0.0,96,0.00,,OVC002,0.00,VWS V14.00,2013-12-22 21:00:00,
2013-12-22 16:01:00,30.3,29.5,29.84,NE,55,0.0,0.0,97,0.00,,OVC002,0.00,VWS V14.00,2013-12-22 21:01:00,
2013-12-22 16:02:00,30.3,29.5,29.84,NE,55,0.0,0.0,97,0.00,,OVC002,0.00,VWS V14.00,2013-12-22 21:02:00,
2013-12-22 16:03:00,30.3,29.5,29.84,NE,55,0.0,0.0,97,0.00,,OVC002,0.00,VWS V14.00,2013-12-22 21:03:00,
2013-12-22 16:04:00,30.3,29.5,29.84,NE,55,0.0,0.0,97,0.00,,OVC002,0.00,VWS V14.00,2013-12-22 21:04:00,
2013-12-22 16:05:00,30.3,29.5,29.84,NE,55,0.0,0.0,97,0.00,,OVC002,0.00,VWS V14.00,2013-12-22 21:05:00,
2013-12-22 16:06:00,30.3,29.5,29.84,NE,55,0.0,0.0,97,0.00,,OVC002,0.00,VWS V14.00,2013-12-22 21:06:00,
2013-12-22 16:07:00,30.4,29.6,29.85,NE,55,0.0,0.0,97,0.00,,OVC002,0.00,VWS V14.00,2013-12-22 21:07:00,
2013-12-22 16:08:00,30.4,29.6,29.85,NE,55,0.0,0.0,97,0.00,,OVC002,0.00,VWS V14.00,2013-12-22 21:08:00,
2013-12-22 16:09:00,30.4,29.6,29.85,NE,55,0.0,0.0,97,0.00,,OVC002,0.00,VWS V14.00,2013-12-22 21:09:00,
2013-12-22 16:10:00,30.4,29.6,29.85,NE,55,0.0,0.0,97,0.00,,OVC002,0.00,VWS V14.00,2013-12-22 21:10:00,
2013-12-22 16:11:00,30.5,29.8,29.85,NE,55,0.0,0.0,97,0.00,,OVC002,0.00,VWS V14.00,2013-12-22 21:11:00,
2013-12-22 16:12:00,30.5,29.8,29.85,NE,55,0.0,0.0,97,0.00,,OVC002,0.00,VWS V14.00,2013-12-22 21:12:00,
2013-12-22 16:13:00,30.6,29.9,29.85,NE,55,0.0,0.0,97,0.00,,OVC002,0.00,VWS V14.00,2013-12-22 21:13:00,
2013-12-22 16:14:00,30.6,29.9,29.84,NE,55,0.0,0.0,97,0.00,,OVC002,0.00,VWS V14.00,2013-12-22 21:14:00,
2013-12-22 16:15:00,30.6,29.9,29.85,NE,55,0.0,0.0,97,0.00,,OVC002,0.00,VWS V14.00,2013-12-22 21:15:00,
2013-12-22 16:16:00,30.6,29.9,29.85,NE,55,0.0,0.0,97,0.00,,OVC002,0.00,VWS V14.00,2013-12-22 21:16:00,
2013-12-22 16:17:00,30.6,29.9,29.85,NE,55,0.0,0.0,97,0.00,,OVC002,0.00,VWS V14.00,2013-12-22 21:17:00,
2013-12-22 16:18:00,30.6,29.9,29.85,NE,55,0.0,0.0,97,0.00,,OVC002,0.00,VWS V14.00,2013-12-22 21:18:00,
2013-12-22 16:19:00,30.6,29.9,29.85,NE,55,0.0,0.0,97,0.00,,OVC002,0.00,VWS V14.00,2013-12-22 21:19:00,
2013-12-22 16:20:00,30.6,29.9,29.85,NE,55,0.0,0.0,97,0.00,,OVC002,0.00,VWS V14.00,2013-12-22 21:20:00,
2013-12-22 16:21:00,30.6,29.9,29.85,NE,55,0.0,0.0,97,0.00,,OVC002,0.00,VWS V14.00,2013-12-22 21:21:00,
2013-12-22 16:22:00,30.6,29.9,29.84,NE,55,0.0,0.0,97,0.00,,OVC002,0.00,VWS V14.00,2013-12-22 21:22:00,
2013-12-22 16:23:00,30.6,29.9,29.84,NE,55,0.0,0.0,97,0.00,,OVC002,0.00,VWS V14.00,2013-12-22 21:23:00,
2013-12-22 16:24:00,30.6,29.9,29.84,NE,55,0.0,0.0,97,0.00,,OVC002,0.00,VWS V14.00,2013-12-22 21:24:00,
2013-12-22 16:25:00,30.6,29.9,29.84,NE,55,0.0,0.0,97,0.00,,OVC002,0.00,VWS V14.00,2013-12-22 21:25:00,
2013-12-22 16:26:00,30.6,29.9,29.84,NE,55,0.0,0.0,97,0.00,,OVC002,0.00,VWS V14.00,2013-12-22 21:26:00,
2013-12-22 16:27:00,30.5,29.8,29.84,NE,55,0.0,0.0,97,0.00,,OVC002,0.00,VWS V14.00,2013-12-22 21:27:00,
2013-12-22 16:28:00,30.6,29.9,29.85,NE,55,0.0,0.0,97,0.00,,OVC002,0.00,VWS V14.00,2013-12-22 21:28:00,
2013-12-22 16:29:00,30.5,29.8,29.85,NE,55,0.0,0.0,97,0.00,,OVC002,0.00,VWS V14.00,2013-12-22 21:29:00,
2013-12-22 16:30:00,30.5,29.8,29.85,NE,55,0.0,0.0,97,0.00,,OVC002,0.00,VWS V14.00,2013-12-22 21:30:00,
2013-12-22 16:31:00,30.5,29.8,29.85,NE,55,0.0,0.0,97,0.00,,OVC002,0.00,VWS V14.00,2013-12-22 21:31:00,
2013-12-22 16:32:00,30.5,29.8,29.85,NE,55,0.0,0.0,97,0.00,,OVC002,0.00,VWS V14.00,2013-12-22 21:32:00,
2013-12-22 16:33:00,30.5,29.8,29.85,NE,55,0.0,0.0,97,0.00,,OVC002,0.00,VWS V14.00,2013-12-22 21:33:00,
2013-12-22 16:34:00,30.5,29.8,29.85,NE,55,0.0,0.0,97,0.00,,OVC002,0.00,VWS V14.00,2013-12-22 21:34:00,
2013-12-22 16:35:00,30.5,29.8,29.85,NE,55,0.0,0.0,97,0.00,,OVC002,0.00,VWS V14.00,2013-12-22 21:35:00,
2013-12-22 16:36:00,30.4,29.6,29.85,NE,55,0.0,0.0,97,0.00,,OVC002,0.00,VWS V14.00,2013-12-22 21:36:00,
2013-12-22 16:37:00,30.4,29.6,29.85,NE,55,0.0,0.0,97,0.00,,OVC002,0.00,VWS V14.00,2013-12-22 21:37:00,
2013-12-22 16:38:00,30.3,29.5,29.85,NE,55,0.0,0.0,97,0.00,,OVC002,0.00,VWS V14.00,2013-12-22 21:38:00,
2013-12-22 16:39:00,30.3,29.5,29.85,NE,55,0.0,0.0,97,0.00,,OVC002,0.00,VWS V14.00,2013-12-22 21:39:00,
2013-12-22 16:40:00,30.3,29.5,29.85,NE,55,0.0,0.0,97,0.00,,OVC002,0.00,VWS V14.00,2013-12-22 21:40:00,
2013-12-22 16:41:00,30.3,29.5,29.85,NE,55,0.0,0.0,97,0.00,,OVC002,0.00,VWS V14.00,2013-12-22 21:41:00,
2013-12-22 16:42:00,30.4,29.6,29.85,NE,55,0.0,0.0,97,0.00,,OVC002,0.00,VWS V14.00,2013-12-22 21:42:00,
2013-12-22 16:43:00,30.4,29.6,29.85,NE,55,0.0,0.0,97,0.00,,OVC002,0.00,VWS V14.00,2013-12-22 21:43:00,
2013-12-22 16:44:00,30.3,29.5,29.85,NE,55,0.0,0.0,97,0.00,,OVC002,0.00,VWS V14.00,2013-12-22 21:44:00,
2013-12-22 16:45:00,30.4,29.6,29.85,NE,55,0.0,0.0,97,0.00,,OVC002,0.00,VWS V14.00,2013-12-22 21:45:00,
2013-12-22 16:46:00,30.3,29.5,29.85,NE,55,0.0,0.0,97,0.00,,OVC002,0.00,VWS V14.00,2013-12-22 21:46:00,
2013-12-22 16:47:00,30.4,29.6,29.85,NE,55,0.0,0.0,97,0.00,,CLR,0.00,VWS V14.00,2013-12-22 21:47:00,
2013-12-22 16:48:00,30.4,29.6,29.85,NE,55,0.0,0.0,97,0.00,,CLR,0.00,VWS V14.00,2013-12-22 21:48:00,
2013-12-22 16:49:00,30.4,29.6,29.85,NE,55,0.0,0.0,97,0.00,,CLR,0.00,VWS V14.00,2013-12-22 21:49:00,
2013-12-22 16:50:00,30.4,29.6,29.85,NE,55,0.0,0.0,97,0.00,,CLR,0.00,VWS V14.00,2013-12-22 21:50:00,
2013-12-22 16:51:00,30.4,29.6,29.85,NE,55,0.0,0.0,97,0.00,,CLR,0.00,VWS V14.00,2013-12-22 21:51:00,
2013-12-22 16:52:00,30.4,29.6,29.85,NE,55,0.0,0.0,97,0.00,,CLR,0.00,VWS V14.00,2013-12-22 21:52:00,
2013-12-22 16:53:00,30.5,29.8,29.85,NE,55,0.0,0.0,97,0.00,,CLR,0.00,VWS V14.00,2013-12-22 21:53:00,
2013-12-22 16:54:00,30.5,29.8,29.85,NE,55,0.0,0.0,97,0.00,,CLR,0.00,VWS V14.00,2013-12-22 21:54:00,
2013-12-22 16:55:00,30.5,29.8,29.85,NE,55,0.0,0.0,97,0.00,,CLR,0.00,VWS V14.00,2013-12-22 21:55:00,
2013-12-22 16:56:00,30.5,29.8,29.85,NE,55,0.0,0.0,97,0.00,,CLR,0.00,VWS V14.00,2013-12-22 21:56:00,
2013-12-22 16:57:00,30.6,29.9,29.85,NE,55,0.0,0.0,97,0.00,,CLR,0.00,VWS V14.00,2013-12-22 21:57:00,
2013-12-22 16:58:00,30.6,29.9,29.85,NE,55,0.0,0.0,97,0.00,,CLR,0.00,VWS V14.00,2013-12-22 21:58:00,
2013-12-22 16:59:00,30.6,29.9,29.85,NE,55,0.0,0.0,97,0.00,,CLR,0.00,VWS V14.00,2013-12-22 21:59:00,
2013-12-22 17:00:00,30.6,29.9,29.85,NE,55,0.0,0.0,97,0.00,,CLR,0.00,VWS V14.00,2013-12-22 22:00:00,
2013-12-22 17:01:00,30.7,30.0,29.85,NE,55,0.0,0.0,97,0.00,,CLR,0.00,VWS V14.00,2013-12-22 22:01:00,
2013-12-22 17:02:00,30.7,30.0,29.85,NE,55,0.0,0.0,97,0.00,,CLR,0.00,VWS V14.00,2013-12-22 22:02:00,
2013-12-22 17:03:00,30.7,30.0,29.86,NE,55,0.0,0.0,97,0.00,,CLR,0.00,VWS V14.00,2013-12-22 22:03:00,
2013-12-22 17:04:00,30.7,30.0,29.86,NE,55,0.0,0.0,97,0.00,,CLR,0.00,VWS V14.00,2013-12-22 22:04:00,
2013-12-22 17:05:00,30.7,30.0,29.86,NE,55,0.0,0.0,97,0.00,,CLR,0.00,VWS V14.00,2013-12-22 22:05:00,
2013-12-22 17:06:00,30.7,30.0,29.85,NE,55,0.0,0.0,97,0.00,,CLR,0.00,VWS V14.00,2013-12-22 22:06:00,
2013-12-22 17:07:00,30.8,30.0,29.86,NE,55,0.0,0.0,97,0.00,,CLR,0.00,VWS V14.00,2013-12-22 22:07:00,
2013-12-22 17:08:00,30.8,30.0,29.86,NE,55,0.0,0.0,97,0.00,,CLR,0.00,VWS V14.00,2013-12-22 22:08:00,
2013-12-22 17:09:00,30.8,30.0,29.86,NE,55,0.0,0.0,97,0.00,,CLR,0.00,VWS V14.00,2013-12-22 22:09:00,
2013-12-22 17:10:00,30.9,30.1,29.86,NE,55,0.0,0.0,97,0.00,,CLR,0.00,VWS V14.00,2013-12-22 22:10:00,
2013-12-22 17:11:00,30.9,30.1,29.86,NE,55,0.0,0.0,97,0.00,,CLR,0.00,VWS V14.00,2013-12-22 22:11:00,
2013-12-22 17:12:00,30.9,30.1,29.86,NE,55,0.0,0.0,97,0.00,,CLR,0.00,VWS V14.00,2013-12-22 22:12:00,
2013-12-22 17:13:00,30.9,30.1,29.86,NE,55,0.0,0.0,97,0.00,,CLR,0.00,VWS V14.00,2013-12-22 22:13:00,
2013-12-22 17:14:00,30.9,30.1,29.86,NE,55,0.0,0.0,97,0.00,,CLR,0.00,VWS V14.00,2013-12-22 22:14:00,
2013-12-22 17:15:00,30.9,30.1,29.86,NE,55,0.0,0.0,97,0.00,,CLR,0.00,VWS V14.00,2013-12-22 22:15:00,
2013-12-22 17:16:00,31.0,30.2,29.86,NE,55,0.0,0.0,97,0.00,,CLR,0.00,VWS V14.00,2013-12-22 22:16:00,
2013-12-22 17:17:00,31.0,30.2,29.86,NE,55,0.0,0.0,97,0.00,,CLR,0.00,VWS V14.00,2013-12-22 22:17:00,
2013-12-22 17:18:00,31.0,30.2,29.86,NE,55,0.0,0.0,97,0.00,,CLR,0.00,VWS V14.00,2013-12-22 22:18:00,
2013-12-22 17:19:00,31.0,30.2,29.86,NE,55,0.0,0.0,97,0.00,,CLR,0.00,VWS V14.00,2013-12-22 22:19:00,
2013-12-22 17:20:00,31.0,30.2,29.86,NE,55,0.0,0.0,97,0.00,,CLR,0.00,VWS V14.00,2013-12-22 22:20:00,
2013-12-22 17:21:00,31.0,30.2,29.86,NE,55,0.0,0.0,97,0.00,,CLR,0.00,VWS V14.00,2013-12-22 22:21:00,
2013-12-22 17:22:00,31.0,30.2,29.86,NE,55,0.0,0.0,97,0.00,,CLR,0.00,VWS V14.00,2013-12-22 22:22:00,
2013-12-22 17:23:00,31.1,30.4,29.86,NE,55,0.0,0.0,97,0.00,,CLR,0.00,VWS V14.00,2013-12-22 22:23:00,
2013-12-22 17:24:00,31.1,30.4,29.86,NE,55,0.0,0.0,97,0.00,,CLR,0.00,VWS V14.00,2013-12-22 22:24:00,
2013-12-22 17:25:00,31.1,30.4,29.86,NE,55,0.0,0.0,97,0.00,,CLR,0.00,VWS V14.00,2013-12-22 22:25:00,
2013-12-22 17:26:00,31.1,30.4,29.86,NE,55,0.0,0.0,97,0.00,,CLR,0.00,VWS V14.00,2013-12-22 22:26:00,
2013-12-22 17:27:00,31.1,30.4,29.86,NE,55,0.0,0.0,97,0.00,,CLR,0.00,VWS V14.00,2013-12-22 22:27:00,
2013-12-22 17:28:00,31.1,30.4,29.86,NE,55,0.0,0.0,97,0.00,,CLR,0.00,VWS V14.00,2013-12-22 22:28:00,
2013-12-22 17:29:00,31.2,30.5,29.86,NE,55,0.0,0.0,97,0.00,,CLR,0.00,VWS V14.00,2013-12-22 22:29:00,
2013-12-22 17:30:00,31.2,30.5,29.86,NE,55,0.0,0.0,97,0.00,,CLR,0.00,VWS V14.00,2013-12-22 22:30:00,
2013-12-22 17:31:00,31.2,30.5,29.86,NE,55,0.0,0.0,97,0.00,,CLR,0.00,VWS V14.00,2013-12-22 22:31:00,
2013-12-22 17:32:00,31.2,30.5,29.87,NE,55,0.0,0.0,97,0.00,,CLR,0.00,VWS V14.00,2013-12-22 22:32:00,
2013-12-22 17:33:00,31.2,30.5,29.87,NE,55,0.0,0.0,97,0.00,,CLR,0.00,VWS V14.00,2013-12-22 22:33:00,
2013-12-22 17:34:00,31.2,30.5,29.87,NE,55,0.0,0.0,97,0.00,,CLR,0.00,VWS V14.00,2013-12-22 22:34:00,
2013-12-22 17:35:00,31.2,30.5,29.86,NE,55,0.0,0.0,97,0.00,,CLR,0.00,VWS V14.00,2013-12-22 22:35:00,
2013-12-22 17:36:00,31.1,30.4,29.86,NE,55,0.0,0.0,97,0.00,,CLR,0.00,VWS V14.00,2013-12-22 22:36:00,
2013-12-22 17:37:00,31.1,30.4,29.86,NE,55,0.0,0.0,97,0.00,,CLR,0.00,VWS V14.00,2013-12-22 22:37:00,
2013-12-22 17:38:00,31.1,30.4,29.86,NE,55,0.0,0.0,97,0.00,,CLR,0.00,VWS V14.00,2013-12-22 22:38:00,
2013-12-22 17:39:00,31.1,30.4,29.86,NE,55,0.0,0.0,97,0.00,,CLR,0.00,VWS V14.00,2013-12-22 22:39:00,
2013-12-22 17:40:00,31.1,30.4,29.86,NE,55,0.0,0.0,97,0.00,,CLR,0.00,VWS V14.00,2013-12-22 22:40:00,
2013-12-22 17:41:00,31.1,30.4,29.86,NE,55,0.0,0.0,97,0.00,,CLR,0.00,VWS V14.00,2013-12-22 22:41:00,
2013-12-22 17:42:00,31.1,30.4,29.87,NE,55,0.0,0.0,97,0.00,,CLR,0.00,VWS V14.00,2013-12-22 22:42:00,
2013-12-22 17:43:00,31.1,30.4,29.87,NE,55,0.0,0.0,97,0.00,,CLR,0.00,VWS V14.00,2013-12-22 22:43:00,
2013-12-22 17:44:00,31.1,30.4,29.87,NE,55,0.0,0.0,97,0.00,,CLR,0.00,VWS V14.00,2013-12-22 22:44:00,
2013-12-22 17:45:00,31.0,30.2,29.87,NE,55,0.0,0.0,97,0.00,,CLR,0.00,VWS V14.00,2013-12-22 22:45:00,
2013-12-22 17:46:00,31.0,30.2,29.87,NE,55,0.0,0.0,97,0.00,,CLR,0.00,VWS V14.00,2013-12-22 22:46:00,
2013-12-22 17:47:00,31.0,30.2,29.87,NE,55,0.0,0.0,97,0.00,,SCT065,0.00,VWS V14.00,2013-12-22 22:47:00,
2013-12-22 17:48:00,31.0,30.2,29.87,NE,55,0.0,0.0,97,0.00,,SCT065,0.00,VWS V14.00,2013-12-22 22:48:00,
2013-12-22 17:49:00,31.0,30.2,29.87,NE,55,0.0,0.0,97,0.00,,SCT065,0.00,VWS V14.00,2013-12-22 22:49:00,
2013-12-22 17:50:00,31.0,30.2,29.87,NE,55,0.0,0.0,97,0.00,,SCT065,0.00,VWS V14.00,2013-12-22 22:50:00,
2013-12-22 17:51:00,31.0,30.2,29.87,NE,55,0.0,0.0,97,0.00,,SCT065,0.00,VWS V14.00,2013-12-22 22:51:00,
2013-12-22 17:52:00,31.0,30.2,29.87,NE,55,0.0,0.0,97,0.00,,SCT065,0.00,VWS V14.00,2013-12-22 22:52:00,
2013-12-22 17:53:00,31.0,30.2,29.87,NE,55,0.0,0.0,97,0.00,,SCT065,0.00,VWS V14.00,2013-12-22 22:53:00,
2013-12-22 17:54:00,31.0,30.2,29.87,NE,55,0.0,0.0,97,0.00,,SCT065,0.00,VWS V14.00,2013-12-22 22:54:00,
2013-12-22 17:55:00,31.0,30.2,29.88,NE,55,0.0,0.0,97,0.00,,SCT065,0.00,VWS V14.00,2013-12-22 22:55:00,
2013-12-22 17:56:00,31.0,30.2,29.87,NE,55,0.0,0.0,97,0.00,,SCT065,0.00,VWS V14.00,2013-12-22 22:56:00,
2013-12-22 17:57:00,31.0,30.2,29.87,NE,55,0.0,0.0,97,0.00,,SCT065,0.00,VWS V14.00,2013-12-22 22:57:00,
2013-12-22 17:58:00,31.0,30.2,29.87,NE,55,0.0,0.0,97,0.00,,SCT065,0.00,VWS V14.00,2013-12-22 22:58:00,
2013-12-22 17:59:00,31.0,30.2,29.87,NE,55,0.0,0.0,97,0.00,,SCT065,0.00,VWS V14.00,2013-12-22 22:59:00,
2013-12-22 18:00:00,31.0,30.2,29.87,NE,55,0.0,0.0,97,0.00,,SCT065,0.00,VWS V14.00,2013-12-22 23:00:00,
2013-12-22 18:01:00,31.0,30.2,29.87,NE,55,0.0,0.0,97,0.00,,SCT065,0.00,VWS V14.00,2013-12-22 23:01:00,
2013-12-22 18:02:00,31.0,30.2,29.87,NE,55,0.0,0.0,97,0.00,,SCT065,0.00,VWS V14.00,2013-12-22 23:02:00,
2013-12-22 18:03:00,31.1,30.4,29.87,NE,55,0.0,0.0,97,0.00,,SCT065,0.00,VWS V14.00,2013-12-22 23:03:00,
2013-12-22 18:04:00,31.0,30.2,29.87,NE,55,0.0,0.0,97,0.00,,SCT065,0.00,VWS V14.00,2013-12-22 23:04:00,
2013-12-22 18:05:00,31.0,30.2,29.87,NE,55,0.0,0.0,97,0.00,,SCT065,0.00,VWS V14.00,2013-12-22 23:05:00,
2013-12-22 18:06:00,31.1,30.4,29.87,NE,55,0.0,0.0,97,0.00,,SCT065,0.00,VWS V14.00,2013-12-22 23:06:00,
2013-12-22 18:07:00,31.1,30.4,29.87,NE,55,0.0,0.0,97,0.00,,SCT065,0.00,VWS V14.00,2013-12-22 23:07:00,
2013-12-22 18:08:00,31.1,30.4,29.88,NE,55,0.0,0.0,97,0.00,,SCT065,0.00,VWS V14.00,2013-12-22 23:08:00,
2013-12-22 18:09:00,31.1,30.4,29.88,NE,55,0.0,0.0,97,0.00,,SCT065,0.00,VWS V14.00,2013-12-22 23:09:00,
2013-12-22 18:10:00,31.1,30.4,29.88,NE,55,0.0,0.0,97,0.00,,SCT065,0.00,VWS V14.00,2013-12-22 23:10:00,
2013-12-22 18:11:00,31.2,30.5,29.88,NE,55,0.0,0.0,97,0.00,,SCT065,0.00,VWS V14.00,2013-12-22 23:11:00,
2013-12-22 18:12:00,31.2,30.5,29.88,NE,55,0.0,0.0,97,0.00,,SCT065,0.00,VWS V14.00,2013-12-22 23:12:00,
2013-12-22 18:13:00,31.2,30.5,29.88,NE,55,0.0,0.0,97,0.00,,SCT065,0.00,VWS V14.00,2013-12-22 23:13:00,
2013-12-22 18:14:00,31.2,30.5,29.88,NE,55,0.0,0.0,97,0.00,,SCT065,0.00,VWS V14.00,2013-12-22 23:14:00,
2013-12-22 18:15:00,31.2,30.5,29.88,NE,55,0.0,0.0,97,0.00,,SCT065,0.00,VWS V14.00,2013-12-22 23:15:00,
2013-12-22 18:16:00,31.2,30.5,29.88,NE,55,0.0,0.0,97,0.00,,SCT065,0.00,VWS V14.00,2013-12-22 23:16:00,
2013-12-22 18:17:00,31.3,30.5,29.88,NE,55,0.0,0.0,97,0.00,,SCT065,0.00,VWS V14.00,2013-12-22 23:17:00,
2013-12-22 18:18:00,31.2,30.5,29.88,NE,55,0.0,0.0,97,0.00,,SCT065,0.00,VWS V14.00,2013-12-22 23:18:00,
2013-12-22 18:19:00,31.2,30.5,29.88,NE,55,0.0,0.0,97,0.00,,SCT065,0.00,VWS V14.00,2013-12-22 23:19:00,
2013-12-22 18:20:00,31.3,30.5,29.88,NE,55,0.0,0.0,97,0.00,,SCT065,0.00,VWS V14.00,2013-12-22 23:20:00,
2013-12-22 18:21:00,31.3,30.5,29.88,NE,55,0.0,0.0,97,0.00,,SCT065,0.00,VWS V14.00,2013-12-22 23:21:00,
2013-12-22 18:22:00,31.3,30.5,29.88,NE,55,0.0,0.0,97,0.00,,SCT065,0.00,VWS V14.00,2013-12-22 23:22:00,
2013-12-22 18:23:00,31.3,30.5,29.88,NE,55,0.0,0.0,97,0.00,,SCT065,0.00,VWS V14.00,2013-12-22 23:23:00,
2013-12-22 18:24:00,31.2,30.5,29.88,NE,55,0.0,0.0,97,0.00,,SCT065,0.00,VWS V14.00,2013-12-22 23:24:00,
2013-12-22 18:25:00,31.3,30.5,29.88,NE,55,0.0,0.0,97,0.00,,SCT065,0.00,VWS V14.00,2013-12-22 23:25:00,
2013-12-22 18:26:00,31.2,30.5,29.88,NE,55,0.0,0.0,97,0.00,,SCT065,0.00,VWS V14.00,2013-12-22 23:26:00,
2013-12-22 18:27:00,31.2,30.5,29.88,NE,55,0.0,0.0,97,0.00,,SCT065,0.00,VWS V14.00,2013-12-22 23:27:00,
2013-12-22 18:28:00,31.2,30.5,29.88,NE,55,0.0,0.0,97,0.00,,SCT065,0.00,VWS V14.00,2013-12-22 23:28:00,
2013-12-22 18:29:00,31.2,30.5,29.88,NE,55,0.0,0.0,97,0.00,,SCT065,0.00,VWS V14.00,2013-12-22 23:29:00,
2013-12-22 18:30:00,31.2,30.5,29.88,NE,55,0.0,0.0,97,0.00,,SCT065,0.00,VWS V14.00,2013-12-22 23:30:00,
2013-12-22 18:31:00,31.2,30.5,29.89,NE,55,0.0,0.0,97,0.00,,SCT065,0.00,VWS V14.00,2013-12-22 23:31:00,
2013-12-22 18:32:00,31.2,30.5,29.89,NE,55,0.0,0.0,97,0.00,,SCT065,0.00,VWS V14.00,2013-12-22 23:32:00,
2013-12-22 18:33:00,31.2,30.5,29.89,NE,38,0.0,0.0,97,0.00,,SCT065,0.00,VWS V14.00,2013-12-22 23:33:00,
2013-12-22 18:34:00,31.2,30.5,29.89,NE,37,0.0,0.0,97,0.00,,SCT065,0.00,VWS V14.00,2013-12-22 23:34:00,
2013-12-22 18:35:00,31.2,30.5,29.89,NE,37,0.0,0.0,97,0.00,,SCT065,0.00,VWS V14.00,2013-12-22 23:35:00,
2013-12-22 18:36:00,31.2,30.5,29.89,NE,38,0.0,0.0,97,0.00,,SCT065,0.00,VWS V14.00,2013-12-22 23:36:00,
2013-12-22 18:37:00,31.2,30.5,29.89,NE,38,0.0,0.0,97,0.00,,SCT065,0.00,VWS V14.00,2013-12-22 23:37:00,
2013-12-22 18:38:00,31.2,30.5,29.89,NE,38,1.0,1.0,97,0.00,,SCT065,0.00,VWS V14.00,2013-12-22 23:38:00,
2013-12-22 18:39:00,31.2,30.5,29.89,NE,37,0.0,2.0,97,0.00,,SCT065,0.00,VWS V14.00,2013-12-22 23:39:00,
2013-12-22 18:40:00,31.2,30.5,29.89,NE,38,0.0,2.0,97,0.00,,SCT065,0.00,VWS V14.00,2013-12-22 23:40:00,
2013-12-22 18:41:00,31.2,30.5,29.89,NE,37,0.0,0.0,97,0.00,,SCT065,0.00,VWS V14.00,2013-12-22 23:41:00,
2013-12-22 18:42:00,31.2,30.5,29.89,NE,37,0.0,0.0,97,0.00,,SCT065,0.00,VWS V14.00,2013-12-22 23:42:00,
2013-12-22 18:43:00,31.2,30.5,29.89,NE,38,0.0,0.0,97,0.00,,SCT065,0.00,VWS V14.00,2013-12-22 23:43:00,
2013-12-22 18:44:00,31.2,30.5,29.89,NE,37,0.0,0.0,97,0.00,,SCT065,0.00,VWS V14.00,2013-12-22 23:44:00,
2013-12-22 18:45:00,31.3,30.5,29.89,NE,38,0.0,0.0,97,0.00,,SCT065,0.00,VWS V14.00,2013-12-22 23:45:00,
2013-12-22 18:46:00,31.3,30.5,29.89,NE,37,0.0,0.0,97,0.00,,SCT065,0.00,VWS V14.00,2013-12-22 23:46:00,
2013-12-22 18:47:00,31.3,30.5,29.89,NE,38,0.0,0.0,97,0.00,,OVC065,0.00,VWS V14.00,2013-12-22 23:47:00,
2013-12-22 18:48:00,31.3,30.5,29.89,NE,38,0.0,0.0,97,0.00,,OVC065,0.00,VWS V14.00,2013-12-22 23:48:00,
2013-12-22 18:49:00,31.3,30.5,29.89,NE,38,0.0,0.0,97,0.00,,OVC065,0.00,VWS V14.00,2013-12-22 23:49:00,
2013-12-22 18:50:00,31.3,30.5,29.89,NE,38,0.0,0.0,97,0.00,,OVC065,0.00,VWS V14.00,2013-12-22 23:50:00,
2013-12-22 18:51:00,31.4,30.6,29.89,NE,37,0.0,0.0,97,0.00,,OVC065,0.00,VWS V14.00,2013-12-22 23:51:00,
2013-12-22 18:52:00,31.4,30.6,29.89,NE,38,0.0,0.0,97,0.00,,OVC065,0.00,VWS V14.00,2013-12-22 23:52:00,
2013-12-22 18:53:00,31.4,30.6,29.90,NE,37,0.0,0.0,97,0.00,,OVC065,0.00,VWS V14.00,2013-12-22 23:53:00,
2013-12-22 18:54:00,31.4,30.6,29.90,NE,38,0.0,0.0,97,0.00,,OVC065,0.00,VWS V14.00,2013-12-22 23:54:00,
2013-12-22 18:55:00,31.4,30.6,29.90,NE,38,0.0,0.0,97,0.00,,OVC065,0.00,VWS V14.00,2013-12-22 23:55:00,
2013-12-22 18:56:00,31.4,30.6,29.90,NE,38,0.0,0.0,97,0.00,,OVC065,0.00,VWS V14.00,2013-12-22 23:56:00,
2013-12-22 18:57:00,31.4,30.6,29.90,NNE,29,0.0,2.0,97,0.00,,OVC065,0.00,VWS V14.00,2013-12-22 23:57:00,
2013-12-22 18:58:00,31.4,30.6,29.90,NNE,29,0.0,2.0,97,0.00,,OVC065,0.00,VWS V14.00,2013-12-22 23:58:00,
2013-12-22 18:59:00,31.5,30.8,29.90,NNE,29,0.0,2.0,97,0.00,,OVC065,0.00,VWS V14.00,2013-12-22 23:59:00,
2013-12-22 19:00:00,31.5,30.8,29.91,NNE,29,0.0,2.0,97,0.00,,OVC065,0.00,VWS V14.00,2013-12-23 00:00:00,
2013-12-22 19:01:00,31.4,30.6,29.91,NNE,29,0.0,0.0,97,0.00,,OVC065,0.00,VWS V14.00,2013-12-23 00:01:00,
2013-12-22 19:02:00,31.5,30.8,29.91,NNE,29,0.0,0.0,97,0.00,,OVC065,0.00,VWS V14.00,2013-12-23 00:02:00,
2013-12-22 19:03:00,31.5,30.8,29.91,NNE,29,0.0,0.0,97,0.00,,OVC065,0.00,VWS V14.00,2013-12-23 00:03:00,
2013-12-22 19:04:00,31.5,30.8,29.91,NNE,29,0.0,0.0,97,0.00,,OVC065,0.00,VWS V14.00,2013-12-23 00:04:00,
2013-12-22 19:05:00,31.5,30.8,29.91,NNE,29,0.0,0.0,97,0.00,,OVC065,0.00,VWS V14.00,2013-12-23 00:05:00,
2013-12-22 19:06:00,31.5,30.8,29.91,NNE,29,0.0,0.0,97,0.00,,OVC065,0.00,VWS V14.00,2013-12-23 00:06:00,
2013-12-22 19:07:00,31.5,30.8,29.91,NNE,29,0.0,0.0,97,0.00,,OVC065,0.00,VWS V14.00,2013-12-23 00:07:00,
2013-12-22 19:08:00,31.6,30.9,29.91,NNE,29,0.0,0.0,97,0.00,,OVC065,0.00,VWS V14.00,2013-12-23 00:08:00,
2013-12-22 19:09:00,31.6,30.9,29.91,NNE,29,0.0,0.0,97,0.00,,OVC065,0.00,VWS V14.00,2013-12-23 00:09:00,
2013-12-22 19:10:00,31.6,30.9,29.91,NNE,29,0.0,0.0,97,0.00,,OVC065,0.00,VWS V14.00,2013-12-23 00:10:00,
2013-12-22 19:11:00,31.6,30.9,29.91,NNE,29,0.0,0.0,97,0.00,,OVC065,0.00,VWS V14.00,2013-12-23 00:11:00,
2013-12-22 19:12:00,31.6,30.9,29.91,NNE,29,0.0,0.0,97,0.00,,OVC065,0.00,VWS V14.00,2013-12-23 00:12:00,
2013-12-22 19:13:00,31.6,30.9,29.91,NNE,29,0.0,0.0,97,0.00,,OVC065,0.00,VWS V14.00,2013-12-23 00:13:00,
2013-12-22 19:14:00,31.6,30.9,29.91,NNE,29,0.0,0.0,97,0.00,,OVC065,0.00,VWS V14.00,2013-12-23 00:14:00,
2013-12-22 19:15:00,31.6,30.9,29.91,NNE,29,0.0,0.0,97,0.00,,OVC065,0.00,VWS V14.00,2013-12-23 00:15:00,
2013-12-22 19:16:00,31.6,30.9,29.91,NNE,29,0.0,0.0,97,0.00,,OVC065,0.00,VWS V14.00,2013-12-23 00:16:00,
2013-12-22 19:17:00,31.6,30.9,29.91,NNE,29,0.0,0.0,97,0.00,,OVC065,0.00,VWS V14.00,2013-12-23 00:17:00,
2013-12-22 19:18:00,31.6,30.9,29.91,NNE,29,0.0,0.0,97,0.00,,OVC065,0.00,VWS V14.00,2013-12-23 00:18:00,
2013-12-22 19:19:00,31.6,30.9,29.91,NNE,29,0.0,0.0,97,0.00,,OVC065,0.00,VWS V14.00,2013-12-23 00:19:00,
2013-12-22 19:20:00,31.6,30.9,29.91,NNE,29,0.0,0.0,97,0.00,,OVC065,0.00,VWS V14.00,2013-12-23 00:20:00,
2013-12-22 19:21:00,31.6,30.9,29.91,NNE,29,0.0,0.0,97,0.00,,OVC065,0.00,VWS V14.00,2013-12-23 00:21:00,
2013-12-22 19:22:00,31.6,30.9,29.91,NNE,29,0.0,0.0,97,0.00,,OVC065,0.00,VWS V14.00,2013-12-23 00:22:00,
2013-12-22 19:23:00,31.6,30.9,29.91,NNE,29,0.0,0.0,97,0.00,,OVC065,0.00,VWS V14.00,2013-12-23 00:23:00,
2013-12-22 19:24:00,31.6,30.9,29.91,NNE,29,0.0,0.0,97,0.00,,OVC065,0.00,VWS V14.00,2013-12-23 00:24:00,
2013-12-22 19:25:00,31.7,31.0,29.91,NNE,29,0.0,0.0,97,0.00,,OVC065,0.00,VWS V14.00,2013-12-23 00:25:00,
2013-12-22 19:26:00,31.7,31.0,29.91,NNE,29,0.0,0.0,97,0.00,,OVC065,0.00,VWS V14.00,2013-12-23 00:26:00,
2013-12-22 19:27:00,31.7,31.0,29.91,NNE,29,0.0,0.0,97,0.00,,OVC065,0.00,VWS V14.00,2013-12-23 00:27:00,
2013-12-22 19:28:00,31.7,31.0,29.91,NNE,29,0.0,0.0,97,0.00,,OVC065,0.00,VWS V14.00,2013-12-23 00:28:00,
2013-12-22 19:29:00,31.8,31.0,29.92,NNE,29,0.0,0.0,97,0.00,,OVC065,0.00,VWS V14.00,2013-12-23 00:29:00,
2013-12-22 19:30:00,31.8,31.0,29.92,NE,50,0.0,3.0,97,0.00,,OVC065,0.00,VWS V14.00,2013-12-23 00:30:00,
2013-12-22 19:31:00,31.9,31.1,29.92,NE,50,1.0,1.0,97,0.00,,OVC065,0.00,VWS V14.00,2013-12-23 00:31:00,
2013-12-22 19:32:00,31.9,31.1,29.92,NE,44,3.0,3.0,97,0.00,,OVC065,0.00,VWS V14.00,2013-12-23 00:32:00,
2013-12-22 19:33:00,31.9,31.1,29.92,NE,44,0.0,3.0,97,0.00,,OVC065,0.00,VWS V14.00,2013-12-23 00:33:00,
2013-12-22 19:34:00,31.9,31.1,29.92,NE,40,2.0,3.0,97,0.00,,OVC065,0.00,VWS V14.00,2013-12-23 00:34:00,
2013-12-22 19:35:00,32.0,31.2,29.92,NE,34,2.0,3.0,97,0.00,,OVC065,0.00,VWS V14.00,2013-12-23 00:35:00,
2013-12-22 19:36:00,32.0,31.2,29.92,NE,35,0.0,3.0,97,0.00,,OVC065,0.00,VWS V14.00,2013-12-23 00:36:00,
2013-12-22 19:37:00,32.0,31.2,29.92,NE,38,1.0,3.0,97,0.00,,OVC065,0.00,VWS V14.00,2013-12-23 00:37:00,
2013-12-22 19:38:00,32.0,31.2,29.92,NE,38,0.0,3.0,97,0.00,,OVC065,0.00,VWS V14.00,2013-12-23 00:38:00,
2013-12-22 19:39:00,32.0,31.2,29.92,NNE,32,2.0,3.0,97,0.00,,OVC065,0.00,VWS V14.00,2013-12-23 00:39:00,
2013-12-22 19:40:00,32.0,31.2,29.92,NNE,32,0.0,3.0,97,0.00,,OVC065,0.00,VWS V14.00,2013-12-23 00:40:00,
2013-12-22 19:41:00,32.0,31.2,29.92,NNE,32,1.0,2.0,97,0.00,,OVC065,0.00,VWS V14.00,2013-12-23 00:41:00,
2013-12-22 19:42:00,32.0,31.2,29.92,NNE,32,0.0,2.0,97,0.00,,OVC065,0.00,VWS V14.00,2013-12-23 00:42:00,
2013-12-22 19:43:00,32.0,31.2,29.92,NNE,32,1.0,2.0,97,0.00,,OVC065,0.00,VWS V14.00,2013-12-23 00:43:00,
2013-12-22 19:44:00,32.0,31.2,29.93,North,5,0.0,2.0,97,0.00,,OVC065,0.00,VWS V14.00,2013-12-23 00:44:00,
2013-12-22 19:45:00,32.0,31.2,29.93,North,5,2.0,2.0,97,0.00,,OVC065,0.00,VWS V14.00,2013-12-23 00:45:00,
2013-12-22 19:46:00,32.0,31.2,29.93,NE,35,3.0,3.0,97,0.00,,OVC065,0.00,VWS V14.00,2013-12-23 00:46:00,
2013-12-22 19:47:00,32.0,31.2,29.93,NE,35,0.0,3.0,97,0.00,,FEW065,0.00,VWS V14.00,2013-12-23 00:47:00,
2013-12-22 19:48:00,32.0,31.2,29.93,NE,34,0.0,3.0,97,0.00,,FEW065,0.00,VWS V14.00,2013-12-23 00:48:00,
2013-12-22 19:49:00,32.0,31.2,29.93,NE,35,0.0,3.0,97,0.00,,FEW065,0.00,VWS V14.00,2013-12-23 00:49:00,
2013-12-22 19:50:00,32.0,31.2,29.93,NE,35,0.0,3.0,97,0.00,,FEW065,0.00,VWS V14.00,2013-12-23 00:50:00,
2013-12-22 19:51:00,32.0,31.2,29.93,NE,34,0.0,0.0,97,0.00,,FEW065,0.00,VWS V14.00,2013-12-23 00:51:00,
2013-12-22 19:52:00,32.0,31.2,29.93,NE,35,0.0,0.0,97,0.00,,FEW065,0.00,VWS V14.00,2013-12-23 00:52:00,
2013-12-22 19:53:00,32.0,31.2,29.93,NE,37,0.0,2.0,97,0.00,,FEW065,0.00,VWS V14.00,2013-12-23 00:53:00,
2013-12-22 19:54:00,32.0,31.2,29.93,NE,38,0.0,2.0,97,0.00,,FEW065,0.00,VWS V14.00,2013-12-23 00:54:00,
2013-12-22 19:55:00,32.0,31.2,29.93,NE,38,0.0,2.0,97,0.00,,FEW065,0.00,VWS V14.00,2013-12-23 00:55:00,
2013-12-22 19:56:00,32.0,31.2,29.93,NE,38,0.0,2.0,97,0.00,,FEW065,0.00,VWS V14.00,2013-12-23 00:56:00,
2013-12-22 19:57:00,32.0,31.2,29.93,NE,38,0.0,2.0,97,0.00,,FEW065,0.00,VWS V14.00,2013-12-23 00:57:00,
2013-12-22 19:58:00,32.0,31.2,29.93,NE,37,0.0,2.0,97,0.00,,FEW065,0.00,VWS V14.00,2013-12-23 00:58:00,
2013-12-22 19:59:00,32.0,31.2,29.93,NE,38,0.0,2.0,97,0.00,,FEW065,0.00,VWS V14.00,2013-12-23 00:59:00,
2013-12-22 20:00:00,32.0,31.2,29.93,NE,49,1.0,2.0,97,0.00,,FEW065,0.00,VWS V14.00,2013-12-23 01:00:00,
2013-12-22 20:01:00,32.0,31.2,29.93,NE,48,1.0,2.0,97,0.00,,FEW065,0.00,VWS V14.00,2013-12-23 01:01:00,
2013-12-22 20:02:00,32.0,31.2,29.93,NE,48,0.0,2.0,97,0.00,,FEW065,0.00,VWS V14.00,2013-12-23 01:02:00,
2013-12-22 20:03:00,32.0,31.2,29.93,NE,48,0.0,2.0,97,0.00,,FEW065,0.00,VWS V14.00,2013-12-23 01:03:00,
2013-12-22 20:04:00,32.0,31.2,29.93,NE,48,0.0,2.0,97,0.00,,FEW065,0.00,VWS V14.00,2013-12-23 01:04:00,
2013-12-22 20:05:00,31.9,31.1,29.93,NE,48,0.0,2.0,97,0.00,,FEW065,0.00,VWS V14.00,2013-12-23 01:05:00,
2013-12-22 20:06:00,32.0,31.2,29.93,NE,48,0.0,2.0,97,0.00,,FEW065,0.00,VWS V14.00,2013-12-23 01:06:00,
2013-12-22 20:07:00,31.9,31.1,29.93,NE,48,1.0,2.0,97,0.00,,FEW065,0.00,VWS V14.00,2013-12-23 01:07:00,
2013-12-22 20:08:00,31.9,31.1,29.93,NE,48,0.0,2.0,97,0.00,,FEW065,0.00,VWS V14.00,2013-12-23 01:08:00,
2013-12-22 20:09:00,32.0,31.2,29.93,NE,48,0.0,2.0,97,0.00,,FEW065,0.00,VWS V14.00,2013-12-23 01:09:00,
2013-12-22 20:10:00,31.9,31.1,29.93,NE,48,2.0,2.0,97,0.00,,FEW065,0.00,VWS V14.00,2013-12-23 01:10:00,
2013-12-22 20:11:00,31.9,31.1,29.93,NE,43,2.0,3.0,97,0.00,,FEW065,0.00,VWS V14.00,2013-12-23 01:11:00,
2013-12-22 20:12:00,31.9,31.1,29.93,NE,44,0.0,3.0,97,0.00,,FEW065,0.00,VWS V14.00,2013-12-23 01:12:00,
2013-12-22 20:13:00,31.9,31.1,29.93,NE,43,2.0,3.0,97,0.00,,FEW065,0.00,VWS V14.00,2013-12-23 01:13:00,
2013-12-22 20:14:00,31.9,31.1,29.93,NE,42,0.0,3.0,97,0.00,,FEW065,0.00,VWS V14.00,2013-12-23 01:14:00,
2013-12-22 20:15:00,31.9,31.1,29.93,NE,43,0.0,3.0,97,0.00,,FEW065,0.00,VWS V14.00,2013-12-23 01:15:00,
2013-12-22 20:16:00,31.9,31.1,29.93,NE,43,0.0,3.0,97,0.00,,FEW065,0.00,VWS V14.00,2013-12-23 01:16:00,
2013-12-22 20:17:00,31.9,31.1,29.93,NE,42,0.0,3.0,97,0.00,,FEW065,0.00,VWS V14.00,2013-12-23 01:17:00,
2013-12-22 20:18:00,31.8,31.0,29.93,NE,43,0.0,3.0,97,0.00,,FEW065,0.00,VWS V14.00,2013-12-23 01:18:00,
2013-12-22 20:19:00,31.9,31.1,29.93,NE,42,0.0,3.0,97,0.00,,FEW065,0.00,VWS V14.00,2013-12-23 01:19:00,
2013-12-22 20:20:00,31.9,31.1,29.93,NE,43,0.0,3.0,97,0.00,,FEW065,0.00,VWS V14.00,2013-12-23 01:20:00,
2013-12-22 20:21:00,31.9,31.1,29.93,NE,43,0.0,0.0,97,0.00,,FEW065,0.00,VWS V14.00,2013-12-23 01:21:00,
2013-12-22 20:22:00,31.8,31.0,29.93,NE,43,0.0,0.0,97,0.00,,FEW065,0.00,VWS V14.00,2013-12-23 01:22:00,
2013-12-22 20:23:00,31.8,31.0,29.93,NE,44,0.0,0.0,97,0.00,,FEW065,0.00,VWS V14.00,2013-12-23 01:23:00,
2013-12-22 20:24:00,31.8,31.0,29.93,NE,42,0.0,0.0,97,0.00,,FEW065,0.00,VWS V14.00,2013-12-23 01:24:00,
2013-12-22 20:25:00,31.8,31.0,29.93,NE,42,0.0,0.0,97,0.00,,FEW065,0.00,VWS V14.00,2013-12-23 01:25:00,
2013-12-22 20:26:00,31.8,31.0,29.93,NE,44,0.0,0.0,97,0.00,,FEW065,0.00,VWS V14.00,2013-12-23 01:26:00,
2013-12-22 20:27:00,31.8,31.0,29.93,NE,42,0.0,0.0,97,0.00,,FEW065,0.00,VWS V14.00,2013-12-23 01:27:00,
2013-12-22 20:28:00,31.8,31.0,29.94,NE,44,0.0,0.0,97,0.00,,FEW065,0.00,VWS V14.00,2013-12-23 01:28:00,
2013-12-22 20:29:00,31.8,31.0,29.94,NE,42,0.0,0.0,97,0.00,,FEW065,0.00,VWS V14.00,2013-12-23 01:29:00,
2013-12-22 20:30:00,31.8,31.0,29.94,NE,43,0.0,0.0,97,0.00,,FEW065,0.00,VWS V14.00,2013-12-23 01:30:00,
2013-12-22 20:31:00,31.8,31.0,29.94,NE,42,0.0,0.0,97,0.00,,FEW065,0.00,VWS V14.00,2013-12-23 01:31:00,
2013-12-22 20:32:00,31.8,31.0,29.94,NE,43,0.0,0.0,97,0.00,,FEW065,0.00,VWS V14.00,2013-12-23 01:32:00,
2013-12-22 20:33:00,31.8,31.0,29.94,NE,44,0.0,0.0,97,0.00,,FEW065,0.00,VWS V14.00,2013-12-23 01:33:00,
2013-12-22 20:34:00,31.8,31.0,29.93,NE,42,0.0,0.0,97,0.00,,FEW065,0.00,VWS V14.00,2013-12-23 01:34:00,
2013-12-22 20:35:00,31.8,31.0,29.94,NE,43,0.0,0.0,97,0.00,,FEW065,0.00,VWS V14.00,2013-12-23 01:35:00,
2013-12-22 20:36:00,31.8,31.0,29.94,NE,42,0.0,0.0,97,0.00,,FEW065,0.00,VWS V14.00,2013-12-23 01:36:00,
2013-12-22 20:37:00,31.8,31.0,29.94,NE,43,0.0,0.0,97,0.00,,FEW065,0.00,VWS V14.00,2013-12-23 01:37:00,
2013-12-22 20:38:00,31.8,31.0,29.94,NE,42,0.0,0.0,97,0.00,,FEW065,0.00,VWS V14.00,2013-12-23 01:38:00,
2013-12-22 20:39:00,31.8,31.0,29.93,NE,43,0.0,0.0,97,0.00,,FEW065,0.00,VWS V14.00,2013-12-23 01:39:00,
2013-12-22 20:40:00,31.8,31.0,29.93,NE,43,0.0,0.0,97,0.00,,FEW065,0.00,VWS V14.00,2013-12-23 01:40:00,
2013-12-22 20:41:00,31.8,31.0,29.93,NE,42,0.0,0.0,97,0.00,,FEW065,0.00,VWS V14.00,2013-12-23 01:41:00,
2013-12-22 20:42:00,31.8,31.0,29.93,NE,43,0.0,0.0,97,0.00,,FEW065,0.00,VWS V14.00,2013-12-23 01:42:00,
2013-12-22 20:43:00,31.8,31.0,29.93,NE,43,0.0,0.0,97,0.00,,FEW065,0.00,VWS V14.00,2013-12-23 01:43:00,
2013-12-22 20:44:00,31.8,31.0,29.93,NE,43,0.0,0.0,97,0.00,,FEW065,0.00,VWS V14.00,2013-12-23 01:44:00,
2013-12-22 20:45:00,31.8,31.0,29.94,NE,43,0.0,0.0,97,0.00,,FEW065,0.00,VWS V14.00,2013-12-23 01:45:00,
2013-12-22 20:46:00,31.8,31.0,29.94,NE,43,0.0,0.0,97,0.00,,FEW065,0.00,VWS V14.00,2013-12-23 01:46:00,
2013-12-22 20:47:00,31.8,31.0,29.94,NE,43,0.0,0.0,97,0.00,,OVC050,0.00,VWS V14.00,2013-12-23 01:47:00,
2013-12-22 20:48:00,31.8,31.0,29.94,NE,42,0.0,0.0,97,0.00,,OVC050,0.00,VWS V14.00,2013-12-23 01:48:00,
2013-12-22 20:49:00,31.8,31.0,29.95,NE,43,0.0,0.0,97,0.00,,OVC050,0.00,VWS V14.00,2013-12-23 01:49:00,
2013-12-22 20:50:00,31.8,31.0,29.95,NE,42,0.0,0.0,97,0.00,,OVC050,0.00,VWS V14.00,2013-12-23 01:50:00,
2013-12-22 20:51:00,31.8,31.0,29.95,NE,43,0.0,0.0,97,0.00,,OVC050,0.00,VWS V14.00,2013-12-23 01:51:00,
2013-12-22 20:52:00,31.8,31.0,29.95,NE,44,0.0,0.0,97,0.00,,OVC050,0.00,VWS V14.00,2013-12-23 01:52:00,
2013-12-22 20:53:00,31.9,31.1,29.95,NE,43,0.0,0.0,97,0.00,,OVC050,0.00,VWS V14.00,2013-12-23 01:53:00,
2013-12-22 20:54:00,31.9,31.1,29.95,NE,43,0.0,0.0,97,0.00,,OVC050,0.00,VWS V14.00,2013-12-23 01:54:00,
2013-12-22 20:55:00,31.9,31.1,29.95,WNW,303,0.0,0.0,97,0.00,,OVC050,0.00,VWS V14.00,2013-12-23 01:55:00,
2013-12-22 20:56:00,31.9,31.1,29.95,WNW,303,0.0,0.0,97,0.00,,OVC050,0.00,VWS V14.00,2013-12-23 01:56:00,
2013-12-22 20:57:00,31.9,31.1,29.95,NW,321,0.0,0.0,97,0.00,,OVC050,0.00,VWS V14.00,2013-12-23 01:57:00,
2013-12-22 20:58:00,31.8,31.0,29.95,NW,321,0.0,0.0,97,0.00,,OVC050,0.00,VWS V14.00,2013-12-23 01:58:00,
2013-12-22 20:59:00,31.8,31.0,29.95,NW,321,0.0,0.0,97,0.00,,OVC050,0.00,VWS V14.00,2013-12-23 01:59:00,
2013-12-22 21:00:00,31.8,31.0,29.95,NW,321,0.0,0.0,97,0.00,,OVC050,0.00,VWS V14.00,2013-12-23 02:00:00,
2013-12-22 21:01:00,31.8,31.0,29.95,NW,321,0.0,0.0,97,0.00,,OVC050,0.00,VWS V14.00,2013-12-23 02:01:00,
2013-12-22 21:02:00,31.8,31.0,29.95,NW,321,0.0,0.0,97,0.00,,OVC050,0.00,VWS V14.00,2013-12-23 02:02:00,
2013-12-22 21:03:00,31.9,31.1,29.95,NW,321,0.0,0.0,97,0.00,,OVC050,0.00,VWS V14.00,2013-12-23 02:03:00,
2013-12-22 21:04:00,31.8,31.0,29.95,NW,321,0.0,0.0,97,0.00,,OVC050,0.00,VWS V14.00,2013-12-23 02:04:00,
2013-12-22 21:05:00,31.8,31.0,29.95,NW,321,0.0,0.0,97,0.00,,OVC050,0.00,VWS V14.00,2013-12-23 02:05:00,
2013-12-22 21:06:00,31.8,31.0,29.96,NW,321,0.0,0.0,97,0.00,,OVC050,0.00,VWS V14.00,2013-12-23 02:06:00,
2013-12-22 21:07:00,31.8,31.0,29.96,NW,321,0.0,0.0,97,0.00,,OVC050,0.00,VWS V14.00,2013-12-23 02:07:00,
2013-12-22 21:08:00,31.8,31.0,29.96,NW,321,0.0,0.0,97,0.00,,OVC050,0.00,VWS V14.00,2013-12-23 02:08:00,
2013-12-22 21:09:00,31.7,31.0,29.96,NW,321,0.0,0.0,97,0.00,,OVC050,0.00,VWS V14.00,2013-12-23 02:09:00,
2013-12-22 21:10:00,31.7,31.0,29.96,NW,321,0.0,0.0,97,0.00,,OVC050,0.00,VWS V14.00,2013-12-23 02:10:00,
2013-12-22 21:11:00,31.7,31.0,29.96,NNW,333,0.0,0.0,97,0.00,,OVC050,0.00,VWS V14.00,2013-12-23 02:11:00,
2013-12-22 21:12:00,31.7,31.0,29.95,ESE,103,0.0,2.0,97,0.00,,OVC050,0.00,VWS V14.00,2013-12-23 02:12:00,
2013-12-22 21:13:00,31.7,31.0,29.95,ESE,104,0.0,2.0,97,0.00,,OVC050,0.00,VWS V14.00,2013-12-23 02:13:00,
2013-12-22 21:14:00,31.7,31.0,29.96,East,100,0.0,2.0,97,0.00,,OVC050,0.00,VWS V14.00,2013-12-23 02:14:00,
2013-12-22 21:15:00,31.7,31.0,29.96,East,96,0.0,2.0,97,0.00,,OVC050,0.00,VWS V14.00,2013-12-23 02:15:00,
2013-12-22 21:16:00,31.7,31.0,29.96,East,96,0.0,2.0,97,0.00,,OVC050,0.00,VWS V14.00,2013-12-23 02:16:00,
2013-12-22 21:17:00,31.8,31.0,29.96,East,96,0.0,2.0,97,0.00,,OVC050,0.00,VWS V14.00,2013-12-23 02:17:00,
2013-12-22 21:18:00,31.8,31.0,29.96,East,96,0.0,2.0,97,0.00,,OVC050,0.00,VWS V14.00,2013-12-23 02:18:00,
2013-12-22 21:19:00,31.9,31.1,29.96,East,96,0.0,2.0,97,0.00,,OVC050,0.00,VWS V14.00,2013-12-23 02:19:00,
2013-12-22 21:20:00,31.9,31.1,29.96,East,96,0.0,2.0,97,0.00,,OVC050,0.00,VWS V14.00,2013-12-23 02:20:00,
2013-12-22 21:21:00,31.9,31.1,29.96,East,96,0.0,0.0,97,0.00,,OVC050,0.00,VWS V14.00,2013-12-23 02:21:00,
2013-12-22 21:22:00,31.9,31.1,29.97,East,96,0.0,0.0,97,0.00,,OVC050,0.00,VWS V14.00,2013-12-23 02:22:00,
2013-12-22 21:23:00,31.9,31.1,29.97,East,96,0.0,0.0,97,0.00,,OVC050,0.00,VWS V14.00,2013-12-23 02:23:00,
2013-12-22 21:24:00,31.9,31.1,29.97,East,96,0.0,0.0,97,0.00,,OVC050,0.00,VWS V14.00,2013-12-23 02:24:00,
2013-12-22 21:25:00,31.9,31.1,29.97,East,96,0.0,0.0,97,0.00,,OVC050,0.00,VWS V14.00,2013-12-23 02:25:00,
2013-12-22 21:26:00,31.9,31.1,29.96,East,96,0.0,0.0,97,0.00,,OVC050,0.00,VWS V14.00,2013-12-23 02:26:00,
2013-12-22 21:27:00,31.9,31.1,29.96,East,96,0.0,0.0,97,0.00,,OVC050,0.00,VWS V14.00,2013-12-23 02:27:00,
2013-12-22 21:28:00,31.9,31.1,29.96,East,96,0.0,0.0,97,0.00,,OVC050,0.00,VWS V14.00,2013-12-23 02:28:00,
2013-12-22 21:29:00,31.9,31.1,29.96,East,96,0.0,0.0,97,0.00,,OVC050,0.00,VWS V14.00,2013-12-23 02:29:00,
2013-12-22 21:30:00,31.9,31.1,29.96,East,96,0.0,0.0,97,0.00,,OVC050,0.00,VWS V14.00,2013-12-23 02:30:00,
2013-12-22 21:31:00,31.9,31.1,29.96,East,96,0.0,0.0,97,0.00,,OVC050,0.00,VWS V14.00,2013-12-23 02:31:00,
2013-12-22 21:32:00,31.9,31.1,29.96,East,96,0.0,0.0,97,0.00,,OVC050,0.00,VWS V14.00,2013-12-23 02:32:00,
2013-12-22 21:33:00,31.9,31.1,29.96,East,96,0.0,0.0,97,0.00,,OVC050,0.00,VWS V14.00,2013-12-23 02:33:00,
2013-12-22 21:34:00,31.8,31.0,29.96,East,96,0.0,0.0,97,0.00,,OVC050,0.00,VWS V14.00,2013-12-23 02:34:00,
2013-12-22 21:35:00,31.9,31.1,29.96,East,96,0.0,0.0,97,0.00,,OVC050,0.00,VWS V14.00,2013-12-23 02:35:00,
2013-12-22 21:36:00,31.9,31.1,29.96,East,96,0.0,0.0,97,0.00,,OVC050,0.00,VWS V14.00,2013-12-23 02:36:00,
2013-12-22 21:37:00,31.9,31.1,29.96,East,96,0.0,0.0,97,0.00,,OVC050,0.00,VWS V14.00,2013-12-23 02:37:00,
2013-12-22 21:38:00,31.9,31.1,29.96,East,96,0.0,0.0,97,0.00,,OVC050,0.00,VWS V14.00,2013-12-23 02:38:00,
2013-12-22 21:39:00,31.9,31.1,29.96,East,96,0.0,0.0,97,0.00,,OVC050,0.00,VWS V14.00,2013-12-23 02:39:00,
2013-12-22 21:40:00,31.9,31.1,29.97,East,96,0.0,0.0,97,0.00,,OVC050,0.00,VWS V14.00,2013-12-23 02:40:00,
2013-12-22 21:41:00,31.9,31.1,29.97,East,96,0.0,0.0,97,0.00,,OVC050,0.00,VWS V14.00,2013-12-23 02:41:00,
2013-12-22 21:42:00,31.9,31.1,29.97,East,96,0.0,0.0,97,0.00,,OVC050,0.00,VWS V14.00,2013-12-23 02:42:00,
2013-12-22 21:43:00,31.9,31.1,29.97,East,96,0.0,0.0,97,0.00,,OVC050,0.00,VWS V14.00,2013-12-23 02:43:00,
2013-12-22 21:44:00,31.9,31.1,29.96,East,96,0.0,0.0,97,0.00,,OVC050,0.00,VWS V14.00,2013-12-23 02:44:00,
2013-12-22 21:45:00,31.9,31.1,29.97,East,96,0.0,0.0,97,0.00,,OVC050,0.00,VWS V14.00,2013-12-23 02:45:00,
2013-12-22 21:46:00,31.9,31.1,29.97,East,96,0.0,0.0,97,0.00,,OVC050,0.00,VWS V14.00,2013-12-23 02:46:00,
2013-12-22 21:47:00,31.9,31.1,29.97,East,96,0.0,0.0,97,0.00,,BKN050,0.00,VWS V14.00,2013-12-23 02:47:00,
2013-12-22 21:48:00,31.9,31.1,29.97,East,96,0.0,0.0,97,0.00,,BKN050,0.00,VWS V14.00,2013-12-23 02:48:00,
2013-12-22 21:49:00,31.9,31.1,29.97,East,96,0.0,0.0,97,0.00,,BKN050,0.00,VWS V14.00,2013-12-23 02:49:00,
2013-12-22 21:50:00,31.9,31.1,29.97,East,96,0.0,0.0,97,0.00,,BKN050,0.00,VWS V14.00,2013-12-23 02:50:00,
2013-12-22 21:51:00,31.9,31.1,29.97,East,96,0.0,0.0,97,0.00,,BKN050,0.00,VWS V14.00,2013-12-23 02:51:00,
2013-12-22 21:52:00,31.9,31.1,29.97,East,96,0.0,0.0,97,0.00,,BKN050,0.00,VWS V14.00,2013-12-23 02:52:00,
2013-12-22 21:53:00,31.9,31.1,29.96,East,96,0.0,0.0,97,0.00,,BKN050,0.00,VWS V14.00,2013-12-23 02:53:00,
2013-12-22 21:54:00,31.9,31.1,29.96,East,96,0.0,0.0,97,0.00,,BKN050,0.00,VWS V14.00,2013-12-23 02:54:00,
2013-12-22 21:55:00,31.9,31.1,29.96,East,96,0.0,0.0,97,0.00,,BKN050,0.00,VWS V14.00,2013-12-23 02:55:00,
2013-12-22 21:56:00,31.8,31.0,29.97,East,96,0.0,0.0,97,0.00,,BKN050,0.00,VWS V14.00,2013-12-23 02:56:00,
2013-12-22 21:57:00,31.8,31.0,29.97,East,96,0.0,0.0,97,0.00,,BKN050,0.00,VWS V14.00,2013-12-23 02:57:00,
2013-12-22 21:58:00,31.8,31.0,29.97,East,96,0.0,0.0,97,0.00,,BKN050,0.00,VWS V14.00,2013-12-23 02:58:00,
2013-12-22 21:59:00,31.8,31.0,29.97,East,96,0.0,0.0,97,0.00,,BKN050,0.00,VWS V14.00,2013-12-23 02:59:00,
2013-12-22 22:00:00,31.8,31.0,29.97,East,96,0.0,0.0,97,0.00,,BKN050,0.00,VWS V14.00,2013-12-23 03:00:00,
2013-12-22 22:01:00,31.8,31.0,29.97,East,96,0.0,0.0,97,0.00,,BKN050,0.00,VWS V14.00,2013-12-23 03:01:00,
2013-12-22 22:02:00,31.8,31.0,29.97,East,96,0.0,0.0,97,0.00,,BKN050,0.00,VWS V14.00,2013-12-23 03:02:00,
2013-12-22 22:03:00,31.8,31.0,29.97,East,96,0.0,0.0,97,0.00,,BKN050,0.00,VWS V14.00,2013-12-23 03:03:00,
2013-12-22 22:04:00,31.8,31.0,29.97,East,96,0.0,0.0,97,0.00,,BKN050,0.00,VWS V14.00,2013-12-23 03:04:00,
2013-12-22 22:05:00,31.9,31.1,29.97,East,96,0.0,0.0,97,0.00,,BKN050,0.00,VWS V14.00,2013-12-23 03:05:00,
2013-12-22 22:06:00,31.9,31.1,29.97,East,96,0.0,0.0,97,0.00,,BKN050,0.00,VWS V14.00,2013-12-23 03:06:00,
2013-12-22 22:07:00,31.9,31.1,29.98,East,96,0.0,0.0,97,0.00,,BKN050,0.00,VWS V14.00,2013-12-23 03:07:00,
2013-12-22 22:08:00,31.9,31.1,29.98,East,96,0.0,0.0,97,0.00,,BKN050,0.00,VWS V14.00,2013-12-23 03:08:00,
2013-12-22 22:09:00,31.9,31.1,29.98,East,96,0.0,0.0,97,0.00,,BKN050,0.00,VWS V14.00,2013-12-23 03:09:00,
2013-12-22 22:10:00,31.9,31.1,29.98,East,96,0.0,0.0,97,0.00,,BKN050,0.00,VWS V14.00,2013-12-23 03:10:00,
2013-12-22 22:11:00,31.9,31.1,29.98,East,96,0.0,0.0,97,0.00,,BKN050,0.00,VWS V14.00,2013-12-23 03:11:00,
2013-12-22 22:12:00,31.9,31.1,29.98,East,96,0.0,0.0,97,0.00,,BKN050,0.00,VWS V14.00,2013-12-23 03:12:00,
2013-12-22 22:13:00,31.9,31.1,29.98,East,96,0.0,0.0,97,0.00,,BKN050,0.00,VWS V14.00,2013-12-23 03:13:00,
2013-12-22 22:14:00,31.9,31.1,29.98,East,96,0.0,0.0,97,0.00,,BKN050,0.00,VWS V14.00,2013-12-23 03:14:00,
2013-12-22 22:15:00,31.9,31.1,29.98,East,96,0.0,0.0,97,0.00,,BKN050,0.00,VWS V14.00,2013-12-23 03:15:00,
2013-12-22 22:16:00,32.0,31.2,29.98,East,96,0.0,0.0,97,0.00,,BKN050,0.00,VWS V14.00,2013-12-23 03:16:00,
2013-12-22 22:17:00,32.0,31.2,29.98,East,96,0.0,0.0,97,0.00,,BKN050,0.00,VWS V14.00,2013-12-23 03:17:00,
2013-12-22 22:18:00,31.9,31.1,29.98,East,96,0.0,0.0,97,0.00,,BKN050,0.00,VWS V14.00,2013-12-23 03:18:00,
2013-12-22 22:19:00,32.0,31.2,29.98,East,96,0.0,0.0,97,0.00,,BKN050,0.00,VWS V14.00,2013-12-23 03:19:00,
2013-12-22 22:20:00,31.9,31.1,29.99,East,96,0.0,0.0,97,0.00,,BKN050,0.00,VWS V14.00,2013-12-23 03:20:00,
2013-12-22 22:21:00,31.9,31.1,29.99,East,96,0.0,0.0,97,0.00,,BKN050,0.00,VWS V14.00,2013-12-23 03:21:00,
2013-12-22 22:22:00,31.9,31.1,29.99,East,96,0.0,0.0,97,0.00,,BKN050,0.00,VWS V14.00,2013-12-23 03:22:00,
2013-12-22 22:23:00,31.9,31.1,29.99,East,96,0.0,0.0,97,0.00,,BKN050,0.00,VWS V14.00,2013-12-23 03:23:00,
2013-12-22 22:24:00,31.9,31.1,29.99,East,96,0.0,0.0,97,0.00,,BKN050,0.00,VWS V14.00,2013-12-23 03:24:00,
2013-12-22 22:25:00,31.9,31.1,29.99,East,96,0.0,0.0,97,0.00,,BKN050,0.00,VWS V14.00,2013-12-23 03:25:00,
2013-12-22 22:26:00,31.9,31.1,29.99,East,96,0.0,0.0,97,0.00,,BKN050,0.00,VWS V14.00,2013-12-23 03:26:00,
2013-12-22 22:27:00,31.9,31.1,29.99,East,96,0.0,0.0,97,0.00,,BKN050,0.00,VWS V14.00,2013-12-23 03:27:00,
2013-12-22 22:28:00,31.9,31.1,29.99,East,96,0.0,0.0,97,0.00,,BKN050,0.00,VWS V14.00,2013-12-23 03:28:00,
2013-12-22 22:29:00,31.9,31.1,29.99,East,96,0.0,0.0,97,0.00,,BKN050,0.00,VWS V14.00,2013-12-23 03:29:00,
2013-12-22 22:30:00,31.9,31.1,29.99,East,96,0.0,0.0,97,0.00,,BKN050,0.00,VWS V14.00,2013-12-23 03:30:00,
2013-12-22 22:31:00,31.9,31.1,29.99,East,96,0.0,0.0,97,0.00,,BKN050,0.00,VWS V14.00,2013-12-23 03:31:00,
2013-12-22 22:32:00,31.9,31.1,29.99,East,96,0.0,0.0,97,0.00,,BKN050,0.00,VWS V14.00,2013-12-23 03:32:00,
2013-12-22 22:33:00,31.9,31.1,29.99,East,96,0.0,0.0,97,0.00,,BKN050,0.00,VWS V14.00,2013-12-23 03:33:00,
2013-12-22 22:34:00,31.9,31.1,29.99,East,96,0.0,0.0,97,0.00,,BKN050,0.00,VWS V14.00,2013-12-23 03:34:00,
2013-12-22 22:35:00,31.9,31.1,30.00,East,96,0.0,0.0,97,0.00,,BKN050,0.00,VWS V14.00,2013-12-23 03:35:00,
2013-12-22 22:36:00,31.9,31.1,29.99,East,96,0.0,0.0,97,0.00,,BKN050,0.00,VWS V14.00,2013-12-23 03:36:00,
2013-12-22 22:37:00,31.9,31.1,30.00,East,96,0.0,0.0,97,0.00,,BKN050,0.00,VWS V14.00,2013-12-23 03:37:00,
2013-12-22 22:38:00,31.9,31.1,29.99,East,96,0.0,0.0,97,0.00,,BKN050,0.00,VWS V14.00,2013-12-23 03:38:00,
2013-12-22 22:39:00,31.9,31.1,29.99,East,96,0.0,0.0,97,0.00,,BKN050,0.00,VWS V14.00,2013-12-23 03:39:00,
2013-12-22 22:40:00,31.9,31.1,29.99,East,96,0.0,0.0,97,0.00,,BKN050,0.00,VWS V14.00,2013-12-23 03:40:00,
2013-12-22 22:41:00,31.9,31.1,29.99,East,96,0.0,0.0,97,0.00,,BKN050,0.00,VWS V14.00,2013-12-23 03:41:00,
2013-12-22 22:42:00,31.9,31.1,29.99,East,96,0.0,0.0,97,0.00,,BKN050,0.00,VWS V14.00,2013-12-23 03:42:00,
2013-12-22 22:43:00,31.9,31.1,29.98,East,96,0.0,0.0,97,0.00,,BKN050,0.00,VWS V14.00,2013-12-23 03:43:00,
2013-12-22 22:44:00,31.9,31.1,29.98,East,96,0.0,0.0,97,0.00,,BKN050,0.00,VWS V14.00,2013-12-23 03:44:00,
2013-12-22 22:45:00,31.8,31.0,29.98,East,96,0.0,0.0,97,0.00,,BKN050,0.00,VWS V14.00,2013-12-23 03:45:00,
2013-12-22 22:46:00,31.9,31.1,29.98,East,96,0.0,0.0,97,0.00,,BKN050,0.00,VWS V14.00,2013-12-23 03:46:00,
2013-12-22 22:47:00,31.8,31.0,29.98,East,96,0.0,0.0,97,0.00,,OVC060,0.00,VWS V14.00,2013-12-23 03:47:00,
2013-12-22 22:48:00,31.8,31.0,29.98,East,96,0.0,0.0,97,0.00,,OVC060,0.00,VWS V14.00,2013-12-23 03:48:00,
2013-12-22 22:49:00,31.8,31.0,29.99,East,96,0.0,0.0,97,0.00,,OVC060,0.00,VWS V14.00,2013-12-23 03:49:00,
2013-12-22 22:50:00,31.8,31.0,29.99,East,96,0.0,0.0,97,0.00,,OVC060,0.00,VWS V14.00,2013-12-23 03:50:00,
2013-12-22 22:51:00,31.8,31.0,29.99,East,96,0.0,0.0,97,0.00,,OVC060,0.00,VWS V14.00,2013-12-23 03:51:00,
2013-12-22 22:52:00,31.8,31.0,29.99,East,96,0.0,0.0,97,0.00,,OVC060,0.00,VWS V14.00,2013-12-23 03:52:00,
2013-12-22 22:53:00,31.8,31.0,29.99,East,96,0.0,0.0,97,0.00,,OVC060,0.00,VWS V14.00,2013-12-23 03:53:00,
2013-12-22 22:54:00,31.8,31.0,29.99,East,96,0.0,0.0,97,0.00,,OVC060,0.00,VWS V14.00,2013-12-23 03:54:00,
2013-12-22 22:55:00,31.8,31.0,29.99,East,96,0.0,0.0,97,0.00,,OVC060,0.00,VWS V14.00,2013-12-23 03:55:00,
2013-12-22 22:56:00,31.8,31.0,29.99,East,96,0.0,0.0,97,0.00,,OVC060,0.00,VWS V14.00,2013-12-23 03:56:00,
2013-12-22 22:57:00,31.8,31.0,29.99,East,96,0.0,0.0,97,0.00,,OVC060,0.00,VWS V14.00,2013-12-23 03:57:00,
2013-12-22 22:58:00,31.8,31.0,29.99,East,96,0.0,0.0,97,0.00,,OVC060,0.00,VWS V14.00,2013-12-23 03:58:00,
2013-12-22 22:59:00,31.8,31.0,29.99,East,96,0.0,0.0,97,0.00,,OVC060,0.00,VWS V14.00,2013-12-23 03:59:00,
2013-12-22 23:00:00,31.8,31.0,29.99,East,96,0.0,0.0,97,0.00,,OVC060,0.00,VWS V14.00,2013-12-23 04:00:00,
2013-12-22 23:01:00,31.8,31.0,29.99,East,96,0.0,0.0,97,0.00,,OVC060,0.00,VWS V14.00,2013-12-23 04:01:00,
2013-12-22 23:02:00,31.7,31.0,29.99,East,96,0.0,0.0,97,0.00,,OVC060,0.00,VWS V14.00,2013-12-23 04:02:00,
2013-12-22 23:03:00,31.7,31.0,29.99,East,96,0.0,0.0,97,0.00,,OVC060,0.00,VWS V14.00,2013-12-23 04:03:00,
2013-12-22 23:04:00,31.7,31.0,29.99,East,96,0.0,0.0,97,0.00,,OVC060,0.00,VWS V14.00,2013-12-23 04:04:00,
2013-12-22 23:05:00,31.7,31.0,30.00,East,96,0.0,0.0,97,0.00,,OVC060,0.00,VWS V14.00,2013-12-23 04:05:00,
2013-12-22 23:06:00,31.8,31.0,30.00,East,96,0.0,0.0,97,0.00,,OVC060,0.00,VWS V14.00,2013-12-23 04:06:00,
2013-12-22 23:07:00,31.8,31.0,30.00,East,96,0.0,0.0,97,0.00,,OVC060,0.00,VWS V14.00,2013-12-23 04:07:00,
2013-12-22 23:08:00,31.8,31.0,30.00,East,96,0.0,0.0,97,0.00,,OVC060,0.00,VWS V14.00,2013-12-23 04:08:00,
2013-12-22 23:09:00,31.7,31.0,30.00,East,96,0.0,0.0,97,0.00,,OVC060,0.00,VWS V14.00,2013-12-23 04:09:00,
2013-12-22 23:10:00,31.7,31.0,30.00,East,96,0.0,0.0,97,0.00,,OVC060,0.00,VWS V14.00,2013-12-23 04:10:00,
2013-12-22 23:11:00,31.7,31.0,30.00,East,96,0.0,0.0,97,0.00,,OVC060,0.00,VWS V14.00,2013-12-23 04:11:00,
2013-12-22 23:12:00,31.7,31.0,29.99,East,96,0.0,0.0,97,0.00,,OVC060,0.00,VWS V14.00,2013-12-23 04:12:00,
2013-12-22 23:13:00,31.7,31.0,30.00,East,96,0.0,0.0,97,0.00,,OVC060,0.00,VWS V14.00,2013-12-23 04:13:00,
2013-12-22 23:14:00,31.7,31.0,29.99,East,96,0.0,0.0,97,0.00,,OVC060,0.00,VWS V14.00,2013-12-23 04:14:00,
2013-12-22 23:15:00,31.7,31.0,30.00,East,96,0.0,0.0,97,0.00,,OVC060,0.00,VWS V14.00,2013-12-23 04:15:00,
2013-12-22 23:16:00,31.7,31.0,30.00,East,96,0.0,0.0,97,0.00,,OVC060,0.00,VWS V14.00,2013-12-23 04:16:00,
2013-12-22 23:17:00,31.7,31.0,30.00,East,96,0.0,0.0,97,0.00,,OVC060,0.00,VWS V14.00,2013-12-23 04:17:00,
2013-12-22 23:18:00,31.7,31.0,30.00,East,96,0.0,0.0,97,0.00,,OVC060,0.00,VWS V14.00,2013-12-23 04:18:00,
2013-12-22 23:19:00,31.7,31.0,29.99,East,96,2.0,2.0,97,0.00,,OVC060,0.00,VWS V14.00,2013-12-23 04:19:00,
2013-12-22 23:20:00,31.7,31.0,29.99,East,96,1.0,2.0,97,0.00,,OVC060,0.00,VWS V14.00,2013-12-23 04:20:00,
2013-12-22 23:21:00,31.7,31.0,29.99,East,96,0.0,0.0,97,0.00,,OVC060,0.00,VWS V14.00,2013-12-23 04:21:00,
2013-12-22 23:22:00,31.7,31.0,30.00,East,96,0.0,0.0,97,0.00,,OVC060,0.00,VWS V14.00,2013-12-23 04:22:00,
2013-12-22 23:23:00,31.7,31.0,30.00,East,96,0.0,0.0,97,0.00,,OVC060,0.00,VWS V14.00,2013-12-23 04:23:00,
2013-12-22 23:24:00,31.7,31.0,29.99,East,96,0.0,0.0,97,0.00,,OVC060,0.00,VWS V14.00,2013-12-23 04:24:00,
2013-12-22 23:25:00,31.7,31.0,30.00,East,96,0.0,0.0,97,0.00,,OVC060,0.00,VWS V14.00,2013-12-23 04:25:00,
2013-12-22 23:26:00,31.7,31.0,30.00,East,96,0.0,0.0,97,0.00,,OVC060,0.00,VWS V14.00,2013-12-23 04:26:00,
2013-12-22 23:27:00,31.7,31.0,30.00,East,96,0.0,0.0,97,0.00,,OVC060,0.00,VWS V14.00,2013-12-23 04:27:00,
2013-12-22 23:28:00,31.7,31.0,30.00,East,96,0.0,0.0,97,0.00,,OVC060,0.00,VWS V14.00,2013-12-23 04:28:00,
2013-12-22 23:29:00,31.8,31.0,30.00,East,96,0.0,0.0,97,0.00,,OVC060,0.00,VWS V14.00,2013-12-23 04:29:00,
2013-12-22 23:30:00,31.8,31.0,30.00,East,96,0.0,0.0,97,0.00,,OVC060,0.00,VWS V14.00,2013-12-23 04:30:00,
2013-12-22 23:31:00,31.8,31.0,30.00,East,96,0.0,0.0,97,0.00,,OVC060,0.00,VWS V14.00,2013-12-23 04:31:00,
2013-12-22 23:32:00,31.9,31.1,30.00,East,96,0.0,0.0,97,0.00,,OVC060,0.00,VWS V14.00,2013-12-23 04:32:00,
2013-12-22 23:33:00,31.9,31.1,30.00,East,96,0.0,0.0,97,0.00,,OVC060,0.00,VWS V14.00,2013-12-23 04:33:00,
2013-12-22 23:34:00,31.9,31.1,30.00,East,96,0.0,0.0,97,0.00,,OVC060,0.00,VWS V14.00,2013-12-23 04:34:00,
2013-12-22 23:35:00,31.9,31.1,30.00,East,96,0.0,0.0,97,0.00,,OVC060,0.00,VWS V14.00,2013-12-23 04:35:00,
2013-12-22 23:36:00,31.9,31.1,30.00,East,96,0.0,0.0,97,0.00,,OVC060,0.00,VWS V14.00,2013-12-23 04:36:00,
2013-12-22 23:37:00,31.9,31.1,30.00,East,96,0.0,0.0,97,0.00,,OVC060,0.00,VWS V14.00,2013-12-23 04:37:00,
2013-12-22 23:38:00,31.9,31.1,30.00,East,96,0.0,0.0,97,0.00,,OVC060,0.00,VWS V14.00,2013-12-23 04:38:00,
2013-12-22 23:39:00,31.9,31.1,30.00,East,96,0.0,0.0,97,0.00,,OVC060,0.00,VWS V14.00,2013-12-23 04:39:00,
2013-12-22 23:40:00,31.9,31.1,30.00,East,96,0.0,0.0,97,0.00,,OVC060,0.00,VWS V14.00,2013-12-23 04:40:00,
2013-12-22 23:41:00,31.8,31.0,30.00,East,96,0.0,0.0,97,0.00,,OVC060,0.00,VWS V14.00,2013-12-23 04:41:00,
2013-12-22 23:42:00,31.9,31.1,30.00,East,96,0.0,0.0,97,0.00,,OVC060,0.00,VWS V14.00,2013-12-23 04:42:00,
2013-12-22 23:43:00,31.9,31.1,30.00,East,96,0.0,0.0,97,0.00,,OVC060,0.00,VWS V14.00,2013-12-23 04:43:00,
2013-12-22 23:44:00,31.9,31.1,30.00,East,96,0.0,0.0,97,0.00,,OVC060,0.00,VWS V14.00,2013-12-23 04:44:00,
2013-12-22 23:45:00,31.8,31.0,29.99,East,96,0.0,0.0,97,0.00,,OVC060,0.00,VWS V14.00,2013-12-23 04:45:00,
2013-12-22 23:46:00,31.8,31.0,29.99,East,96,0.0,0.0,97,0.00,,OVC060,0.00,VWS V14.00,2013-12-23 04:46:00,
2013-12-22 23:47:00,31.8,31.0,29.99,East,96,0.0,0.0,97,0.00,,OVC028,0.00,VWS V14.00,2013-12-23 04:47:00,
2013-12-22 23:48:00,31.8,31.0,29.99,East,96,0.0,0.0,97,0.00,,OVC028,0.00,VWS V14.00,2013-12-23 04:48:00,
2013-12-22 23:49:00,31.8,31.0,29.99,East,96,0.0,0.0,97,0.00,,OVC028,0.00,VWS V14.00,2013-12-23 04:49:00,
2013-12-22 23:50:00,31.8,31.0,29.98,East,96,0.0,0.0,97,0.00,,OVC028,0.00,VWS V14.00,2013-12-23 04:50:00,
2013-12-22 23:51:00,31.8,31.0,29.99,East,96,0.0,0.0,97,0.00,,OVC028,0.00,VWS V14.00,2013-12-23 04:51:00,
2013-12-22 23:52:00,31.8,31.0,29.99,East,96,0.0,0.0,97,0.00,,OVC028,0.00,VWS V14.00,2013-12-23 04:52:00,
2013-12-22 23:53:00,31.8,31.0,29.99,East,96,0.0,0.0,97,0.00,,OVC028,0.00,VWS V14.00,2013-12-23 04:53:00,
2013-12-22 23:54:00,31.8,31.0,29.99,East,96,0.0,0.0,97,0.00,,OVC028,0.00,VWS V14.00,2013-12-23 04:54:00,
2013-12-22 23:55:00,31.8,31.0,29.99,East,96,0.0,0.0,97,0.00,,OVC028,0.00,VWS V14.00,2013-12-23 04:55:00,
2013-12-22 23:56:00,31.8,31.0,29.99,East,96,0.0,0.0,97,0.00,,OVC028,0.00,VWS V14.00,2013-12-23 04:56:00,
2013-12-22 23:57:00,31.8,31.0,29.99,East,96,0.0,0.0,97,0.00,,OVC028,0.00,VWS V14.00,2013-12-23 04:57:00,
2013-12-22 23:58:00,31.8,31.0,29.99,East,96,0.0,0.0,97,0.00,,OVC028,0.00,VWS V14.00,2013-12-23 04:58:00,
2013-12-22 23:59:00,31.8,31.0,29.99,East,96,0.0,0.0,97,0.00,,OVC028,0.00,VWS V14.00,2013-12-23 04:59:00,